Wetterdaten: Montag, 15.04.2019
Datum Zeit Temp. A. Pool Temp. Temp. 5cm Feuchte A. Luftdruck Regen Wind Richtung Richtung Sonnenschein ET UV Solar Taupunkt Windchill Windben Empfang
15.04.2019 00:00 5,6 C 0,0 C 5,6 C 95 % 1021,2 hPa 0,0 l/m 2,1 km/h (1 Bft) SW 234 0 min 0,000 mm 0,0 UV-I 0 W/m 4,9 C 5,6 C 3,2 km/h (1 Bft) 100,00 %
15.04.2019 00:02 5,6 C 0,0 C 5,6 C 95 % 1021,2 hPa 0,0 l/m 2,0 km/h (1 Bft) SW 234 0 min 0,000 mm 0,0 UV-I 0 W/m 4,9 C 5,6 C 3,2 km/h (1 Bft) 97,78 %
15.04.2019 00:04 5,5 C 0,0 C 5,6 C 95 % 1021,2 hPa 0,0 l/m 2,5 km/h (1 Bft) SW 234 0 min 0,000 mm 0,0 UV-I 0 W/m 4,8 C 5,5 C 4,8 km/h (1 Bft) 93,62 %
15.04.2019 00:06 5,5 C 0,0 C 5,6 C 95 % 1021,3 hPa 0,0 l/m 2,0 km/h (1 Bft) SW 234 0 min 0,000 mm 0,0 UV-I 0 W/m 4,8 C 5,5 C 3,2 km/h (1 Bft) 91,49 %
15.04.2019 00:08 5,4 C 0,0 C 5,6 C 95 % 1021,3 hPa 0,0 l/m 2,0 km/h (1 Bft) SW 234 0 min 0,000 mm 0,0 UV-I 0 W/m 4,7 C 5,4 C 3,2 km/h (1 Bft) 94,74 %
15.04.2019 00:10 5,5 C 0,0 C 5,6 C 95 % 1021,2 hPa 0,0 l/m 3,0 km/h (1 Bft) SW 234 0 min 0,000 mm 0,0 UV-I 0 W/m 4,8 C 5,5 C 4,8 km/h (1 Bft) 95,74 %
15.04.2019 00:12 5,5 C 0,0 C 5,6 C 95 % 1021,2 hPa 0,0 l/m 3,7 km/h (1 Bft) SW 234 0 min 0,000 mm 0,0 UV-I 0 W/m 4,8 C 5,5 C 4,8 km/h (1 Bft) 95,74 %
15.04.2019 00:14 5,5 C 0,0 C 5,6 C 95 % 1021,3 hPa 0,0 l/m 2,6 km/h (1 Bft) SW 234 0 min 0,000 mm 0,0 UV-I 0 W/m 4,8 C 5,5 C 3,2 km/h (1 Bft) 97,87 %
15.04.2019 00:16 5,4 C 0,0 C 5,6 C 95 % 1021,3 hPa 0,0 l/m 2,7 km/h (1 Bft) SW 234 0 min 0,000 mm 0,0 UV-I 0 W/m 4,7 C 5,4 C 3,2 km/h (1 Bft) 98,00 %
15.04.2019 00:18 5,4 C 0,0 C 5,6 C 95 % 1021,3 hPa 0,0 l/m 3,4 km/h (1 Bft) SW 234 0 min 0,000 mm 0,0 UV-I 0 W/m 4,7 C 5,4 C 4,8 km/h (1 Bft) 97,87 %
15.04.2019 00:20 5,4 C 0,0 C 5,6 C 95 % 1021,3 hPa 0,0 l/m 3,4 km/h (1 Bft) SW 234 0 min 0,000 mm 0,0 UV-I 0 W/m 4,7 C 5,4 C 4,8 km/h (1 Bft) 96,00 %
15.04.2019 00:22 5,4 C 0,0 C 5,6 C 95 % 1021,4 hPa 0,0 l/m 2,7 km/h (1 Bft) SW 234 0 min 0,000 mm 0,0 UV-I 0 W/m 4,7 C 5,4 C 4,8 km/h (1 Bft) 96,00 %
15.04.2019 00:24 5,4 C 0,0 C 5,6 C 95 % 1021,3 hPa 0,0 l/m 3,0 km/h (1 Bft) SW 233 0 min 0,000 mm 0,0 UV-I 0 W/m 4,7 C 5,4 C 3,2 km/h (1 Bft) 95,74 %
15.04.2019 00:26 5,4 C 0,0 C 5,6 C 95 % 1021,3 hPa 0,0 l/m 3,2 km/h (1 Bft) SW 233 0 min 0,000 mm 0,0 UV-I 0 W/m 4,7 C 5,4 C 4,8 km/h (1 Bft) 97,22 %
15.04.2019 00:28 5,4 C 0,0 C 5,6 C 95 % 1021,4 hPa 0,0 l/m 4,2 km/h (1 Bft) SW 228 0 min 0,000 mm 0,0 UV-I 0 W/m 4,7 C 5,4 C 4,8 km/h (1 Bft) 95,74 %
15.04.2019 00:30 5,4 C 0,0 C 5,6 C 95 % 1021,4 hPa 0,0 l/m 4,8 km/h (1 Bft) SW 221 0 min 0,000 mm 0,0 UV-I 0 W/m 4,7 C 5,4 C 6,4 km/h (2 Bft) 98,00 %
15.04.2019 00:32 5,4 C 0,0 C 5,6 C 95 % 1021,4 hPa 0,0 l/m 3,3 km/h (1 Bft) SW 223 0 min 0,000 mm 0,0 UV-I 0 W/m 4,7 C 5,4 C 6,4 km/h (2 Bft) 97,87 %
15.04.2019 00:34 5,4 C 0,0 C 5,6 C 95 % 1021,4 hPa 0,0 l/m 4,2 km/h (1 Bft) SW 219 0 min 0,000 mm 0,0 UV-I 0 W/m 4,7 C 5,4 C 6,4 km/h (2 Bft) 94,00 %
15.04.2019 00:36 5,4 C 0,0 C 5,6 C 95 % 1021,4 hPa 0,0 l/m 4,1 km/h (1 Bft) SW 219 0 min 0,000 mm 0,0 UV-I 0 W/m 4,7 C 5,4 C 6,4 km/h (2 Bft) 98,00 %
15.04.2019 00:38 5,4 C 0,0 C 5,6 C 95 % 1021,4 hPa 0,0 l/m 4,3 km/h (1 Bft) SW 219 0 min 0,000 mm 0,0 UV-I 0 W/m 4,7 C 5,4 C 6,4 km/h (2 Bft) 95,74 %
15.04.2019 00:40 5,4 C 0,0 C 5,6 C 95 % 1021,4 hPa 0,0 l/m 4,1 km/h (1 Bft) SW 219 0 min 0,000 mm 0,0 UV-I 0 W/m 4,7 C 5,4 C 6,4 km/h (2 Bft) 95,74 %
15.04.2019 00:42 5,5 C 0,0 C 5,6 C 95 % 1021,3 hPa 0,0 l/m 3,0 km/h (1 Bft) SW 219 0 min 0,000 mm 0,0 UV-I 0 W/m 4,8 C 5,5 C 3,2 km/h (1 Bft) 100,00 %
15.04.2019 00:44 5,5 C 0,0 C 5,6 C 95 % 1021,4 hPa 0,0 l/m 3,8 km/h (1 Bft) SW 234 0 min 0,000 mm 0,0 UV-I 0 W/m 4,8 C 5,5 C 6,4 km/h (2 Bft) 97,87 %
15.04.2019 00:46 5,5 C 0,0 C 5,6 C 95 % 1021,4 hPa 0,0 l/m 3,9 km/h (1 Bft) SW 236 0 min 0,000 mm 0,0 UV-I 0 W/m 4,8 C 5,5 C 4,8 km/h (1 Bft) 100,00 %
15.04.2019 00:48 5,5 C 0,0 C 5,6 C 95 % 1021,4 hPa 0,0 l/m 4,8 km/h (1 Bft) W-SW 239 0 min 0,000 mm 0,0 UV-I 0 W/m 4,8 C 5,5 C 6,4 km/h (2 Bft) 100,00 %
15.04.2019 00:50 5,5 C 0,0 C 5,6 C 95 % 1021,4 hPa 0,0 l/m 4,1 km/h (1 Bft) W-SW 245 0 min 0,000 mm 0,0 UV-I 0 W/m 4,8 C 5,5 C 6,4 km/h (2 Bft) 100,00 %
15.04.2019 00:52 5,6 C 0,0 C 5,6 C 95 % 1021,4 hPa 0,0 l/m 6,7 km/h (2 Bft) W-SW 243 0 min 0,000 mm 0,0 UV-I 0 W/m 4,9 C 5,4 C 9,7 km/h (2 Bft) 97,87 %
15.04.2019 00:54 5,5 C 0,0 C 5,6 C 95 % 1021,4 hPa 0,0 l/m 6,6 km/h (2 Bft) W-SW 242 0 min 0,000 mm 0,0 UV-I 0 W/m 4,8 C 5,3 C 9,7 km/h (2 Bft) 97,87 %
15.04.2019 00:56 5,5 C 0,0 C 5,6 C 95 % 1021,4 hPa 0,0 l/m 5,1 km/h (1 Bft) SW 231 0 min 0,000 mm 0,0 UV-I 0 W/m 4,8 C 5,5 C 8,0 km/h (2 Bft) 97,87 %
15.04.2019 00:58 5,4 C 0,0 C 5,6 C 95 % 1021,4 hPa 0,0 l/m 5,7 km/h (1 Bft) SW 234 0 min 0,000 mm 0,0 UV-I 0 W/m 4,7 C 5,4 C 8,0 km/h (2 Bft) 100,00 %
15.04.2019 01:00 5,4 C 0,0 C 5,6 C 95 % 1021,4 hPa 0,0 l/m 4,3 km/h (1 Bft) SW 233 0 min 0,000 mm 0,0 UV-I 0 W/m 4,7 C 5,4 C 6,4 km/h (2 Bft) 100,00 %
15.04.2019 01:02 5,4 C 0,0 C 5,6 C 95 % 1021,4 hPa 0,0 l/m 4,3 km/h (1 Bft) SW 225 0 min 0,000 mm 0,0 UV-I 0 W/m 4,7 C 5,4 C 6,4 km/h (2 Bft) 100,00 %
15.04.2019 01:04 5,4 C 0,0 C 5,6 C 95 % 1021,5 hPa 0,0 l/m 3,7 km/h (1 Bft) SW 225 0 min 0,000 mm 0,0 UV-I 0 W/m 4,7 C 5,4 C 6,4 km/h (2 Bft) 100,00 %
15.04.2019 01:06 5,4 C 0,0 C 5,6 C 95 % 1021,5 hPa 0,0 l/m 3,5 km/h (1 Bft) SW 220 0 min 0,000 mm 0,0 UV-I 0 W/m 4,7 C 5,4 C 6,4 km/h (2 Bft) 100,00 %
15.04.2019 01:08 5,4 C 0,0 C 5,6 C 95 % 1021,5 hPa 0,0 l/m 2,9 km/h (1 Bft) SW 220 0 min 0,000 mm 0,0 UV-I 0 W/m 4,7 C 5,4 C 4,8 km/h (1 Bft) 100,00 %
15.04.2019 01:10 5,4 C 0,0 C 5,6 C 95 % 1021,5 hPa 0,0 l/m 2,5 km/h (1 Bft) SW 221 0 min 0,000 mm 0,0 UV-I 0 W/m 4,7 C 5,4 C 4,8 km/h (1 Bft) 95,74 %
15.04.2019 01:12 5,4 C 0,0 C 5,6 C 95 % 1021,5 hPa 0,0 l/m 1,8 km/h (1 Bft) SW 221 0 min 0,000 mm 0,0 UV-I 0 W/m 4,7 C 5,4 C 3,2 km/h (1 Bft) 97,87 %
15.04.2019 01:14 5,4 C 0,0 C 5,6 C 95 % 1021,5 hPa 0,0 l/m 2,3 km/h (1 Bft) SW 221 0 min 0,000 mm 0,0 UV-I 0 W/m 4,7 C 5,4 C 3,2 km/h (1 Bft) 95,74 %
15.04.2019 01:16 5,4 C 0,0 C 5,6 C 95 % 1021,5 hPa 0,0 l/m 2,5 km/h (1 Bft) SW 221 0 min 0,000 mm 0,0 UV-I 0 W/m 4,7 C 5,4 C 4,8 km/h (1 Bft) 95,74 %
15.04.2019 01:18 5,4 C 0,0 C 5,6 C 95 % 1021,6 hPa 0,0 l/m 2,0 km/h (1 Bft) SW 221 0 min 0,000 mm 0,0 UV-I 0 W/m 4,7 C 5,4 C 3,2 km/h (1 Bft) 95,74 %
15.04.2019 01:20 5,4 C 0,0 C 5,6 C 95 % 1021,6 hPa 0,0 l/m 2,0 km/h (1 Bft) SW 221 0 min 0,000 mm 0,0 UV-I 0 W/m 4,7 C 5,4 C 3,2 km/h (1 Bft) 97,87 %
15.04.2019 01:22 5,4 C 0,0 C 5,6 C 95 % 1021,6 hPa 0,0 l/m 2,5 km/h (1 Bft) SW 221 0 min 0,000 mm 0,0 UV-I 0 W/m 4,7 C 5,4 C 4,8 km/h (1 Bft) 97,87 %
15.04.2019 01:24 5,4 C 0,0 C 5,6 C 95 % 1021,7 hPa 0,0 l/m 3,0 km/h (1 Bft) SW 221 0 min 0,000 mm 0,0 UV-I 0 W/m 4,7 C 5,4 C 4,8 km/h (1 Bft) 95,74 %
15.04.2019 01:26 5,4 C 0,0 C 5,6 C 95 % 1021,6 hPa 0,0 l/m 1,6 km/h (1 Bft) SW 221 0 min 0,000 mm 0,0 UV-I 0 W/m 4,7 C 5,4 C 3,2 km/h (1 Bft) 93,62 %
15.04.2019 01:28 5,4 C 0,0 C 5,6 C 95 % 1021,7 hPa 0,0 l/m 1,4 km/h (1 Bft) SW 221 0 min 0,000 mm 0,0 UV-I 0 W/m 4,7 C 5,4 C 3,2 km/h (1 Bft) 93,62 %
15.04.2019 01:30 5,4 C 0,0 C 5,6 C 95 % 1021,6 hPa 0,0 l/m 1,7 km/h (1 Bft) SW 221 0 min 0,000 mm 0,0 UV-I 0 W/m 4,7 C 5,4 C 3,2 km/h (1 Bft) 97,87 %
15.04.2019 01:32 5,5 C 0,0 C 5,6 C 95 % 1021,7 hPa 0,0 l/m 1,4 km/h (1 Bft) SW 221 0 min 0,000 mm 0,0 UV-I 0 W/m 4,8 C 5,5 C 3,2 km/h (1 Bft) 95,74 %
15.04.2019 01:34 5,4 C 0,0 C 5,6 C 95 % 1021,7 hPa 0,0 l/m 1,6 km/h (1 Bft) SW 221 0 min 0,000 mm 0,0 UV-I 0 W/m 4,7 C 5,4 C 3,2 km/h (1 Bft) 98,00 %
15.04.2019 01:36 5,4 C 0,0 C 5,6 C 95 % 1021,7 hPa 0,0 l/m 1,8 km/h (1 Bft) SW 221 0 min 0,000 mm 0,0 UV-I 0 W/m 4,7 C 5,4 C 3,2 km/h (1 Bft) 98,00 %
15.04.2019 01:38 5,4 C 0,0 C 5,6 C 95 % 1021,8 hPa 0,0 l/m 2,1 km/h (1 Bft) SW 221 0 min 0,000 mm 0,0 UV-I 0 W/m 4,7 C 5,4 C 4,8 km/h (1 Bft) 97,87 %
15.04.2019 01:40 5,4 C 0,0 C 5,6 C 95 % 1021,8 hPa 0,0 l/m 2,9 km/h (1 Bft) SW 221 0 min 0,000 mm 0,0 UV-I 0 W/m 4,7 C 5,4 C 4,8 km/h (1 Bft) 100,00 %
15.04.2019 01:42 5,4 C 0,0 C 5,6 C 95 % 1021,8 hPa 0,0 l/m 3,3 km/h (1 Bft) SW 221 0 min 0,000 mm 0,0 UV-I 0 W/m 4,7 C 5,4 C 4,8 km/h (1 Bft) 100,00 %
15.04.2019 01:44 5,5 C 0,0 C 5,6 C 95 % 1021,8 hPa 0,0 l/m 3,2 km/h (1 Bft) SW 221 0 min 0,000 mm 0,0 UV-I 0 W/m 4,8 C 5,5 C 4,8 km/h (1 Bft) 100,00 %
15.04.2019 01:46 5,4 C 0,0 C 5,6 C 95 % 1021,8 hPa 0,0 l/m 3,8 km/h (1 Bft) SW 221 0 min 0,000 mm 0,0 UV-I 0 W/m 4,7 C 5,4 C 4,8 km/h (1 Bft) 100,00 %
15.04.2019 01:48 5,4 C 0,0 C 5,6 C 95 % 1021,8 hPa 0,0 l/m 2,7 km/h (1 Bft) SW 221 0 min 0,000 mm 0,0 UV-I 0 W/m 4,7 C 5,4 C 4,8 km/h (1 Bft) 100,00 %
15.04.2019 01:50 5,5 C 0,0 C 5,6 C 95 % 1021,8 hPa 0,0 l/m 3,4 km/h (1 Bft) SW 221 0 min 0,000 mm 0,0 UV-I 0 W/m 4,8 C 5,5 C 4,8 km/h (1 Bft) 100,00 %
15.04.2019 01:52 5,5 C 0,0 C 5,6 C 95 % 1021,8 hPa 0,0 l/m 2,8 km/h (1 Bft) SW 221 0 min 0,000 mm 0,0 UV-I 0 W/m 4,8 C 5,5 C 4,8 km/h (1 Bft) 97,87 %
15.04.2019 01:54 5,4 C 0,0 C 5,6 C 95 % 1021,8 hPa 0,0 l/m 2,5 km/h (1 Bft) SW 221 0 min 0,000 mm 0,0 UV-I 0 W/m 4,7 C 5,4 C 4,8 km/h (1 Bft) 100,00 %
15.04.2019 01:56 5,4 C 0,0 C 5,6 C 95 % 1021,8 hPa 0,0 l/m 1,8 km/h (1 Bft) SW 221 0 min 0,000 mm 0,0 UV-I 0 W/m 4,7 C 5,4 C 3,2 km/h (1 Bft) 100,00 %
15.04.2019 01:58 5,5 C 0,0 C 5,6 C 95 % 1021,8 hPa 0,0 l/m 2,5 km/h (1 Bft) SW 221 0 min 0,000 mm 0,0 UV-I 0 W/m 4,8 C 5,5 C 4,8 km/h (1 Bft) 100,00 %
15.04.2019 02:00 5,5 C 0,0 C 5,6 C 95 % 1021,8 hPa 0,0 l/m 3,9 km/h (1 Bft) SW 221 0 min 0,000 mm 0,0 UV-I 0 W/m 4,8 C 5,5 C 4,8 km/h (1 Bft) 97,37 %
15.04.2019 02:02 5,5 C 0,0 C 5,6 C 95 % 1021,8 hPa 0,0 l/m 3,6 km/h (1 Bft) SW 221 0 min 0,000 mm 0,0 UV-I 0 W/m 4,8 C 5,5 C 4,8 km/h (1 Bft) 100,00 %
15.04.2019 02:04 5,5 C 0,0 C 5,6 C 95 % 1021,9 hPa 0,0 l/m 3,4 km/h (1 Bft) SW 221 0 min 0,000 mm 0,0 UV-I 0 W/m 4,8 C 5,5 C 4,8 km/h (1 Bft) 96,00 %
15.04.2019 02:06 5,5 C 0,0 C 5,6 C 95 % 1021,9 hPa 0,0 l/m 3,3 km/h (1 Bft) SW 221 0 min 0,000 mm 0,0 UV-I 0 W/m 4,8 C 5,5 C 4,8 km/h (1 Bft) 100,00 %
15.04.2019 02:08 5,5 C 0,0 C 5,6 C 95 % 1021,9 hPa 0,0 l/m 2,5 km/h (1 Bft) SW 221 0 min 0,000 mm 0,0 UV-I 0 W/m 4,8 C 5,5 C 4,8 km/h (1 Bft) 95,74 %
15.04.2019 02:10 5,5 C 0,0 C 5,6 C 95 % 1021,9 hPa 0,0 l/m 2,9 km/h (1 Bft) SW 221 0 min 0,000 mm 0,0 UV-I 0 W/m 4,8 C 5,5 C 4,8 km/h (1 Bft) 96,00 %
15.04.2019 02:12 5,5 C 0,0 C 5,6 C 95 % 1021,9 hPa 0,0 l/m 2,5 km/h (1 Bft) SW 221 0 min 0,000 mm 0,0 UV-I 0 W/m 4,8 C 5,5 C 3,2 km/h (1 Bft) 97,87 %
15.04.2019 02:14 5,5 C 0,0 C 5,6 C 95 % 1021,9 hPa 0,0 l/m 2,0 km/h (1 Bft) SW 221 0 min 0,000 mm 0,0 UV-I 0 W/m 4,8 C 5,5 C 4,8 km/h (1 Bft) 97,44 %
15.04.2019 02:16 5,4 C 0,0 C 5,6 C 95 % 1021,8 hPa 0,0 l/m 1,7 km/h (1 Bft) SW 221 0 min 0,000 mm 0,0 UV-I 0 W/m 4,7 C 5,4 C 3,2 km/h (1 Bft) 97,87 %
15.04.2019 02:18 5,4 C 0,0 C 5,6 C 95 % 1021,8 hPa 0,0 l/m 1,8 km/h (1 Bft) SW 221 0 min 0,000 mm 0,0 UV-I 0 W/m 4,7 C 5,4 C 3,2 km/h (1 Bft) 97,87 %
15.04.2019 02:20 5,4 C 0,0 C 5,6 C 95 % 1021,8 hPa 0,0 l/m 2,8 km/h (1 Bft) SW 221 0 min 0,000 mm 0,0 UV-I 0 W/m 4,7 C 5,4 C 4,8 km/h (1 Bft) 95,65 %
15.04.2019 02:22 5,4 C 0,0 C 5,6 C 95 % 1021,8 hPa 0,0 l/m 2,7 km/h (1 Bft) SW 221 0 min 0,000 mm 0,0 UV-I 0 W/m 4,7 C 5,4 C 4,8 km/h (1 Bft) 95,74 %
15.04.2019 02:24 5,4 C 0,0 C 5,6 C 95 % 1021,9 hPa 0,0 l/m 3,0 km/h (1 Bft) SW 221 0 min 0,000 mm 0,0 UV-I 0 W/m 4,7 C 5,4 C 4,8 km/h (1 Bft) 95,74 %
15.04.2019 02:26 5,4 C 0,0 C 5,6 C 95 % 1021,8 hPa 0,0 l/m 3,4 km/h (1 Bft) SW 221 0 min 0,000 mm 0,0 UV-I 0 W/m 4,7 C 5,4 C 4,8 km/h (1 Bft) 91,49 %
15.04.2019 02:28 5,4 C 0,0 C 5,6 C 95 % 1021,9 hPa 0,0 l/m 4,1 km/h (1 Bft) SW 221 0 min 0,000 mm 0,0 UV-I 0 W/m 4,7 C 5,4 C 4,8 km/h (1 Bft) 93,62 %
15.04.2019 02:30 5,5 C 0,0 C 5,6 C 95 % 1021,9 hPa 0,0 l/m 3,6 km/h (1 Bft) SW 221 0 min 0,000 mm 0,0 UV-I 0 W/m 4,8 C 5,5 C 4,8 km/h (1 Bft) 95,74 %
15.04.2019 02:32 5,5 C 0,0 C 5,6 C 95 % 1021,9 hPa 0,0 l/m 2,3 km/h (1 Bft) SW 221 0 min 0,000 mm 0,0 UV-I 0 W/m 4,8 C 5,5 C 4,8 km/h (1 Bft) 94,00 %
15.04.2019 02:34 5,4 C 0,0 C 5,6 C 95 % 1021,9 hPa 0,0 l/m 2,6 km/h (1 Bft) SW 221 0 min 0,000 mm 0,0 UV-I 0 W/m 4,7 C 5,4 C 4,8 km/h (1 Bft) 93,62 %
15.04.2019 02:36 5,4 C 0,0 C 5,6 C 95 % 1021,9 hPa 0,0 l/m 2,2 km/h (1 Bft) SW 221 0 min 0,000 mm 0,0 UV-I 0 W/m 4,7 C 5,4 C 3,2 km/h (1 Bft) 93,62 %
15.04.2019 02:38 5,4 C 0,0 C 5,6 C 95 % 1021,9 hPa 0,0 l/m 2,3 km/h (1 Bft) SW 221 0 min 0,000 mm 0,0 UV-I 0 W/m 4,7 C 5,4 C 3,2 km/h (1 Bft) 91,49 %
15.04.2019 02:40 5,4 C 0,0 C 5,6 C 95 % 1021,9 hPa 0,0 l/m 2,5 km/h (1 Bft) SW 221 0 min 0,000 mm 0,0 UV-I 0 W/m 4,7 C 5,4 C 3,2 km/h (1 Bft) 92,00 %
15.04.2019 02:42 5,4 C 0,0 C 5,6 C 95 % 1021,9 hPa 0,0 l/m 2,3 km/h (1 Bft) SW 221 0 min 0,000 mm 0,0 UV-I 0 W/m 4,7 C 5,4 C 3,2 km/h (1 Bft) 93,62 %
15.04.2019 02:44 5,4 C 0,0 C 5,6 C 95 % 1022,0 hPa 0,0 l/m 2,5 km/h (1 Bft) SW 221 0 min 0,000 mm 0,0 UV-I 0 W/m 4,7 C 5,4 C 4,8 km/h (1 Bft) 93,62 %
15.04.2019 02:46 5,4 C 0,0 C 5,6 C 95 % 1021,9 hPa 0,0 l/m 4,0 km/h (1 Bft) SW 221 0 min 0,000 mm 0,0 UV-I 0 W/m 4,7 C 5,4 C 4,8 km/h (1 Bft) 87,23 %
15.04.2019 02:48 5,4 C 0,0 C 5,6 C 95 % 1022,0 hPa 0,0 l/m 4,2 km/h (1 Bft) S-SW 207 0 min 0,000 mm 0,0 UV-I 0 W/m 4,7 C 5,4 C 6,4 km/h (2 Bft) 93,62 %
15.04.2019 02:50 5,4 C 0,0 C 5,6 C 95 % 1022,0 hPa 0,0 l/m 3,3 km/h (1 Bft) S-SW 207 0 min 0,000 mm 0,0 UV-I 0 W/m 4,7 C 5,4 C 6,4 km/h (2 Bft) 93,62 %
15.04.2019 02:52 5,4 C 0,0 C 5,6 C 95 % 1022,0 hPa 0,2 l/m 2,8 km/h (1 Bft) S-SW 207 0 min 0,000 mm 0,0 UV-I 0 W/m 4,7 C 5,4 C 4,8 km/h (1 Bft) 91,49 %
15.04.2019 02:54 5,4 C 0,0 C 5,6 C 95 % 1021,9 hPa 0,0 l/m 3,0 km/h (1 Bft) S-SW 207 0 min 0,000 mm 0,0 UV-I 0 W/m 4,7 C 5,4 C 4,8 km/h (1 Bft) 91,67 %
15.04.2019 02:56 5,4 C 0,0 C 5,6 C 95 % 1022,0 hPa 0,0 l/m 3,3 km/h (1 Bft) S-SW 207 0 min 0,000 mm 0,0 UV-I 0 W/m 4,7 C 5,4 C 4,8 km/h (1 Bft) 98,00 %
15.04.2019 02:58 5,4 C 0,0 C 5,6 C 95 % 1022,0 hPa 0,0 l/m 4,1 km/h (1 Bft) S-SW 207 0 min 0,000 mm 0,0 UV-I 0 W/m 4,7 C 5,4 C 6,4 km/h (2 Bft) 97,87 %
15.04.2019 03:00 5,4 C 0,0 C 5,6 C 95 % 1022,0 hPa 0,0 l/m 3,3 km/h (1 Bft) S-SW 207 0 min 0,000 mm 0,0 UV-I 0 W/m 4,7 C 5,4 C 4,8 km/h (1 Bft) 97,87 %
15.04.2019 03:02 5,4 C 0,0 C 5,6 C 95 % 1022,0 hPa 0,0 l/m 2,2 km/h (1 Bft) S-SW 207 0 min 0,000 mm 0,0 UV-I 0 W/m 4,7 C 5,4 C 4,8 km/h (1 Bft) 98,00 %
15.04.2019 03:04 5,4 C 0,0 C 5,6 C 95 % 1022,0 hPa 0,0 l/m 3,0 km/h (1 Bft) S-SW 207 0 min 0,000 mm 0,0 UV-I 0 W/m 4,7 C 5,4 C 4,8 km/h (1 Bft) 98,00 %
15.04.2019 03:06 5,4 C 0,0 C 5,6 C 95 % 1022,0 hPa 0,0 l/m 3,8 km/h (1 Bft) S-SW 208 0 min 0,000 mm 0,0 UV-I 0 W/m 4,7 C 5,4 C 6,4 km/h (2 Bft) 95,74 %
15.04.2019 03:08 5,4 C 0,0 C 5,6 C 95 % 1022,0 hPa 0,0 l/m 3,8 km/h (1 Bft) S-SW 208 0 min 0,000 mm 0,0 UV-I 0 W/m 4,7 C 5,4 C 4,8 km/h (1 Bft) 95,74 %
15.04.2019 03:10 5,4 C 0,0 C 5,6 C 95 % 1021,9 hPa 0,0 l/m 3,3 km/h (1 Bft) S-SW 208 0 min 0,000 mm 0,0 UV-I 0 W/m 4,7 C 5,4 C 4,8 km/h (1 Bft) 95,74 %
15.04.2019 03:12 5,4 C 0,0 C 5,6 C 95 % 1021,9 hPa 0,0 l/m 4,4 km/h (1 Bft) SW 214 0 min 0,000 mm 0,0 UV-I 0 W/m 4,7 C 5,4 C 6,4 km/h (2 Bft) 100,00 %
15.04.2019 03:14 5,4 C 0,0 C 5,0 C 95 % 1022,0 hPa 0,0 l/m 3,9 km/h (1 Bft) SW 215 0 min 0,000 mm 0,0 UV-I 0 W/m 4,7 C 5,4 C 6,4 km/h (2 Bft) 100,00 %
15.04.2019 03:16 5,4 C 0,0 C 5,0 C 95 % 1021,9 hPa 0,0 l/m 2,3 km/h (1 Bft) SW 215 0 min 0,000 mm 0,0 UV-I 0 W/m 4,7 C 5,4 C 3,2 km/h (1 Bft) 100,00 %
15.04.2019 03:18 5,4 C 0,0 C 5,0 C 95 % 1022,0 hPa 0,0 l/m 2,5 km/h (1 Bft) SW 215 0 min 0,000 mm 0,0 UV-I 0 W/m 4,7 C 5,4 C 3,2 km/h (1 Bft) 95,74 %
15.04.2019 03:20 5,4 C 0,0 C 5,0 C 95 % 1022,0 hPa 0,0 l/m 3,0 km/h (1 Bft) SW 215 0 min 0,000 mm 0,0 UV-I 0 W/m 4,7 C 5,4 C 4,8 km/h (1 Bft) 95,74 %
15.04.2019 03:22 5,3 C 0,0 C 5,6 C 95 % 1022,1 hPa 0,0 l/m 2,9 km/h (1 Bft) SW 215 0 min 0,000 mm 0,0 UV-I 0 W/m 4,6 C 5,3 C 3,2 km/h (1 Bft) 100,00 %
15.04.2019 03:24 5,4 C 0,0 C 5,6 C 95 % 1022,1 hPa 0,0 l/m 2,4 km/h (1 Bft) SW 215 0 min 0,000 mm 0,0 UV-I 0 W/m 4,7 C 5,4 C 4,8 km/h (1 Bft) 95,74 %
15.04.2019 03:26 5,4 C 0,0 C 5,6 C 95 % 1022,1 hPa 0,0 l/m 2,6 km/h (1 Bft) SW 215 0 min 0,000 mm 0,0 UV-I 0 W/m 4,7 C 5,4 C 3,2 km/h (1 Bft) 100,00 %
15.04.2019 03:28 5,4 C 0,0 C 5,6 C 95 % 1022,1 hPa 0,0 l/m 2,3 km/h (1 Bft) SW 215 0 min 0,000 mm 0,0 UV-I 0 W/m 4,7 C 5,4 C 3,2 km/h (1 Bft) 100,00 %
15.04.2019 03:30 5,4 C 0,0 C 5,6 C 95 % 1022,1 hPa 0,0 l/m 2,5 km/h (1 Bft) SW 215 0 min 0,000 mm 0,0 UV-I 0 W/m 4,7 C 5,4 C 4,8 km/h (1 Bft) 100,00 %
15.04.2019 03:32 5,4 C 0,0 C 5,6 C 95 % 1022,0 hPa 0,0 l/m 2,7 km/h (1 Bft) SW 215 0 min 0,000 mm 0,0 UV-I 0 W/m 4,7 C 5,4 C 4,8 km/h (1 Bft) 97,92 %
15.04.2019 03:34 5,4 C 0,0 C 5,6 C 95 % 1022,0 hPa 0,0 l/m 2,4 km/h (1 Bft) SW 215 0 min 0,000 mm 0,0 UV-I 0 W/m 4,7 C 5,4 C 4,8 km/h (1 Bft) 100,00 %
15.04.2019 03:36 5,4 C 0,0 C 5,6 C 95 % 1022,0 hPa 0,0 l/m 3,9 km/h (1 Bft) SW 215 0 min 0,000 mm 0,0 UV-I 0 W/m 4,7 C 5,4 C 4,8 km/h (1 Bft) 100,00 %
15.04.2019 03:38 5,4 C 0,0 C 5,6 C 95 % 1022,0 hPa 0,0 l/m 2,6 km/h (1 Bft) SW 215 0 min 0,000 mm 0,0 UV-I 0 W/m 4,7 C 5,4 C 4,8 km/h (1 Bft) 98,00 %
15.04.2019 03:40 5,4 C 0,0 C 5,6 C 95 % 1022,0 hPa 0,0 l/m 3,2 km/h (1 Bft) SW 215 0 min 0,000 mm 0,0 UV-I 0 W/m 4,7 C 5,4 C 4,8 km/h (1 Bft) 100,00 %
15.04.2019 03:42 5,4 C 0,0 C 5,6 C 96 % 1022,0 hPa 0,0 l/m 3,8 km/h (1 Bft) SW 215 0 min 0,000 mm 0,0 UV-I 0 W/m 4,8 C 5,4 C 4,8 km/h (1 Bft) 100,00 %
15.04.2019 03:44 5,4 C 0,0 C 5,6 C 95 % 1021,9 hPa 0,0 l/m 4,7 km/h (1 Bft) SW 217 0 min 0,000 mm 0,0 UV-I 0 W/m 4,7 C 5,4 C 6,4 km/h (2 Bft) 100,00 %
15.04.2019 03:46 5,4 C 0,0 C 5,6 C 95 % 1022,0 hPa 0,0 l/m 6,0 km/h (2 Bft) SW 220 0 min 0,000 mm 0,0 UV-I 0 W/m 4,7 C 5,4 C 8,0 km/h (2 Bft) 100,00 %
15.04.2019 03:48 5,4 C 0,0 C 5,6 C 96 % 1021,9 hPa 0,0 l/m 8,5 km/h (2 Bft) S-SW 211 0 min 0,000 mm 0,0 UV-I 0 W/m 4,8 C 3,6 C 11,3 km/h (2 Bft) 100,00 %
15.04.2019 03:50 5,4 C 0,0 C 5,6 C 96 % 1021,8 hPa 0,2 l/m 9,3 km/h (2 Bft) SW 223 0 min 0,000 mm 0,0 UV-I 0 W/m 4,8 C 3,0 C 11,3 km/h (2 Bft) 97,37 %
15.04.2019 03:52 5,4 C 0,0 C 5,6 C 96 % 1021,8 hPa 0,0 l/m 8,6 km/h (2 Bft) SW 216 0 min 0,000 mm 0,0 UV-I 0 W/m 4,8 C 3,5 C 14,5 km/h (3 Bft) 97,87 %
15.04.2019 03:54 5,4 C 0,0 C 5,6 C 95 % 1021,8 hPa 0,0 l/m 7,1 km/h (2 Bft) S-SW 211 0 min 0,000 mm 0,0 UV-I 0 W/m 4,7 C 4,8 C 9,7 km/h (2 Bft) 96,00 %
15.04.2019 03:56 5,4 C 0,0 C 5,6 C 95 % 1021,9 hPa 0,0 l/m 5,3 km/h (1 Bft) SW 219 0 min 0,000 mm 0,0 UV-I 0 W/m 4,7 C 5,4 C 8,0 km/h (2 Bft) 97,87 %
15.04.2019 03:58 5,4 C 0,0 C 5,6 C 95 % 1021,9 hPa 0,0 l/m 2,6 km/h (1 Bft) S-SW 212 0 min 0,000 mm 0,0 UV-I 0 W/m 4,7 C 5,4 C 4,8 km/h (1 Bft) 98,00 %
15.04.2019 04:00 5,4 C 0,0 C 5,6 C 95 % 1022,0 hPa 0,0 l/m 4,5 km/h (1 Bft) SW 234 0 min 0,000 mm 0,0 UV-I 0 W/m 4,7 C 5,4 C 6,4 km/h (2 Bft) 97,87 %
15.04.2019 04:02 5,4 C 0,0 C 5,6 C 95 % 1021,9 hPa 0,0 l/m 5,8 km/h (2 Bft) SW 235 0 min 0,000 mm 0,0 UV-I 0 W/m 4,7 C 5,4 C 11,3 km/h (2 Bft) 95,65 %
15.04.2019 04:04 5,4 C 0,0 C 5,6 C 95 % 1021,9 hPa 0,0 l/m 8,6 km/h (2 Bft) W-SW 245 0 min 0,000 mm 0,0 UV-I 0 W/m 4,7 C 3,5 C 12,9 km/h (3 Bft) 96,00 %
15.04.2019 04:06 5,4 C 0,0 C 5,6 C 95 % 1021,9 hPa 0,0 l/m 6,6 km/h (2 Bft) W-SW 241 0 min 0,000 mm 0,0 UV-I 0 W/m 4,7 C 5,2 C 9,7 km/h (2 Bft) 97,87 %
15.04.2019 04:08 5,4 C 0,0 C 5,6 C 95 % 1021,9 hPa 0,0 l/m 5,5 km/h (1 Bft) SW 236 0 min 0,000 mm 0,0 UV-I 0 W/m 4,7 C 5,4 C 9,7 km/h (2 Bft) 95,45 %
15.04.2019 04:10 5,4 C 0,0 C 5,6 C 95 % 1021,8 hPa 0,2 l/m 9,0 km/h (2 Bft) SW 236 0 min 0,000 mm 0,0 UV-I 0 W/m 4,7 C 3,2 C 14,5 km/h (3 Bft) 96,00 %
15.04.2019 04:12 5,4 C 0,0 C 5,6 C 96 % 1021,8 hPa 0,0 l/m 8,9 km/h (2 Bft) W-SW 252 0 min 0,000 mm 0,0 UV-I 0 W/m 4,8 C 3,3 C 14,5 km/h (3 Bft) 97,87 %
15.04.2019 04:14 5,4 C 0,0 C 5,6 C 96 % 1021,8 hPa 0,0 l/m 6,9 km/h (2 Bft) SW 215 0 min 0,000 mm 0,0 UV-I 0 W/m 4,8 C 5,0 C 11,3 km/h (2 Bft) 95,74 %
15.04.2019 04:16 5,3 C 0,0 C 5,6 C 96 % 1021,8 hPa 0,0 l/m 9,6 km/h (2 Bft) SW 233 0 min 0,000 mm 0,0 UV-I 0 W/m 4,7 C 2,7 C 12,9 km/h (3 Bft) 97,87 %
15.04.2019 04:18 5,3 C 0,0 C 5,6 C 96 % 1021,8 hPa 0,0 l/m 6,5 km/h (2 Bft) W-SW 242 0 min 0,000 mm 0,0 UV-I 0 W/m 4,7 C 5,2 C 9,7 km/h (2 Bft) 100,00 %
15.04.2019 04:20 5,3 C 0,0 C 5,0 C 96 % 1021,8 hPa 0,0 l/m 6,7 km/h (2 Bft) W-SW 243 0 min 0,000 mm 0,0 UV-I 0 W/m 4,7 C 5,1 C 11,3 km/h (2 Bft) 100,00 %
15.04.2019 04:22 5,3 C 0,0 C 5,0 C 96 % 1021,9 hPa 0,0 l/m 5,7 km/h (1 Bft) SW 225 0 min 0,000 mm 0,0 UV-I 0 W/m 4,7 C 5,3 C 9,7 km/h (2 Bft) 100,00 %
15.04.2019 04:24 5,3 C 0,0 C 5,0 C 96 % 1021,9 hPa 0,0 l/m 6,2 km/h (2 Bft) SW 217 0 min 0,000 mm 0,0 UV-I 0 W/m 4,7 C 5,3 C 8,0 km/h (2 Bft) 100,00 %
15.04.2019 04:26 5,3 C 0,0 C 5,0 C 96 % 1021,9 hPa 0,0 l/m 4,9 km/h (1 Bft) S-SW 209 0 min 0,000 mm 0,0 UV-I 0 W/m 4,7 C 5,3 C 9,7 km/h (2 Bft) 100,00 %
15.04.2019 04:28 5,3 C 0,0 C 4,4 C 96 % 1021,9 hPa 0,0 l/m 4,0 km/h (1 Bft) SW 219 0 min 0,000 mm 0,0 UV-I 0 W/m 4,7 C 5,3 C 6,4 km/h (2 Bft) 93,62 %
15.04.2019 04:30 5,2 C 0,0 C 4,4 C 96 % 1022,0 hPa 0,0 l/m 4,1 km/h (1 Bft) W 268 0 min 0,000 mm 0,0 UV-I 0 W/m 4,6 C 5,2 C 6,4 km/h (2 Bft) 94,00 %
15.04.2019 04:32 5,2 C 0,0 C 4,4 C 96 % 1022,0 hPa 0,0 l/m 3,1 km/h (1 Bft) NW 315 0 min 0,000 mm 0,0 UV-I 0 W/m 4,6 C 5,2 C 4,8 km/h (1 Bft) 98,00 %
15.04.2019 04:34 5,1 C 0,0 C 4,4 C 95 % 1022,0 hPa 0,0 l/m 3,3 km/h (1 Bft) NW 315 0 min 0,000 mm 0,0 UV-I 0 W/m 4,4 C 5,1 C 4,8 km/h (1 Bft) 97,87 %
15.04.2019 04:36 4,9 C 0,0 C 3,9 C 95 % 1022,1 hPa 0,0 l/m 2,6 km/h (1 Bft) NW 315 0 min 0,000 mm 0,0 UV-I 0 W/m 4,2 C 4,9 C 3,2 km/h (1 Bft) 97,87 %
15.04.2019 04:38 4,9 C 0,0 C 3,9 C 95 % 1022,0 hPa 0,0 l/m 1,8 km/h (1 Bft) NW 315 0 min 0,000 mm 0,0 UV-I 0 W/m 4,2 C 4,9 C 3,2 km/h (1 Bft) 97,56 %
15.04.2019 04:40 4,9 C 0,0 C 3,9 C 96 % 1022,0 hPa 0,0 l/m 0,1 km/h (0 Bft) NW 315 0 min 0,000 mm 0,0 UV-I 0 W/m 4,3 C 4,9 C 1,6 km/h (1 Bft) 97,87 %
15.04.2019 04:42 5,0 C 0,0 C 3,3 C 96 % 1022,0 hPa 0,0 l/m 0,6 km/h (0 Bft) NW 315 0 min 0,000 mm 0,0 UV-I 0 W/m 4,4 C 5,0 C 1,6 km/h (1 Bft) 91,49 %
15.04.2019 04:44 5,0 C 0,0 C 3,3 C 96 % 1022,0 hPa 0,0 l/m 1,0 km/h (0 Bft) NW 315 0 min 0,000 mm 0,0 UV-I 0 W/m 4,4 C 5,0 C 1,6 km/h (1 Bft) 94,00 %
15.04.2019 04:46 5,0 C 0,0 C 3,3 C 96 % 1022,0 hPa 0,0 l/m 1,4 km/h (1 Bft) NW 315 0 min 0,000 mm 0,0 UV-I 0 W/m 4,4 C 5,0 C 3,2 km/h (1 Bft) 97,87 %
15.04.2019 04:48 5,0 C 0,0 C 3,9 C 96 % 1022,0 hPa 0,0 l/m 1,7 km/h (1 Bft) NW 315 0 min 0,000 mm 0,0 UV-I 0 W/m 4,4 C 5,0 C 3,2 km/h (1 Bft) 93,75 %
15.04.2019 04:50 5,1 C 0,0 C 3,3 C 96 % 1022,0 hPa 0,0 l/m 1,8 km/h (1 Bft) NW 315 0 min 0,000 mm 0,0 UV-I 0 W/m 4,5 C 5,1 C 3,2 km/h (1 Bft) 97,87 %
15.04.2019 04:52 5,0 C 0,0 C 3,9 C 96 % 1022,1 hPa 0,0 l/m 1,9 km/h (1 Bft) NW 315 0 min 0,000 mm 0,0 UV-I 0 W/m 4,4 C 5,0 C 3,2 km/h (1 Bft) 97,87 %
15.04.2019 04:54 5,1 C 0,0 C 3,9 C 96 % 1022,0 hPa 0,0 l/m 2,3 km/h (1 Bft) NW 315 0 min 0,000 mm 0,0 UV-I 0 W/m 4,5 C 5,1 C 3,2 km/h (1 Bft) 97,87 %
15.04.2019 04:56 4,9 C 0,0 C 3,3 C 96 % 1022,1 hPa 0,0 l/m 1,8 km/h (1 Bft) NW 315 0 min 0,000 mm 0,0 UV-I 0 W/m 4,3 C 4,9 C 3,2 km/h (1 Bft) 98,00 %
15.04.2019 04:58 4,8 C 0,0 C 3,3 C 96 % 1022,1 hPa 0,0 l/m 1,7 km/h (1 Bft) NW 315 0 min 0,000 mm 0,0 UV-I 0 W/m 4,2 C 4,8 C 3,2 km/h (1 Bft) 97,87 %
15.04.2019 05:00 4,7 C 0,0 C 3,3 C 95 % 1022,1 hPa 0,0 l/m 1,5 km/h (1 Bft) NW 315 0 min 0,000 mm 0,0 UV-I 0 W/m 4,0 C 4,7 C 1,6 km/h (1 Bft) 97,87 %
15.04.2019 05:02 4,6 C 0,0 C 2,8 C 95 % 1022,0 hPa 0,0 l/m 2,3 km/h (1 Bft) NW 315 0 min 0,000 mm 0,0 UV-I 0 W/m 3,9 C 4,6 C 3,2 km/h (1 Bft) 100,00 %
15.04.2019 05:04 4,5 C 0,0 C 2,8 C 96 % 1022,1 hPa 0,0 l/m 2,3 km/h (1 Bft) NW 314 0 min 0,000 mm 0,0 UV-I 0 W/m 3,9 C 4,5 C 3,2 km/h (1 Bft) 100,00 %
15.04.2019 05:06 4,4 C 0,0 C 2,2 C 95 % 1022,1 hPa 0,0 l/m 2,1 km/h (1 Bft) NW 314 0 min 0,000 mm 0,0 UV-I 0 W/m 3,7 C 4,4 C 3,2 km/h (1 Bft) 100,00 %
15.04.2019 05:08 4,4 C 0,0 C 2,2 C 95 % 1022,0 hPa 0,0 l/m 2,5 km/h (1 Bft) NW 314 0 min 0,000 mm 0,0 UV-I 0 W/m 3,7 C 4,4 C 3,2 km/h (1 Bft) 100,00 %
15.04.2019 05:10 4,2 C 0,0 C 2,2 C 96 % 1022,1 hPa 0,0 l/m 2,4 km/h (1 Bft) NW 314 0 min 0,000 mm 0,0 UV-I 0 W/m 3,6 C 4,2 C 3,2 km/h (1 Bft) 98,00 %
15.04.2019 05:12 4,1 C 0,0 C 1,7 C 96 % 1022,1 hPa 0,0 l/m 3,0 km/h (1 Bft) NW 313 0 min 0,000 mm 0,0 UV-I 0 W/m 3,5 C 4,1 C 3,2 km/h (1 Bft) 96,00 %
15.04.2019 05:14 3,9 C 0,0 C 2,2 C 95 % 1022,1 hPa 0,0 l/m 3,1 km/h (1 Bft) SW 219 0 min 0,000 mm 0,0 UV-I 0 W/m 3,2 C 3,9 C 3,2 km/h (1 Bft) 97,87 %
15.04.2019 05:16 3,9 C 0,0 C 2,2 C 96 % 1022,1 hPa 0,0 l/m 3,7 km/h (1 Bft) SW 219 0 min 0,000 mm 0,0 UV-I 0 W/m 3,3 C 3,9 C 4,8 km/h (1 Bft) 97,87 %
15.04.2019 05:18 3,9 C 0,0 C 1,7 C 96 % 1022,1 hPa 0,0 l/m 3,8 km/h (1 Bft) SW 217 0 min 0,000 mm 0,0 UV-I 0 W/m 3,3 C 3,9 C 4,8 km/h (1 Bft) 97,87 %
15.04.2019 05:20 3,9 C 0,0 C 1,7 C 96 % 1022,1 hPa 0,0 l/m 3,3 km/h (1 Bft) SW 217 0 min 0,000 mm 0,0 UV-I 0 W/m 3,3 C 3,9 C 4,8 km/h (1 Bft) 93,62 %
15.04.2019 05:22 4,1 C 0,0 C 2,2 C 96 % 1022,1 hPa 0,0 l/m 3,2 km/h (1 Bft) SW 217 0 min 0,000 mm 0,0 UV-I 0 W/m 3,5 C 4,1 C 4,8 km/h (1 Bft) 97,87 %
15.04.2019 05:24 4,2 C 0,0 C 2,2 C 96 % 1022,1 hPa 0,0 l/m 3,2 km/h (1 Bft) SW 217 0 min 0,000 mm 0,0 UV-I 0 W/m 3,6 C 4,2 C 4,8 km/h (1 Bft) 95,74 %
15.04.2019 05:26 4,3 C 0,0 C 2,2 C 96 % 1022,1 hPa 0,0 l/m 3,0 km/h (1 Bft) SW 217 0 min 0,000 mm 0,0 UV-I 0 W/m 3,7 C 4,3 C 4,8 km/h (1 Bft) 93,62 %
15.04.2019 05:28 4,1 C 0,0 C 2,2 C 96 % 1022,1 hPa 0,0 l/m 2,8 km/h (1 Bft) SW 217 0 min 0,000 mm 0,0 UV-I 0 W/m 3,5 C 4,1 C 4,8 km/h (1 Bft) 97,87 %
15.04.2019 05:30 4,0 C 0,0 C 2,2 C 96 % 1022,2 hPa 0,0 l/m 2,8 km/h (1 Bft) SW 217 0 min 0,000 mm 0,0 UV-I 0 W/m 3,4 C 4,0 C 4,8 km/h (1 Bft) 97,87 %
15.04.2019 05:32 3,9 C 0,0 C 1,7 C 96 % 1022,2 hPa 0,0 l/m 3,4 km/h (1 Bft) SW 217 0 min 0,000 mm 0,0 UV-I 0 W/m 3,3 C 3,9 C 4,8 km/h (1 Bft) 97,92 %
15.04.2019 05:34 3,8 C 0,0 C 1,7 C 96 % 1022,2 hPa 0,0 l/m 3,2 km/h (1 Bft) SW 217 0 min 0,000 mm 0,0 UV-I 0 W/m 3,2 C 3,8 C 4,8 km/h (1 Bft) 100,00 %
15.04.2019 05:36 3,9 C 0,0 C 1,7 C 96 % 1022,2 hPa 0,0 l/m 3,1 km/h (1 Bft) SW 217 0 min 0,000 mm 0,0 UV-I 0 W/m 3,3 C 3,9 C 4,8 km/h (1 Bft) 97,87 %
15.04.2019 05:38 4,1 C 0,0 C 1,7 C 96 % 1022,2 hPa 0,0 l/m 3,4 km/h (1 Bft) SW 217 0 min 0,000 mm 0,0 UV-I 0 W/m 3,5 C 4,1 C 4,8 km/h (1 Bft) 100,00 %
15.04.2019 05:40 4,2 C 0,0 C 1,7 C 96 % 1022,2 hPa 0,0 l/m 4,4 km/h (1 Bft) SW 217 0 min 0,000 mm 0,0 UV-I 0 W/m 3,6 C 4,2 C 6,4 km/h (2 Bft) 100,00 %
15.04.2019 05:42 4,3 C 0,0 C 1,7 C 96 % 1022,2 hPa 0,0 l/m 4,0 km/h (1 Bft) SW 217 0 min 0,000 mm 0,0 UV-I 0 W/m 3,7 C 4,3 C 6,4 km/h (2 Bft) 100,00 %
15.04.2019 05:44 4,2 C 0,0 C 2,2 C 96 % 1022,1 hPa 0,0 l/m 3,9 km/h (1 Bft) SW 218 0 min 0,000 mm 0,0 UV-I 0 W/m 3,6 C 4,2 C 6,4 km/h (2 Bft) 100,00 %
15.04.2019 05:46 4,2 C 0,0 C 2,8 C 96 % 1022,1 hPa 0,0 l/m 4,1 km/h (1 Bft) SW 218 0 min 0,000 mm 0,0 UV-I 0 W/m 3,6 C 4,2 C 4,8 km/h (1 Bft) 100,00 %
15.04.2019 05:48 4,2 C 0,0 C 2,8 C 96 % 1022,1 hPa 0,0 l/m 4,2 km/h (1 Bft) SW 218 0 min 0,000 mm 0,0 UV-I 0 W/m 3,6 C 4,2 C 4,8 km/h (1 Bft) 97,87 %
15.04.2019 05:50 4,2 C 0,0 C 3,3 C 96 % 1022,2 hPa 0,0 l/m 4,5 km/h (1 Bft) S-SW 211 0 min 0,000 mm 0,0 UV-I 0 W/m 3,6 C 4,2 C 6,4 km/h (2 Bft) 100,00 %
15.04.2019 05:52 4,2 C 0,0 C 3,3 C 96 % 1022,2 hPa 0,0 l/m 4,5 km/h (1 Bft) S-SW 211 0 min 0,000 mm 0,0 UV-I 0 W/m 3,6 C 4,2 C 6,4 km/h (2 Bft) 100,00 %
15.04.2019 05:54 4,2 C 0,0 C 3,3 C 96 % 1022,2 hPa 0,0 l/m 4,0 km/h (1 Bft) S-SW 211 0 min 0,000 mm 0,0 UV-I 0 W/m 3,6 C 4,2 C 6,4 km/h (2 Bft) 100,00 %
15.04.2019 05:56 4,3 C 0,0 C 3,9 C 96 % 1022,1 hPa 0,0 l/m 3,9 km/h (1 Bft) S-SW 210 0 min 0,000 mm 0,0 UV-I 0 W/m 3,7 C 4,3 C 4,8 km/h (1 Bft) 100,00 %
15.04.2019 05:58 4,3 C 0,0 C 3,9 C 96 % 1022,2 hPa 0,0 l/m 4,1 km/h (1 Bft) S-SW 211 0 min 0,000 mm 0,0 UV-I 0 W/m 3,7 C 4,3 C 4,8 km/h (1 Bft) 97,87 %
15.04.2019 06:00 4,3 C 0,0 C 3,9 C 96 % 1022,2 hPa 0,0 l/m 4,8 km/h (1 Bft) S-SW 210 0 min 0,000 mm 0,0 UV-I 0 W/m 3,7 C 4,3 C 6,4 km/h (2 Bft) 95,74 %
15.04.2019 06:02 4,3 C 0,0 C 3,9 C 96 % 1022,2 hPa 0,0 l/m 4,7 km/h (1 Bft) S-SW 212 0 min 0,000 mm 0,0 UV-I 0 W/m 3,7 C 4,3 C 6,4 km/h (2 Bft) 93,62 %
15.04.2019 06:04 4,3 C 0,0 C 3,9 C 96 % 1022,2 hPa 0,0 l/m 4,6 km/h (1 Bft) SW 214 0 min 0,000 mm 0,0 UV-I 0 W/m 3,7 C 4,3 C 6,4 km/h (2 Bft) 97,92 %
15.04.2019 06:06 4,3 C 0,0 C 3,9 C 96 % 1022,2 hPa 0,0 l/m 4,2 km/h (1 Bft) SW 214 0 min 0,000 mm 0,0 UV-I 0 W/m 3,7 C 4,3 C 6,4 km/h (2 Bft) 97,87 %
15.04.2019 06:08 4,3 C 0,0 C 3,9 C 96 % 1022,2 hPa 0,0 l/m 4,6 km/h (1 Bft) SW 215 0 min 0,000 mm 0,0 UV-I 0 W/m 3,7 C 4,3 C 6,4 km/h (2 Bft) 95,74 %
15.04.2019 06:10 4,2 C 0,0 C 3,9 C 96 % 1022,2 hPa 0,0 l/m 4,7 km/h (1 Bft) SW 215 0 min 0,000 mm 0,0 UV-I 5 W/m 3,6 C 4,2 C 6,4 km/h (2 Bft) 97,87 %
15.04.2019 06:12 4,3 C 0,0 C 3,9 C 96 % 1022,3 hPa 0,0 l/m 4,7 km/h (1 Bft) SW 215 0 min 0,000 mm 0,0 UV-I 5 W/m 3,7 C 4,3 C 6,4 km/h (2 Bft) 97,87 %
15.04.2019 06:14 4,3 C 0,0 C 3,9 C 96 % 1022,2 hPa 0,0 l/m 4,3 km/h (1 Bft) SW 214 0 min 0,000 mm 0,0 UV-I 5 W/m 3,7 C 4,3 C 6,4 km/h (2 Bft) 97,87 %
15.04.2019 06:16 4,3 C 0,0 C 3,9 C 96 % 1022,3 hPa 0,0 l/m 4,5 km/h (1 Bft) SW 214 0 min 0,000 mm 0,0 UV-I 5 W/m 3,7 C 4,3 C 6,4 km/h (2 Bft) 98,00 %
15.04.2019 06:18 4,3 C 0,0 C 3,9 C 96 % 1022,2 hPa 0,0 l/m 4,9 km/h (1 Bft) S-SW 213 0 min 0,000 mm 0,0 UV-I 7 W/m 3,7 C 4,3 C 6,4 km/h (2 Bft) 97,37 %
15.04.2019 06:20 4,3 C 0,0 C 3,9 C 96 % 1022,3 hPa 0,0 l/m 5,2 km/h (1 Bft) SW 215 0 min 0,000 mm 0,0 UV-I 7 W/m 3,7 C 4,3 C 8,0 km/h (2 Bft) 97,87 %
15.04.2019 06:22 4,4 C 0,0 C 3,9 C 96 % 1022,3 hPa 0,0 l/m 4,5 km/h (1 Bft) SW 214 0 min 0,000 mm 0,0 UV-I 9 W/m 3,8 C 4,4 C 6,4 km/h (2 Bft) 97,87 %
15.04.2019 06:24 4,4 C 0,0 C 4,4 C 96 % 1022,3 hPa 0,0 l/m 3,1 km/h (1 Bft) SW 215 0 min 0,000 mm 0,0 UV-I 10 W/m 3,8 C 4,4 C 4,8 km/h (1 Bft) 95,74 %
15.04.2019 06:26 4,4 C 0,0 C 3,9 C 96 % 1022,3 hPa 0,0 l/m 4,1 km/h (1 Bft) S-SW 210 2 min 0,000 mm 0,0 UV-I 11 W/m 3,8 C 4,4 C 6,4 km/h (2 Bft) 98,00 %
15.04.2019 06:28 4,4 C 0,0 C 3,9 C 96 % 1022,3 hPa 0,0 l/m 2,5 km/h (1 Bft) S-SW 210 0 min 0,000 mm 0,0 UV-I 12 W/m 3,8 C 4,4 C 4,8 km/h (1 Bft) 96,00 %
15.04.2019 06:30 4,4 C 0,0 C 3,9 C 96 % 1022,3 hPa 0,0 l/m 2,5 km/h (1 Bft) S-SW 213 0 min 0,000 mm 0,0 UV-I 14 W/m 3,8 C 4,4 C 6,4 km/h (2 Bft) 93,62 %
15.04.2019 06:32 4,4 C 0,0 C 3,9 C 96 % 1022,3 hPa 0,0 l/m 2,7 km/h (1 Bft) S-SW 213 0 min 0,000 mm 0,0 UV-I 16 W/m 3,8 C 4,4 C 4,8 km/h (1 Bft) 95,74 %
15.04.2019 06:34 4,4 C 0,0 C 3,9 C 96 % 1022,4 hPa 0,0 l/m 2,6 km/h (1 Bft) S-SW 213 0 min 0,000 mm 0,0 UV-I 18 W/m 3,8 C 4,4 C 3,2 km/h (1 Bft) 93,62 %
15.04.2019 06:36 4,4 C 0,0 C 3,9 C 96 % 1022,4 hPa 0,0 l/m 2,9 km/h (1 Bft) S-SW 213 0 min 0,000 mm 0,0 UV-I 21 W/m 3,8 C 4,4 C 3,2 km/h (1 Bft) 92,11 %
15.04.2019 06:38 4,4 C 0,0 C 3,9 C 96 % 1022,4 hPa 0,0 l/m 2,1 km/h (1 Bft) S-SW 213 0 min 0,000 mm 0,0 UV-I 24 W/m 3,8 C 4,4 C 4,8 km/h (1 Bft) 90,38 %
15.04.2019 06:40 4,4 C 0,0 C 3,9 C 96 % 1022,4 hPa 0,0 l/m 3,5 km/h (1 Bft) SW 225 0 min 0,000 mm 0,0 UV-I 26 W/m 3,8 C 4,4 C 4,8 km/h (1 Bft) 89,80 %
15.04.2019 06:42 4,4 C 0,0 C 3,9 C 96 % 1022,4 hPa 0,0 l/m 3,3 km/h (1 Bft) SW 225 0 min 0,000 mm 0,0 UV-I 29 W/m 3,8 C 4,4 C 4,8 km/h (1 Bft) 90,00 %
15.04.2019 06:44 4,4 C 0,0 C 3,9 C 96 % 1022,5 hPa 0,0 l/m 4,0 km/h (1 Bft) SW 222 0 min 0,000 mm 0,0 UV-I 30 W/m 3,8 C 4,4 C 4,8 km/h (1 Bft) 94,87 %
15.04.2019 06:46 4,4 C 0,0 C 3,9 C 96 % 1022,5 hPa 0,0 l/m 4,0 km/h (1 Bft) S 190 0 min 0,000 mm 0,0 UV-I 32 W/m 3,8 C 4,4 C 4,8 km/h (1 Bft) 89,36 %
15.04.2019 06:48 4,4 C 0,0 C 3,9 C 96 % 1022,5 hPa 0,0 l/m 3,9 km/h (1 Bft) S-SW 209 0 min 0,000 mm 0,0 UV-I 33 W/m 3,8 C 4,4 C 6,4 km/h (2 Bft) 91,84 %
15.04.2019 06:50 4,5 C 0,0 C 3,9 C 96 % 1022,5 hPa 0,0 l/m 4,1 km/h (1 Bft) SW 216 0 min 0,000 mm 0,0 UV-I 33 W/m 3,9 C 4,5 C 6,4 km/h (2 Bft) 95,74 %
15.04.2019 06:52 4,5 C 0,0 C 3,9 C 96 % 1022,6 hPa 0,0 l/m 4,6 km/h (1 Bft) SW 219 0 min 0,000 mm 0,0 UV-I 33 W/m 3,9 C 4,5 C 6,4 km/h (2 Bft) 95,74 %
15.04.2019 06:54 4,6 C 0,0 C 4,4 C 96 % 1022,6 hPa 0,0 l/m 3,7 km/h (1 Bft) SW 219 0 min 0,000 mm 0,0 UV-I 37 W/m 4,0 C 4,6 C 4,8 km/h (1 Bft) 95,74 %
15.04.2019 06:56 4,6 C 0,0 C 4,4 C 96 % 1022,6 hPa 0,0 l/m 3,5 km/h (1 Bft) SW 220 0 min 0,000 mm 0,0 UV-I 41 W/m 4,0 C 4,6 C 4,8 km/h (1 Bft) 95,74 %
15.04.2019 06:58 4,6 C 0,0 C 4,4 C 96 % 1022,6 hPa 0,0 l/m 3,5 km/h (1 Bft) SW 220 0 min 0,000 mm 0,0 UV-I 46 W/m 4,0 C 4,6 C 4,8 km/h (1 Bft) 96,00 %
15.04.2019 07:00 4,7 C 0,0 C 5,0 C 96 % 1022,6 hPa 0,0 l/m 3,0 km/h (1 Bft) SW 220 0 min 0,000 mm 0,0 UV-I 53 W/m 4,1 C 4,7 C 4,8 km/h (1 Bft) 92,00 %
15.04.2019 07:02 4,7 C 0,0 C 5,0 C 97 % 1022,7 hPa 0,0 l/m 1,5 km/h (1 Bft) SW 220 0 min 0,000 mm 0,0 UV-I 60 W/m 4,3 C 4,7 C 3,2 km/h (1 Bft) 95,74 %
15.04.2019 07:04 4,7 C 0,0 C 5,6 C 97 % 1022,7 hPa 0,0 l/m 2,6 km/h (1 Bft) SW 215 0 min 0,000 mm 0,0 UV-I 66 W/m 4,3 C 4,7 C 4,8 km/h (1 Bft) 97,87 %
15.04.2019 07:06 4,8 C 0,0 C 5,6 C 97 % 1022,7 hPa 0,0 l/m 3,0 km/h (1 Bft) SW 217 2 min 0,000 mm 0,0 UV-I 72 W/m 4,4 C 4,8 C 4,8 km/h (1 Bft) 91,43 %
15.04.2019 07:08 4,8 C 0,0 C 5,6 C 97 % 1022,7 hPa 0,0 l/m 3,8 km/h (1 Bft) SW 216 2 min 0,000 mm 0,0 UV-I 76 W/m 4,4 C 4,8 C 6,4 km/h (2 Bft) 95,74 %
15.04.2019 07:10 4,9 C 0,0 C 6,1 C 96 % 1022,7 hPa 0,0 l/m 4,2 km/h (1 Bft) SW 216 2 min 0,000 mm 0,0 UV-I 81 W/m 4,3 C 4,9 C 4,8 km/h (1 Bft) 95,74 %
15.04.2019 07:12 4,9 C 0,0 C 6,1 C 96 % 1022,7 hPa 0,0 l/m 3,6 km/h (1 Bft) SW 216 2 min 0,000 mm 0,0 UV-I 84 W/m 4,3 C 4,9 C 4,8 km/h (1 Bft) 100,00 %
15.04.2019 07:14 5,1 C 0,0 C 6,7 C 97 % 1022,7 hPa 0,0 l/m 2,7 km/h (1 Bft) SW 218 2 min 0,000 mm 0,0 UV-I 88 W/m 4,7 C 5,1 C 6,4 km/h (2 Bft) 97,87 %
15.04.2019 07:16 5,1 C 0,0 C 6,7 C 97 % 1022,7 hPa 0,0 l/m 3,8 km/h (1 Bft) SW 221 2 min 0,000 mm 0,0 UV-I 90 W/m 4,7 C 5,1 C 4,8 km/h (1 Bft) 100,00 %
15.04.2019 07:18 5,2 C 0,0 C 6,7 C 97 % 1022,8 hPa 0,0 l/m 3,6 km/h (1 Bft) SW 223 2 min 0,000 mm 0,0 UV-I 97 W/m 4,8 C 5,2 C 6,4 km/h (2 Bft) 97,87 %
15.04.2019 07:20 5,2 C 0,0 C 6,7 C 97 % 1022,8 hPa 0,0 l/m 4,0 km/h (1 Bft) SW 230 2 min 0,000 mm 0,0 UV-I 103 W/m 4,8 C 5,2 C 6,4 km/h (2 Bft) 100,00 %
15.04.2019 07:22 5,3 C 0,0 C 6,7 C 97 % 1022,8 hPa 0,0 l/m 5,0 km/h (1 Bft) SW 235 2 min 0,000 mm 0,0 UV-I 100 W/m 4,9 C 5,3 C 6,4 km/h (2 Bft) 100,00 %
15.04.2019 07:24 5,3 C 0,0 C 6,7 C 97 % 1022,8 hPa 0,0 l/m 6,2 km/h (2 Bft) SW 236 0 min 0,000 mm 0,0 UV-I 94 W/m 4,9 C 5,3 C 8,0 km/h (2 Bft) 100,00 %
15.04.2019 07:26 5,4 C 0,0 C 6,7 C 97 % 1022,8 hPa 0,0 l/m 3,6 km/h (1 Bft) W-SW 239 0 min 0,000 mm 0,0 UV-I 92 W/m 5,0 C 5,4 C 4,8 km/h (1 Bft) 100,00 %
15.04.2019 07:28 5,4 C 0,0 C 6,7 C 97 % 1022,9 hPa 0,0 l/m 3,9 km/h (1 Bft) SW 236 0 min 0,000 mm 0,0 UV-I 97 W/m 5,0 C 5,4 C 4,8 km/h (1 Bft) 97,87 %
15.04.2019 07:30 5,4 C 0,0 C 6,7 C 97 % 1022,8 hPa 0,0 l/m 3,9 km/h (1 Bft) W-SW 238 0 min 0,000 mm 0,0 UV-I 101 W/m 5,0 C 5,4 C 6,4 km/h (2 Bft) 100,00 %
15.04.2019 07:32 5,4 C 0,0 C 6,7 C 97 % 1022,9 hPa 0,0 l/m 3,3 km/h (1 Bft) W-SW 238 0 min 0,000 mm 0,0 UV-I 106 W/m 5,0 C 5,4 C 4,8 km/h (1 Bft) 100,00 %
15.04.2019 07:34 5,4 C 0,0 C 6,7 C 97 % 1022,9 hPa 0,0 l/m 2,4 km/h (1 Bft) W-SW 238 0 min 0,000 mm 0,0 UV-I 113 W/m 5,0 C 5,4 C 4,8 km/h (1 Bft) 100,00 %
15.04.2019 07:36 5,5 C 0,0 C 6,7 C 97 % 1022,9 hPa 0,0 l/m 2,7 km/h (1 Bft) W-SW 238 0 min 0,000 mm 0,0 UV-I 119 W/m 5,1 C 5,5 C 4,8 km/h (1 Bft) 100,00 %
15.04.2019 07:38 5,6 C 0,0 C 6,7 C 97 % 1022,9 hPa 0,0 l/m 2,3 km/h (1 Bft) W-SW 238 2 min 0,000 mm 0,0 UV-I 125 W/m 5,2 C 5,6 C 3,2 km/h (1 Bft) 97,87 %
15.04.2019 07:40 5,6 C 0,0 C 6,7 C 96 % 1022,9 hPa 0,0 l/m 1,9 km/h (1 Bft) W-SW 243 2 min 0,000 mm 0,0 UV-I 128 W/m 5,0 C 5,6 C 3,2 km/h (1 Bft) 100,00 %
15.04.2019 07:42 5,7 C 0,0 C 6,7 C 96 % 1022,9 hPa 0,0 l/m 3,0 km/h (1 Bft) W-SW 252 2 min 0,000 mm 0,0 UV-I 132 W/m 5,1 C 5,7 C 4,8 km/h (1 Bft) 100,00 %
15.04.2019 07:44 5,7 C 0,0 C 6,7 C 97 % 1023,0 hPa 0,0 l/m 3,0 km/h (1 Bft) W-SW 251 0 min 0,000 mm 0,0 UV-I 129 W/m 5,3 C 5,7 C 4,8 km/h (1 Bft) 100,00 %
15.04.2019 07:46 5,7 C 0,0 C 6,7 C 97 % 1023,0 hPa 0,0 l/m 3,7 km/h (1 Bft) W-SW 239 0 min 0,000 mm 0,0 UV-I 120 W/m 5,3 C 5,7 C 6,4 km/h (2 Bft) 97,87 %
15.04.2019 07:48 5,7 C 0,0 C 6,7 C 96 % 1023,0 hPa 0,0 l/m 3,1 km/h (1 Bft) W-SW 240 0 min 0,000 mm 0,0 UV-I 127 W/m 5,1 C 5,7 C 4,8 km/h (1 Bft) 97,87 %
15.04.2019 07:50 5,7 C 0,0 C 6,7 C 96 % 1023,0 hPa 0,0 l/m 4,3 km/h (1 Bft) W-SW 241 0 min 0,000 mm 0,0 UV-I 139 W/m 5,1 C 5,7 C 6,4 km/h (2 Bft) 98,00 %
15.04.2019 07:52 5,8 C 0,0 C 7,2 C 96 % 1023,0 hPa 0,0 l/m 3,7 km/h (1 Bft) W-SW 241 2 min 0,000 mm 0,0 UV-I 147 W/m 5,2 C 5,8 C 4,8 km/h (1 Bft) 97,14 %
15.04.2019 07:54 5,8 C 0,0 C 7,2 C 96 % 1023,0 hPa 0,0 l/m 3,4 km/h (1 Bft) W-SW 241 2 min 0,000 mm 0,0 UV-I 155 W/m 5,2 C 5,8 C 4,8 km/h (1 Bft) 97,87 %
15.04.2019 07:56 5,8 C 0,0 C 7,2 C 96 % 1023,1 hPa 0,0 l/m 3,8 km/h (1 Bft) W-SW 241 2 min 0,000 mm 0,0 UV-I 162 W/m 5,2 C 5,8 C 6,4 km/h (2 Bft) 97,92 %
15.04.2019 07:58 5,9 C 0,0 C 7,2 C 96 % 1023,0 hPa 0,0 l/m 3,2 km/h (1 Bft) W-SW 241 2 min 0,000 mm 0,0 UV-I 173 W/m 5,3 C 5,9 C 4,8 km/h (1 Bft) 96,15 %
15.04.2019 08:00 5,9 C 0,0 C 7,2 C 96 % 1023,1 hPa 0,0 l/m 2,0 km/h (1 Bft) W-SW 239 2 min 0,051 mm 0,0 UV-I 187 W/m 5,3 C 5,9 C 4,8 km/h (1 Bft) 95,83 %
15.04.2019 08:02 6,1 C 0,0 C 7,8 C 96 % 1023,1 hPa 0,0 l/m 4,4 km/h (1 Bft) SW 222 2 min 0,000 mm 0,0 UV-I 193 W/m 5,5 C 6,1 C 6,4 km/h (2 Bft) 97,87 %
15.04.2019 08:04 6,1 C 0,0 C 7,8 C 96 % 1023,1 hPa 0,0 l/m 2,8 km/h (1 Bft) SW 223 2 min 0,000 mm 0,0 UV-I 206 W/m 5,5 C 6,1 C 4,8 km/h (1 Bft) 97,87 %
15.04.2019 08:06 6,2 C 0,0 C 7,8 C 96 % 1023,1 hPa 0,0 l/m 1,8 km/h (1 Bft) SW 223 2 min 0,000 mm 0,0 UV-I 214 W/m 5,6 C 6,2 C 3,2 km/h (1 Bft) 95,74 %
15.04.2019 08:08 6,2 C 0,0 C 7,8 C 96 % 1023,1 hPa 0,0 l/m 3,0 km/h (1 Bft) SW 225 2 min 0,000 mm 0,0 UV-I 202 W/m 5,6 C 6,2 C 4,8 km/h (1 Bft) 100,00 %
15.04.2019 08:10 6,2 C 0,0 C 7,8 C 96 % 1023,2 hPa 0,0 l/m 3,5 km/h (1 Bft) SW 223 2 min 0,000 mm 0,0 UV-I 206 W/m 5,6 C 6,2 C 4,8 km/h (1 Bft) 100,00 %
15.04.2019 08:12 6,3 C 0,0 C 7,8 C 96 % 1023,2 hPa 0,0 l/m 3,6 km/h (1 Bft) W-SW 240 2 min 0,000 mm 0,0 UV-I 209 W/m 5,7 C 6,3 C 6,4 km/h (2 Bft) 97,87 %
15.04.2019 08:14 6,3 C 0,0 C 7,8 C 96 % 1023,2 hPa 0,0 l/m 4,0 km/h (1 Bft) W-SW 242 2 min 0,000 mm 0,0 UV-I 204 W/m 5,7 C 6,3 C 6,4 km/h (2 Bft) 97,87 %
15.04.2019 08:16 6,2 C 0,0 C 7,8 C 96 % 1023,2 hPa 0,0 l/m 3,4 km/h (1 Bft) W-SW 242 2 min 0,000 mm 0,0 UV-I 208 W/m 5,6 C 6,2 C 4,8 km/h (1 Bft) 100,00 %
15.04.2019 08:18 6,3 C 0,0 C 7,8 C 95 % 1023,2 hPa 0,0 l/m 2,3 km/h (1 Bft) W-SW 243 2 min 0,000 mm 0,0 UV-I 210 W/m 5,6 C 6,3 C 4,8 km/h (1 Bft) 97,37 %
15.04.2019 08:20 6,4 C 0,0 C 7,8 C 95 % 1023,2 hPa 0,0 l/m 3,7 km/h (1 Bft) SW 231 2 min 0,000 mm 0,0 UV-I 217 W/m 5,7 C 6,4 C 6,4 km/h (2 Bft) 100,00 %
15.04.2019 08:22 6,4 C 0,0 C 7,8 C 95 % 1023,2 hPa 0,0 l/m 3,4 km/h (1 Bft) SW 232 2 min 0,000 mm 0,0 UV-I 226 W/m 5,7 C 6,4 C 4,8 km/h (1 Bft) 97,87 %
15.04.2019 08:24 6,4 C 0,0 C 7,8 C 95 % 1023,2 hPa 0,0 l/m 3,1 km/h (1 Bft) SW 231 2 min 0,000 mm 0,0 UV-I 224 W/m 5,7 C 6,4 C 4,8 km/h (1 Bft) 100,00 %
15.04.2019 08:26 6,5 C 0,0 C 8,3 C 95 % 1023,2 hPa 0,0 l/m 3,5 km/h (1 Bft) SW 231 2 min 0,000 mm 0,0 UV-I 238 W/m 5,8 C 6,5 C 4,8 km/h (1 Bft) 100,00 %
15.04.2019 08:28 6,4 C 0,0 C 8,3 C 95 % 1023,2 hPa 0,0 l/m 3,6 km/h (1 Bft) SW 224 2 min 0,000 mm 0,0 UV-I 213 W/m 5,7 C 6,4 C 6,4 km/h (2 Bft) 98,00 %
15.04.2019 08:30 6,5 C 0,0 C 8,3 C 95 % 1023,2 hPa 0,0 l/m 2,7 km/h (1 Bft) SW 224 2 min 0,000 mm 0,0 UV-I 209 W/m 5,8 C 6,5 C 4,8 km/h (1 Bft) 97,87 %
15.04.2019 08:32 6,6 C 0,0 C 8,3 C 95 % 1023,2 hPa 0,0 l/m 4,6 km/h (1 Bft) SW 217 2 min 0,000 mm 0,0 UV-I 247 W/m 5,9 C 6,6 C 6,4 km/h (2 Bft) 98,00 %
15.04.2019 08:34 6,5 C 0,0 C 8,9 C 94 % 1023,2 hPa 0,0 l/m 2,3 km/h (1 Bft) SW 219 2 min 0,000 mm 0,0 UV-I 293 W/m 5,6 C 6,5 C 4,8 km/h (1 Bft) 100,00 %
15.04.2019 08:36 6,7 C 0,0 C 8,9 C 95 % 1023,2 hPa 0,0 l/m 3,0 km/h (1 Bft) SW 217 2 min 0,000 mm 0,0 UV-I 315 W/m 6,0 C 6,7 C 4,8 km/h (1 Bft) 100,00 %
15.04.2019 08:38 6,7 C 0,0 C 8,9 C 94 % 1023,2 hPa 0,0 l/m 2,9 km/h (1 Bft) S-SW 213 2 min 0,000 mm 0,0 UV-I 334 W/m 5,8 C 6,7 C 6,4 km/h (2 Bft) 96,00 %
15.04.2019 08:40 6,7 C 0,0 C 9,4 C 94 % 1023,2 hPa 0,0 l/m 4,3 km/h (1 Bft) S-SW 202 2 min 0,000 mm 0,0 UV-I 344 W/m 5,8 C 6,7 C 6,4 km/h (2 Bft) 97,87 %
15.04.2019 08:42 6,9 C 0,0 C 9,4 C 94 % 1023,2 hPa 0,0 l/m 3,9 km/h (1 Bft) S-SW 212 2 min 0,000 mm 0,0 UV-I 370 W/m 6,0 C 6,9 C 4,8 km/h (1 Bft) 97,87 %
15.04.2019 08:44 7,1 C 0,0 C 10,0 C 94 % 1023,2 hPa 0,0 l/m 3,1 km/h (1 Bft) S-SW 211 2 min 0,000 mm 0,3 UV-I 376 W/m 6,2 C 7,1 C 4,8 km/h (1 Bft) 97,87 %
15.04.2019 08:46 7,1 C 0,0 C 10,6 C 93 % 1023,2 hPa 0,0 l/m 2,2 km/h (1 Bft) SW 216 2 min 0,000 mm 0,5 UV-I 357 W/m 6,0 C 7,1 C 4,8 km/h (1 Bft) 97,87 %
15.04.2019 08:48 7,1 C 0,0 C 10,0 C 93 % 1023,2 hPa 0,0 l/m 2,6 km/h (1 Bft) SW 217 2 min 0,000 mm 0,5 UV-I 316 W/m 6,0 C 7,1 C 4,8 km/h (1 Bft) 93,62 %
15.04.2019 08:50 7,2 C 0,0 C 10,0 C 93 % 1023,2 hPa 0,0 l/m 2,2 km/h (1 Bft) SW 217 2 min 0,000 mm 0,5 UV-I 302 W/m 6,1 C 7,2 C 4,8 km/h (1 Bft) 95,74 %
15.04.2019 08:52 7,1 C 0,0 C 10,0 C 92 % 1023,2 hPa 0,0 l/m 2,1 km/h (1 Bft) SW 217 2 min 0,000 mm 0,5 UV-I 267 W/m 5,9 C 7,1 C 4,8 km/h (1 Bft) 95,74 %
15.04.2019 08:54 7,1 C 0,0 C 10,6 C 91 % 1023,2 hPa 0,0 l/m 1,0 km/h (0 Bft) SW 217 2 min 0,000 mm 0,5 UV-I 320 W/m 5,7 C 7,1 C 3,2 km/h (1 Bft) 97,87 %
15.04.2019 08:56 7,2 C 0,0 C 10,6 C 92 % 1023,2 hPa 0,0 l/m 2,5 km/h (1 Bft) SW 217 2 min 0,000 mm 0,5 UV-I 304 W/m 6,0 C 7,2 C 4,8 km/h (1 Bft) 95,74 %
15.04.2019 08:58 7,2 C 0,0 C 10,6 C 91 % 1023,1 hPa 0,0 l/m 3,1 km/h (1 Bft) NW 326 2 min 0,000 mm 0,5 UV-I 286 W/m 5,8 C 7,2 C 4,8 km/h (1 Bft) 93,62 %
15.04.2019 09:00 7,2 C 0,0 C 10,6 C 90 % 1023,2 hPa 0,0 l/m 2,2 km/h (1 Bft) NW 326 2 min 0,000 mm 0,5 UV-I 272 W/m 5,7 C 7,2 C 3,2 km/h (1 Bft) 97,87 %
15.04.2019 09:02 7,2 C 0,0 C 10,6 C 90 % 1023,2 hPa 0,0 l/m 1,9 km/h (1 Bft) NW 326 2 min 0,101 mm 0,5 UV-I 251 W/m 5,7 C 7,2 C 3,2 km/h (1 Bft) 95,74 %
15.04.2019 09:04 7,3 C 0,0 C 10,6 C 90 % 1023,2 hPa 0,0 l/m 1,8 km/h (1 Bft) NW 326 0 min 0,000 mm 0,5 UV-I 242 W/m 5,8 C 7,3 C 3,2 km/h (1 Bft) 91,49 %
15.04.2019 09:06 7,3 C 0,0 C 10,6 C 89 % 1023,2 hPa 0,0 l/m 2,8 km/h (1 Bft) NW 326 0 min 0,000 mm 0,5 UV-I 219 W/m 5,6 C 7,3 C 3,2 km/h (1 Bft) 95,74 %
15.04.2019 09:08 7,3 C 0,0 C 10,6 C 89 % 1023,3 hPa 0,0 l/m 4,1 km/h (1 Bft) N-NO 15 0 min 0,000 mm 0,5 UV-I 233 W/m 5,6 C 7,3 C 6,4 km/h (2 Bft) 95,74 %
15.04.2019 09:10 7,4 C 0,0 C 10,6 C 89 % 1023,2 hPa 0,0 l/m 4,0 km/h (1 Bft) N-NO 16 0 min 0,000 mm 0,5 UV-I 211 W/m 5,7 C 7,4 C 4,8 km/h (1 Bft) 94,00 %
15.04.2019 09:12 7,5 C 0,0 C 10,6 C 89 % 1023,3 hPa 0,0 l/m 2,7 km/h (1 Bft) N-NO 16 0 min 0,000 mm 0,5 UV-I 193 W/m 5,8 C 7,5 C 4,8 km/h (1 Bft) 93,62 %
15.04.2019 09:14 7,3 C 0,0 C 10,0 C 88 % 1023,2 hPa 0,0 l/m 0,7 km/h (0 Bft) N-NO 16 0 min 0,000 mm 0,5 UV-I 191 W/m 5,4 C 7,3 C 1,6 km/h (1 Bft) 94,87 %
15.04.2019 09:16 7,2 C 0,0 C 10,0 C 89 % 1023,3 hPa 0,0 l/m 1,2 km/h (1 Bft) N-NO 15 0 min 0,000 mm 0,5 UV-I 186 W/m 5,5 C 7,2 C 3,2 km/h (1 Bft) 95,74 %
15.04.2019 09:18 7,2 C 0,0 C 10,0 C 89 % 1023,3 hPa 0,0 l/m 2,4 km/h (1 Bft) N-NO 15 0 min 0,000 mm 0,6 UV-I 196 W/m 5,5 C 7,2 C 3,2 km/h (1 Bft) 95,74 %
15.04.2019 09:20 7,2 C 0,0 C 10,0 C 89 % 1023,3 hPa 0,0 l/m 2,1 km/h (1 Bft) N-NO 14 0 min 0,000 mm 0,6 UV-I 234 W/m 5,5 C 7,2 C 3,2 km/h (1 Bft) 97,87 %
15.04.2019 09:22 7,3 C 0,0 C 10,6 C 89 % 1023,3 hPa 0,0 l/m 2,0 km/h (1 Bft) N-NO 14 0 min 0,000 mm 0,6 UV-I 262 W/m 5,6 C 7,3 C 3,2 km/h (1 Bft) 95,74 %
15.04.2019 09:24 7,4 C 0,0 C 10,6 C 90 % 1023,3 hPa 0,0 l/m 4,0 km/h (1 Bft) N-NW 348 0 min 0,000 mm 0,6 UV-I 247 W/m 5,9 C 7,4 C 6,4 km/h (2 Bft) 90,00 %
15.04.2019 09:26 7,5 C 0,0 C 10,6 C 88 % 1023,4 hPa 0,0 l/m 1,5 km/h (1 Bft) N-NW 348 0 min 0,000 mm 0,6 UV-I 238 W/m 5,6 C 7,5 C 3,2 km/h (1 Bft) 100,00 %
15.04.2019 09:28 7,6 C 0,0 C 10,6 C 88 % 1023,4 hPa 0,0 l/m 2,1 km/h (1 Bft) N-NW 348 0 min 0,000 mm 0,6 UV-I 226 W/m 5,7 C 7,6 C 3,2 km/h (1 Bft) 97,87 %
15.04.2019 09:30 7,5 C 0,0 C 10,6 C 87 % 1023,4 hPa 0,0 l/m 2,2 km/h (1 Bft) N-NW 348 0 min 0,000 mm 0,6 UV-I 209 W/m 5,5 C 7,5 C 3,2 km/h (1 Bft) 100,00 %
15.04.2019 09:32 7,5 C 0,0 C 10,6 C 88 % 1023,4 hPa 0,0 l/m 4,1 km/h (1 Bft) N-NO 24 0 min 0,000 mm 0,6 UV-I 208 W/m 5,6 C 7,5 C 6,4 km/h (2 Bft) 100,00 %
15.04.2019 09:34 7,6 C 0,0 C 10,6 C 87 % 1023,4 hPa 0,0 l/m 2,7 km/h (1 Bft) N-NO 24 0 min 0,000 mm 0,7 UV-I 235 W/m 5,6 C 7,6 C 4,8 km/h (1 Bft) 98,00 %
15.04.2019 09:36 7,6 C 0,0 C 11,1 C 86 % 1023,5 hPa 0,0 l/m 1,9 km/h (1 Bft) N-NO 24 2 min 0,000 mm 0,7 UV-I 313 W/m 5,4 C 7,6 C 3,2 km/h (1 Bft) 97,37 %
15.04.2019 09:38 7,6 C 0,0 C 12,8 C 85 % 1023,5 hPa 0,0 l/m 3,0 km/h (1 Bft) N-NO 23 2 min 0,000 mm 0,8 UV-I 390 W/m 5,2 C 7,6 C 4,8 km/h (1 Bft) 97,87 %
15.04.2019 09:40 7,8 C 0,0 C 13,3 C 86 % 1023,4 hPa 0,0 l/m 2,2 km/h (1 Bft) N-NO 24 2 min 0,000 mm 0,8 UV-I 378 W/m 5,6 C 7,8 C 4,8 km/h (1 Bft) 97,87 %
15.04.2019 09:42 7,8 C 0,0 C 12,8 C 85 % 1023,5 hPa 0,0 l/m 1,6 km/h (1 Bft) N-NO 24 2 min 0,000 mm 0,8 UV-I 348 W/m 5,4 C 7,8 C 4,8 km/h (1 Bft) 95,74 %
15.04.2019 09:44 7,8 C 0,0 C 13,3 C 85 % 1023,4 hPa 0,0 l/m 2,5 km/h (1 Bft) N-NO 32 0 min 0,000 mm 0,9 UV-I 292 W/m 5,4 C 7,8 C 4,8 km/h (1 Bft) 98,00 %
15.04.2019 09:46 7,8 C 0,0 C 13,9 C 85 % 1023,4 hPa 0,0 l/m 4,6 km/h (1 Bft) N-NO 30 2 min 0,000 mm 0,9 UV-I 309 W/m 5,4 C 7,8 C 8,0 km/h (2 Bft) 97,87 %
15.04.2019 09:48 8,1 C 0,0 C 13,3 C 86 % 1023,4 hPa 0,0 l/m 5,0 km/h (1 Bft) NO 36 0 min 0,000 mm 0,9 UV-I 284 W/m 5,9 C 8,1 C 6,4 km/h (2 Bft) 97,87 %
15.04.2019 09:50 8,2 C 0,0 C 13,9 C 84 % 1023,4 hPa 0,0 l/m 4,8 km/h (1 Bft) NO 36 2 min 0,000 mm 0,9 UV-I 349 W/m 5,7 C 8,2 C 6,4 km/h (2 Bft) 98,00 %
15.04.2019 09:52 8,2 C 0,0 C 14,4 C 83 % 1023,5 hPa 0,0 l/m 3,5 km/h (1 Bft) NO 34 2 min 0,000 mm 0,9 UV-I 362 W/m 5,5 C 8,2 C 4,8 km/h (1 Bft) 95,74 %
15.04.2019 09:54 8,2 C 0,0 C 14,4 C 83 % 1023,5 hPa 0,0 l/m 1,3 km/h (1 Bft) NO 34 2 min 0,000 mm 1,0 UV-I 390 W/m 5,5 C 8,2 C 3,2 km/h (1 Bft) 95,74 %
15.04.2019 09:56 8,2 C 0,0 C 15,6 C 82 % 1023,5 hPa 0,0 l/m 0,8 km/h (0 Bft) NO 34 2 min 0,000 mm 1,1 UV-I 434 W/m 5,3 C 8,2 C 1,6 km/h (1 Bft) 97,44 %
15.04.2019 09:58 8,3 C 0,0 C 17,2 C 82 % 1023,5 hPa 0,0 l/m 0,9 km/h (0 Bft) NO 34 2 min 0,000 mm 1,1 UV-I 580 W/m 5,4 C 8,3 C 3,2 km/h (1 Bft) 97,87 %
15.04.2019 10:00 8,4 C 0,0 C 17,8 C 83 % 1023,5 hPa 0,0 l/m 4,0 km/h (1 Bft) N-NW 336 2 min 0,127 mm 1,1 UV-I 566 W/m 5,7 C 8,4 C 6,4 km/h (2 Bft) 95,74 %
15.04.2019 10:02 8,5 C 0,0 C 16,7 C 82 % 1023,5 hPa 0,0 l/m 1,9 km/h (1 Bft) NW 309 2 min 0,000 mm 1,1 UV-I 549 W/m 5,6 C 8,5 C 4,8 km/h (1 Bft) 97,87 %
15.04.2019 10:04 8,5 C 0,0 C 16,1 C 82 % 1023,5 hPa 0,0 l/m 1,0 km/h (0 Bft) NW 309 2 min 0,000 mm 1,1 UV-I 412 W/m 5,6 C 8,5 C 3,2 km/h (1 Bft) 98,00 %
15.04.2019 10:06 8,6 C 0,0 C 15,6 C 82 % 1023,5 hPa 0,0 l/m 1,0 km/h (0 Bft) NW 309 0 min 0,000 mm 1,1 UV-I 295 W/m 5,7 C 8,6 C 3,2 km/h (1 Bft) 97,87 %
15.04.2019 10:08 8,7 C 0,0 C 16,7 C 80 % 1023,5 hPa 0,0 l/m 3,2 km/h (1 Bft) N-NO 14 2 min 0,000 mm 1,2 UV-I 478 W/m 5,4 C 8,7 C 4,8 km/h (1 Bft) 98,00 %
15.04.2019 10:10 8,7 C 0,0 C 17,8 C 82 % 1023,5 hPa 0,0 l/m 4,5 km/h (1 Bft) O 85 2 min 0,000 mm 1,2 UV-I 520 W/m 5,8 C 8,7 C 6,4 km/h (2 Bft) 97,87 %
15.04.2019 10:12 8,6 C 0,0 C 16,7 C 80 % 1023,5 hPa 0,0 l/m 3,3 km/h (1 Bft) O 85 2 min 0,000 mm 1,1 UV-I 366 W/m 5,3 C 8,6 C 4,8 km/h (1 Bft) 97,14 %
15.04.2019 10:14 8,6 C 0,0 C 15,0 C 80 % 1023,5 hPa 0,0 l/m 1,5 km/h (1 Bft) O 85 0 min 0,000 mm 1,1 UV-I 318 W/m 5,3 C 8,6 C 3,2 km/h (1 Bft) 98,00 %
15.04.2019 10:16 8,6 C 0,0 C 14,4 C 79 % 1023,4 hPa 0,0 l/m 0,2 km/h (0 Bft) O 85 0 min 0,000 mm 1,0 UV-I 281 W/m 5,2 C 8,6 C 1,6 km/h (1 Bft) 97,87 %
15.04.2019 10:18 8,3 C 0,0 C 13,3 C 79 % 1023,5 hPa 0,0 l/m 1,1 km/h (1 Bft) O 85 0 min 0,000 mm 1,0 UV-I 223 W/m 4,9 C 8,3 C 1,6 km/h (1 Bft) 96,00 %
15.04.2019 10:20 8,2 C 0,0 C 12,8 C 79 % 1023,5 hPa 0,0 l/m 0,7 km/h (0 Bft) O 85 0 min 0,000 mm 1,0 UV-I 232 W/m 4,8 C 8,2 C 3,2 km/h (1 Bft) 97,87 %
15.04.2019 10:22 8,1 C 0,0 C 12,2 C 79 % 1023,4 hPa 0,0 l/m 0,9 km/h (0 Bft) O 85 0 min 0,000 mm 1,0 UV-I 228 W/m 4,7 C 8,1 C 3,2 km/h (1 Bft) 96,00 %
15.04.2019 10:24 8,1 C 0,0 C 11,7 C 82 % 1023,4 hPa 0,0 l/m 0,9 km/h (0 Bft) O 85 0 min 0,000 mm 1,0 UV-I 197 W/m 5,2 C 8,1 C 3,2 km/h (1 Bft) 95,74 %
15.04.2019 10:26 8,2 C 0,0 C 11,7 C 82 % 1023,4 hPa 0,0 l/m 1,8 km/h (1 Bft) O 85 0 min 0,000 mm 1,0 UV-I 194 W/m 5,3 C 8,2 C 3,2 km/h (1 Bft) 95,74 %
15.04.2019 10:28 8,3 C 0,0 C 11,1 C 82 % 1023,4 hPa 0,0 l/m 2,2 km/h (1 Bft) O 85 0 min 0,000 mm 1,0 UV-I 182 W/m 5,4 C 8,3 C 3,2 km/h (1 Bft) 97,87 %
15.04.2019 10:30 8,3 C 0,0 C 10,6 C 81 % 1023,4 hPa 0,0 l/m 2,4 km/h (1 Bft) O 84 0 min 0,000 mm 1,0 UV-I 177 W/m 5,2 C 8,3 C 4,8 km/h (1 Bft) 95,83 %
15.04.2019 10:32 8,3 C 0,0 C 11,1 C 80 % 1023,4 hPa 0,0 l/m 2,4 km/h (1 Bft) NO 46 0 min 0,000 mm 1,0 UV-I 202 W/m 5,1 C 8,3 C 6,4 km/h (2 Bft) 95,74 %
15.04.2019 10:34 8,3 C 0,0 C 11,1 C 80 % 1023,4 hPa 0,0 l/m 3,1 km/h (1 Bft) NO 46 0 min 0,000 mm 1,1 UV-I 205 W/m 5,1 C 8,3 C 4,8 km/h (1 Bft) 91,49 %
15.04.2019 10:36 8,3 C 0,0 C 11,1 C 81 % 1023,4 hPa 0,0 l/m 1,3 km/h (1 Bft) NO 46 0 min 0,000 mm 1,1 UV-I 224 W/m 5,2 C 8,3 C 3,2 km/h (1 Bft) 93,62 %
15.04.2019 10:38 8,4 C 0,0 C 12,8 C 82 % 1023,4 hPa 0,0 l/m 1,8 km/h (1 Bft) O-NO 65 0 min 0,000 mm 1,2 UV-I 295 W/m 5,5 C 8,4 C 4,8 km/h (1 Bft) 91,49 %
15.04.2019 10:40 8,4 C 0,0 C 12,8 C 81 % 1023,4 hPa 0,0 l/m 2,0 km/h (1 Bft) O-NO 65 0 min 0,000 mm 1,1 UV-I 202 W/m 5,3 C 8,4 C 3,2 km/h (1 Bft) 89,36 %
15.04.2019 10:42 8,3 C 0,0 C 12,2 C 81 % 1023,4 hPa 0,0 l/m 2,3 km/h (1 Bft) O-NO 64 0 min 0,000 mm 1,1 UV-I 200 W/m 5,2 C 8,3 C 3,2 km/h (1 Bft) 93,62 %
15.04.2019 10:44 8,3 C 0,0 C 13,3 C 82 % 1023,4 hPa 0,0 l/m 2,8 km/h (1 Bft) O-NO 63 0 min 0,000 mm 1,2 UV-I 239 W/m 5,4 C 8,3 C 3,2 km/h (1 Bft) 95,74 %
15.04.2019 10:46 8,5 C 0,0 C 13,9 C 81 % 1023,4 hPa 0,0 l/m 2,8 km/h (1 Bft) O-NO 68 0 min 0,000 mm 1,4 UV-I 303 W/m 5,4 C 8,5 C 4,8 km/h (1 Bft) 94,74 %
15.04.2019 10:48 8,5 C 0,0 C 16,7 C 79 % 1023,4 hPa 0,0 l/m 2,4 km/h (1 Bft) O-NO 70 2 min 0,000 mm 1,6 UV-I 570 W/m 5,1 C 8,5 C 3,2 km/h (1 Bft) 95,74 %
15.04.2019 10:50 8,7 C 0,0 C 18,3 C 79 % 1023,4 hPa 0,0 l/m 1,4 km/h (1 Bft) O-NO 70 2 min 0,000 mm 1,7 UV-I 685 W/m 5,3 C 8,7 C 3,2 km/h (1 Bft) 93,62 %
15.04.2019 10:52 9,0 C 0,0 C 20,0 C 81 % 1023,4 hPa 0,0 l/m 1,1 km/h (1 Bft) O-NO 69 2 min 0,000 mm 1,7 UV-I 676 W/m 5,9 C 9,0 C 3,2 km/h (1 Bft) 96,00 %
15.04.2019 10:54 9,3 C 0,0 C 18,9 C 81 % 1023,3 hPa 0,0 l/m 2,5 km/h (1 Bft) O-NO 65 2 min 0,000 mm 1,5 UV-I 534 W/m 6,2 C 9,3 C 4,8 km/h (1 Bft) 93,62 %
15.04.2019 10:56 9,3 C 0,0 C 16,7 C 77 % 1023,4 hPa 0,0 l/m 3,5 km/h (1 Bft) O-NO 58 0 min 0,000 mm 1,5 UV-I 273 W/m 5,5 C 9,3 C 4,8 km/h (1 Bft) 95,74 %
15.04.2019 10:58 9,2 C 0,0 C 16,7 C 77 % 1023,3 hPa 0,0 l/m 3,1 km/h (1 Bft) O-NO 58 2 min 0,000 mm 1,6 UV-I 502 W/m 5,4 C 9,2 C 4,8 km/h (1 Bft) 95,74 %
15.04.2019 11:00 9,2 C 0,0 C 18,3 C 76 % 1023,3 hPa 0,0 l/m 2,5 km/h (1 Bft) O-NO 58 2 min 0,153 mm 1,8 UV-I 707 W/m 5,2 C 9,2 C 3,2 km/h (1 Bft) 95,74 %
15.04.2019 11:02 9,3 C 0,0 C 18,9 C 76 % 1023,3 hPa 0,0 l/m 2,0 km/h (1 Bft) O-NO 58 2 min 0,000 mm 1,8 UV-I 703 W/m 5,3 C 9,3 C 3,2 km/h (1 Bft) 94,00 %
15.04.2019 11:04 9,3 C 0,0 C 17,2 C 75 % 1023,3 hPa 0,0 l/m 1,3 km/h (1 Bft) O-NO 58 2 min 0,000 mm 1,5 UV-I 434 W/m 5,1 C 9,3 C 3,2 km/h (1 Bft) 93,62 %
15.04.2019 11:06 9,1 C 0,0 C 16,1 C 75 % 1023,3 hPa 0,0 l/m 1,5 km/h (1 Bft) O-NO 58 0 min 0,000 mm 1,3 UV-I 200 W/m 4,9 C 9,1 C 3,2 km/h (1 Bft) 97,87 %
15.04.2019 11:08 8,9 C 0,0 C 15,0 C 75 % 1023,3 hPa 0,0 l/m 2,7 km/h (1 Bft) O-NO 61 0 min 0,000 mm 1,3 UV-I 211 W/m 4,7 C 8,9 C 3,2 km/h (1 Bft) 97,87 %
15.04.2019 11:10 8,9 C 0,0 C 17,2 C 76 % 1023,3 hPa 0,0 l/m 2,0 km/h (1 Bft) NO 51 2 min 0,000 mm 1,9 UV-I 528 W/m 4,9 C 8,9 C 4,8 km/h (1 Bft) 95,83 %
15.04.2019 11:12 9,3 C 0,0 C 20,0 C 77 % 1023,2 hPa 0,0 l/m 3,8 km/h (1 Bft) NO 51 2 min 0,000 mm 2,0 UV-I 750 W/m 5,5 C 9,3 C 4,8 km/h (1 Bft) 97,37 %
15.04.2019 11:14 9,7 C 0,0 C 21,7 C 78 % 1023,2 hPa 0,0 l/m 2,5 km/h (1 Bft) NO 51 2 min 0,000 mm 2,0 UV-I 731 W/m 6,1 C 9,7 C 3,2 km/h (1 Bft) 96,00 %
15.04.2019 11:16 9,9 C 0,0 C 22,2 C 74 % 1023,2 hPa 0,0 l/m 2,0 km/h (1 Bft) NO 40 2 min 0,000 mm 2,1 UV-I 759 W/m 5,5 C 9,9 C 4,8 km/h (1 Bft) 97,87 %
15.04.2019 11:18 10,1 C 0,0 C 23,3 C 75 % 1023,2 hPa 0,0 l/m 4,8 km/h (1 Bft) O-NO 67 2 min 0,000 mm 2,1 UV-I 763 W/m 5,9 C 10,1 C 8,0 km/h (2 Bft) 93,62 %
15.04.2019 11:20 10,3 C 0,0 C 23,9 C 73 % 1023,1 hPa 0,0 l/m 3,8 km/h (1 Bft) NO 42 2 min 0,000 mm 2,1 UV-I 749 W/m 5,7 C 10,3 C 6,4 km/h (2 Bft) 95,74 %
15.04.2019 11:22 10,3 C 0,0 C 21,7 C 72 % 1023,2 hPa 0,0 l/m 3,3 km/h (1 Bft) NO 41 2 min 0,000 mm 2,0 UV-I 696 W/m 5,5 C 10,3 C 6,4 km/h (2 Bft) 97,87 %
15.04.2019 11:24 10,3 C 0,0 C 21,7 C 73 % 1023,2 hPa 0,0 l/m 4,0 km/h (1 Bft) NO 46 2 min 0,000 mm 2,1 UV-I 706 W/m 5,7 C 10,3 C 8,0 km/h (2 Bft) 93,62 %
15.04.2019 11:26 10,5 C 0,0 C 22,8 C 71 % 1023,2 hPa 0,0 l/m 4,4 km/h (1 Bft) NO 51 2 min 0,000 mm 2,1 UV-I 729 W/m 5,5 C 10,5 C 6,4 km/h (2 Bft) 95,74 %
15.04.2019 11:28 10,4 C 0,0 C 23,9 C 69 % 1023,1 hPa 0,0 l/m 1,8 km/h (1 Bft) NO 51 2 min 0,000 mm 2,1 UV-I 782 W/m 5,0 C 10,4 C 4,8 km/h (1 Bft) 98,00 %
15.04.2019 11:30 10,6 C 0,0 C 24,4 C 72 % 1023,1 hPa 0,0 l/m 4,8 km/h (1 Bft) NO 40 2 min 0,000 mm 2,2 UV-I 792 W/m 5,8 C 10,6 C 8,0 km/h (2 Bft) 97,87 %
15.04.2019 11:32 10,5 C 0,0 C 25,0 C 68 % 1023,0 hPa 0,0 l/m 4,3 km/h (1 Bft) N-NO 23 2 min 0,000 mm 2,2 UV-I 815 W/m 4,8 C 10,5 C 6,4 km/h (2 Bft) 97,87 %
15.04.2019 11:34 10,4 C 0,0 C 25,0 C 69 % 1023,1 hPa 0,0 l/m 5,6 km/h (1 Bft) O 83 2 min 0,000 mm 2,2 UV-I 779 W/m 5,0 C 10,4 C 11,3 km/h (2 Bft) 97,56 %
15.04.2019 11:36 10,4 C 0,0 C 23,3 C 68 % 1023,1 hPa 0,0 l/m 5,0 km/h (1 Bft) O-SO 115 2 min 0,000 mm 2,1 UV-I 784 W/m 4,8 C 10,4 C 9,7 km/h (2 Bft) 97,87 %
15.04.2019 11:38 10,3 C 0,0 C 22,8 C 67 % 1023,0 hPa 0,0 l/m 6,3 km/h (2 Bft) O-NO 68 0 min 0,000 mm 1,8 UV-I 318 W/m 4,4 C 10,3 C 11,3 km/h (2 Bft) 98,00 %
15.04.2019 11:40 10,5 C 0,0 C 23,9 C 71 % 1023,0 hPa 0,0 l/m 4,1 km/h (1 Bft) NO 45 2 min 0,000 mm 2,2 UV-I 763 W/m 5,5 C 10,5 C 6,4 km/h (2 Bft) 94,00 %
15.04.2019 11:42 10,4 C 0,0 C 23,9 C 65 % 1023,0 hPa 0,0 l/m 1,4 km/h (1 Bft) O-NO 65 2 min 0,000 mm 2,0 UV-I 789 W/m 4,1 C 10,4 C 4,8 km/h (1 Bft) 93,62 %
15.04.2019 11:44 10,4 C 0,0 C 22,2 C 68 % 1023,0 hPa 0,0 l/m 3,2 km/h (1 Bft) NO 41 2 min 0,000 mm 2,0 UV-I 795 W/m 4,8 C 10,4 C 8,0 km/h (2 Bft) 91,49 %
15.04.2019 11:46 10,3 C 0,0 C 19,4 C 68 % 1023,0 hPa 0,0 l/m 4,9 km/h (1 Bft) NO 53 2 min 0,000 mm 1,6 UV-I 655 W/m 4,7 C 10,3 C 8,0 km/h (2 Bft) 93,75 %
15.04.2019 11:48 10,1 C 0,0 C 18,9 C 69 % 1023,0 hPa 0,0 l/m 3,4 km/h (1 Bft) NO 52 0 min 0,000 mm 1,8 UV-I 185 W/m 4,7 C 10,1 C 4,8 km/h (1 Bft) 95,74 %
15.04.2019 11:50 10,1 C 0,0 C 20,0 C 69 % 1023,0 hPa 0,0 l/m 3,3 km/h (1 Bft) NW 309 2 min 0,000 mm 2,2 UV-I 694 W/m 4,7 C 10,1 C 4,8 km/h (1 Bft) 95,74 %
15.04.2019 11:52 10,4 C 0,0 C 22,8 C 72 % 1023,0 hPa 0,0 l/m 3,8 km/h (1 Bft) N 355 2 min 0,000 mm 2,4 UV-I 797 W/m 5,6 C 10,4 C 6,4 km/h (2 Bft) 94,74 %
15.04.2019 11:54 10,7 C 0,0 C 23,9 C 70 % 1022,9 hPa 0,0 l/m 5,3 km/h (1 Bft) NO 49 2 min 0,000 mm 2,4 UV-I 769 W/m 5,5 C 10,7 C 8,0 km/h (2 Bft) 95,74 %
15.04.2019 11:56 10,8 C 0,0 C 24,4 C 69 % 1023,0 hPa 0,0 l/m 5,4 km/h (1 Bft) NO 34 2 min 0,000 mm 2,4 UV-I 782 W/m 5,3 C 10,8 C 8,0 km/h (2 Bft) 95,74 %
15.04.2019 11:58 10,8 C 0,0 C 25,0 C 66 % 1022,9 hPa 0,0 l/m 4,2 km/h (1 Bft) O-NO 66 2 min 0,000 mm 2,3 UV-I 764 W/m 4,7 C 10,8 C 8,0 km/h (2 Bft) 93,62 %
15.04.2019 12:00 11,0 C 0,0 C 24,4 C 68 % 1022,9 hPa 0,0 l/m 5,9 km/h (2 Bft) O-NO 57 2 min 0,305 mm 2,1 UV-I 735 W/m 5,3 C 11,0 C 9,7 km/h (2 Bft) 96,00 %
15.04.2019 12:02 10,9 C 0,0 C 24,4 C 64 % 1022,9 hPa 0,0 l/m 3,2 km/h (1 Bft) O 82 2 min 0,000 mm 2,2 UV-I 742 W/m 4,4 C 10,9 C 4,8 km/h (1 Bft) 91,49 %
15.04.2019 12:04 11,0 C 0,0 C 25,6 C 64 % 1022,9 hPa 0,0 l/m 5,2 km/h (1 Bft) O-NO 76 2 min 0,000 mm 2,4 UV-I 769 W/m 4,5 C 11,0 C 8,0 km/h (2 Bft) 97,87 %
15.04.2019 12:06 11,1 C 0,0 C 25,6 C 61 % 1022,8 hPa 0,0 l/m 3,4 km/h (1 Bft) O-NO 78 2 min 0,000 mm 2,4 UV-I 774 W/m 3,9 C 11,1 C 6,4 km/h (2 Bft) 97,87 %
15.04.2019 12:08 10,9 C 0,0 C 24,4 C 59 % 1022,9 hPa 0,0 l/m 2,2 km/h (1 Bft) O-SO 103 2 min 0,000 mm 2,5 UV-I 771 W/m 3,2 C 10,9 C 4,8 km/h (1 Bft) 94,00 %
15.04.2019 12:10 11,1 C 0,0 C 25,6 C 63 % 1022,8 hPa 0,0 l/m 5,3 km/h (1 Bft) O 94 2 min 0,000 mm 2,5 UV-I 770 W/m 4,3 C 11,1 C 9,7 km/h (2 Bft) 97,87 %
15.04.2019 12:12 11,3 C 0,0 C 25,6 C 61 % 1022,8 hPa 0,0 l/m 8,4 km/h (2 Bft) O 90 2 min 0,000 mm 2,5 UV-I 795 W/m 4,1 C 10,0 C 12,9 km/h (3 Bft) 100,00 %
15.04.2019 12:14 11,3 C 0,0 C 26,7 C 59 % 1022,8 hPa 0,0 l/m 5,2 km/h (1 Bft) O-NO 69 2 min 0,000 mm 2,5 UV-I 789 W/m 3,6 C 11,3 C 8,0 km/h (2 Bft) 90,62 %
15.04.2019 12:16 11,3 C 0,0 C 27,2 C 63 % 1022,9 hPa 0,0 l/m 4,5 km/h (1 Bft) O-NO 62 2 min 0,000 mm 2,6 UV-I 795 W/m 4,5 C 11,3 C 12,9 km/h (3 Bft) 93,62 %
15.04.2019 12:18 11,5 C 0,0 C 26,7 C 61 % 1022,9 hPa 0,0 l/m 5,2 km/h (1 Bft) O-NO 74 2 min 0,000 mm 2,6 UV-I 790 W/m 4,2 C 11,5 C 12,9 km/h (3 Bft) 95,74 %
15.04.2019 12:20 11,6 C 0,0 C 27,2 C 62 % 1022,9 hPa 0,0 l/m 5,6 km/h (1 Bft) O-NO 72 2 min 0,000 mm 2,6 UV-I 789 W/m 4,6 C 11,6 C 12,9 km/h (3 Bft) 95,83 %
15.04.2019 12:26 11,8 C 0,0 C 27,8 C 61 % 1022,9 hPa 0,0 l/m 6,7 km/h (2 Bft) O-NO 70 6 min 0,000 mm 2,6 UV-I 806 W/m 4,5 C 11,6 C 12,9 km/h (3 Bft) 95,24 %
15.04.2019 12:28 11,9 C 0,0 C 27,8 C 60 % 1022,9 hPa 0,0 l/m 7,3 km/h (2 Bft) O 93 2 min 0,000 mm 2,6 UV-I 827 W/m 4,4 C 11,3 C 12,9 km/h (3 Bft) 93,62 %
15.04.2019 12:30 11,8 C 0,0 C 28,3 C 55 % 1022,9 hPa 0,0 l/m 6,1 km/h (2 Bft) NO 55 2 min 0,000 mm 2,6 UV-I 810 W/m 3,1 C 11,8 C 11,3 km/h (2 Bft) 94,00 %
15.04.2019 12:32 11,8 C 0,0 C 28,3 C 61 % 1022,9 hPa 0,0 l/m 5,7 km/h (1 Bft) O 80 2 min 0,000 mm 2,6 UV-I 815 W/m 4,5 C 11,8 C 8,0 km/h (2 Bft) 97,37 %
15.04.2019 12:34 11,7 C 0,0 C 28,3 C 55 % 1022,9 hPa 0,0 l/m 1,8 km/h (1 Bft) O 80 2 min 0,000 mm 2,6 UV-I 801 W/m 3,0 C 11,7 C 3,2 km/h (1 Bft) 92,00 %
15.04.2019 12:36 11,5 C 0,0 C 28,3 C 59 % 1022,8 hPa 0,0 l/m 3,4 km/h (1 Bft) N-NW 328 2 min 0,000 mm 2,6 UV-I 784 W/m 3,8 C 11,5 C 6,4 km/h (2 Bft) 94,34 %
15.04.2019 12:38 11,4 C 0,0 C 27,8 C 58 % 1022,8 hPa 0,0 l/m 2,7 km/h (1 Bft) N-NW 329 2 min 0,000 mm 2,6 UV-I 768 W/m 3,4 C 11,4 C 4,8 km/h (1 Bft) 95,74 %
15.04.2019 12:40 11,3 C 0,0 C 26,7 C 56 % 1022,8 hPa 0,0 l/m 3,6 km/h (1 Bft) N-NO 22 2 min 0,000 mm 2,7 UV-I 785 W/m 2,8 C 11,3 C 8,0 km/h (2 Bft) 95,12 %
15.04.2019 12:42 11,3 C 0,0 C 27,2 C 57 % 1022,8 hPa 0,0 l/m 7,6 km/h (2 Bft) O-SO 118 2 min 0,000 mm 2,7 UV-I 795 W/m 3,1 C 10,5 C 17,7 km/h (3 Bft) 98,00 %
15.04.2019 12:44 11,3 C 0,0 C 27,2 C 53 % 1022,7 hPa 0,0 l/m 4,8 km/h (1 Bft) N-NO 19 2 min 0,000 mm 2,7 UV-I 798 W/m 2,1 C 11,3 C 12,9 km/h (3 Bft) 100,00 %
15.04.2019 12:46 11,4 C 0,0 C 27,2 C 57 % 1022,7 hPa 0,0 l/m 6,0 km/h (2 Bft) S 171 2 min 0,000 mm 2,7 UV-I 789 W/m 3,2 C 11,4 C 8,0 km/h (2 Bft) 98,00 %
15.04.2019 12:48 11,6 C 0,0 C 27,8 C 56 % 1022,7 hPa 0,0 l/m 4,5 km/h (1 Bft) S-SO 157 2 min 0,000 mm 2,7 UV-I 792 W/m 3,1 C 11,6 C 6,4 km/h (2 Bft) 96,23 %
15.04.2019 12:50 11,7 C 0,0 C 27,8 C 58 % 1022,7 hPa 0,0 l/m 9,7 km/h (2 Bft) O 81 2 min 0,000 mm 2,7 UV-I 796 W/m 3,7 C 9,6 C 20,9 km/h (4 Bft) 97,56 %
15.04.2019 12:52 11,8 C 0,0 C 27,2 C 54 % 1022,7 hPa 0,0 l/m 10,3 km/h (2 Bft) O-SO 103 2 min 0,000 mm 2,7 UV-I 793 W/m 2,8 C 9,4 C 14,5 km/h (3 Bft) 98,11 %
15.04.2019 12:54 11,9 C 0,0 C 27,8 C 53 % 1022,7 hPa 0,0 l/m 11,6 km/h (2 Bft) O-SO 116 2 min 0,000 mm 2,6 UV-I 780 W/m 2,6 C 8,9 C 16,1 km/h (3 Bft) 97,37 %
15.04.2019 12:56 11,8 C 0,0 C 28,3 C 52 % 1022,7 hPa 0,0 l/m 3,8 km/h (1 Bft) O 80 2 min 0,000 mm 2,6 UV-I 764 W/m 2,3 C 11,8 C 9,7 km/h (2 Bft) 96,00 %
15.04.2019 12:58 11,7 C 0,0 C 28,3 C 55 % 1022,6 hPa 0,0 l/m 4,0 km/h (1 Bft) O 82 2 min 0,000 mm 2,6 UV-I 783 W/m 3,0 C 11,7 C 12,9 km/h (3 Bft) 96,00 %
15.04.2019 13:00 11,8 C 0,0 C 28,9 C 55 % 1022,6 hPa 0,0 l/m 6,8 km/h (2 Bft) O-SO 113 2 min 0,000 mm 2,7 UV-I 796 W/m 3,1 C 11,5 C 12,9 km/h (3 Bft) 95,12 %
15.04.2019 13:02 11,9 C 0,0 C 28,3 C 52 % 1022,6 hPa 0,0 l/m 8,0 km/h (2 Bft) NO 54 2 min 0,406 mm 2,7 UV-I 785 W/m 2,4 C 10,8 C 12,9 km/h (3 Bft) 94,64 %
15.04.2019 13:04 11,9 C 0,0 C 28,3 C 51 % 1022,6 hPa 0,0 l/m 4,0 km/h (1 Bft) NO 53 2 min 0,000 mm 2,6 UV-I 778 W/m 2,1 C 11,9 C 8,0 km/h (2 Bft) 95,45 %
15.04.2019 13:06 11,9 C 0,0 C 27,2 C 55 % 1022,5 hPa 0,0 l/m 4,5 km/h (1 Bft) N-NO 26 2 min 0,000 mm 2,6 UV-I 773 W/m 3,2 C 11,9 C 8,0 km/h (2 Bft) 96,23 %
15.04.2019 13:08 12,0 C 0,0 C 26,7 C 57 % 1022,4 hPa 0,0 l/m 6,1 km/h (2 Bft) O 91 2 min 0,000 mm 2,7 UV-I 788 W/m 3,8 C 12,0 C 11,3 km/h (2 Bft) 92,68 %
15.04.2019 13:10 11,9 C 0,0 C 27,8 C 55 % 1022,4 hPa 0,0 l/m 4,7 km/h (1 Bft) SO 136 2 min 0,000 mm 2,6 UV-I 773 W/m 3,2 C 11,9 C 9,7 km/h (2 Bft) 95,45 %
15.04.2019 13:12 12,0 C 0,0 C 28,3 C 57 % 1022,4 hPa 0,0 l/m 3,0 km/h (1 Bft) O-SO 106 2 min 0,000 mm 2,7 UV-I 785 W/m 3,8 C 12,0 C 4,8 km/h (1 Bft) 96,23 %
15.04.2019 13:14 12,1 C 0,0 C 28,9 C 55 % 1022,4 hPa 0,0 l/m 2,5 km/h (1 Bft) O-SO 121 2 min 0,000 mm 2,7 UV-I 792 W/m 3,3 C 12,1 C 4,8 km/h (1 Bft) 95,12 %
15.04.2019 13:16 12,1 C 0,0 C 28,9 C 57 % 1022,4 hPa 0,0 l/m 2,6 km/h (1 Bft) S-SO 150 2 min 0,000 mm 2,7 UV-I 779 W/m 3,8 C 12,1 C 8,0 km/h (2 Bft) 94,34 %
15.04.2019 13:18 12,0 C 0,0 C 27,8 C 56 % 1022,4 hPa 0,0 l/m 5,3 km/h (1 Bft) N 11 2 min 0,000 mm 2,8 UV-I 778 W/m 3,5 C 12,0 C 9,7 km/h (2 Bft) 95,12 %
15.04.2019 13:20 12,2 C 0,0 C 27,8 C 61 % 1022,4 hPa 0,0 l/m 5,5 km/h (1 Bft) N-NO 26 2 min 0,000 mm 2,8 UV-I 777 W/m 4,9 C 12,2 C 8,0 km/h (2 Bft) 95,24 %
15.04.2019 13:22 12,7 C 0,0 C 28,3 C 58 % 1022,4 hPa 0,0 l/m 5,8 km/h (2 Bft) O 101 2 min 0,000 mm 2,7 UV-I 770 W/m 4,7 C 12,7 C 11,3 km/h (2 Bft) 93,62 %
15.04.2019 13:24 12,8 C 0,0 C 28,9 C 56 % 1022,3 hPa 0,0 l/m 6,4 km/h (2 Bft) S-SO 148 2 min 0,000 mm 2,7 UV-I 765 W/m 4,2 C 12,8 C 14,5 km/h (3 Bft) 98,11 %
15.04.2019 13:26 12,8 C 0,0 C 28,9 C 55 % 1022,3 hPa 0,0 l/m 11,2 km/h (2 Bft) O-SO 119 2 min 0,000 mm 2,7 UV-I 765 W/m 4,0 C 10,1 C 19,3 km/h (3 Bft) 98,00 %
15.04.2019 13:28 12,8 C 0,0 C 29,4 C 54 % 1022,3 hPa 0,0 l/m 11,8 km/h (2 Bft) O-SO 119 2 min 0,000 mm 2,7 UV-I 777 W/m 3,7 C 9,8 C 17,7 km/h (3 Bft) 96,00 %
15.04.2019 13:30 12,6 C 0,0 C 29,4 C 52 % 1022,3 hPa 0,0 l/m 9,0 km/h (2 Bft) O 101 2 min 0,000 mm 2,6 UV-I 776 W/m 3,0 C 11,0 C 14,5 km/h (3 Bft) 94,74 %
15.04.2019 13:32 12,4 C 0,0 C 28,9 C 53 % 1022,4 hPa 0,0 l/m 4,6 km/h (1 Bft) O 92 2 min 0,000 mm 2,6 UV-I 768 W/m 3,1 C 12,4 C 11,3 km/h (2 Bft) 97,87 %
15.04.2019 13:34 12,4 C 0,0 C 29,4 C 55 % 1022,4 hPa 0,0 l/m 2,7 km/h (1 Bft) O 86 2 min 0,000 mm 2,6 UV-I 765 W/m 3,6 C 12,4 C 6,4 km/h (2 Bft) 98,11 %
15.04.2019 13:36 12,3 C 0,0 C 28,9 C 52 % 1022,4 hPa 0,0 l/m 2,6 km/h (1 Bft) O 84 2 min 0,000 mm 2,6 UV-I 774 W/m 2,7 C 12,3 C 4,8 km/h (1 Bft) 97,56 %
15.04.2019 13:38 12,2 C 0,0 C 28,3 C 52 % 1022,3 hPa 0,0 l/m 3,9 km/h (1 Bft) W-NW 292 2 min 0,000 mm 2,6 UV-I 768 W/m 2,6 C 12,2 C 6,4 km/h (2 Bft) 96,23 %
15.04.2019 13:40 12,2 C 0,0 C 28,3 C 51 % 1022,3 hPa 0,0 l/m 4,6 km/h (1 Bft) W 261 2 min 0,000 mm 2,6 UV-I 781 W/m 2,4 C 12,2 C 6,4 km/h (2 Bft) 97,56 %
15.04.2019 13:42 12,2 C 0,0 C 28,3 C 52 % 1022,4 hPa 0,0 l/m 3,1 km/h (1 Bft) W 263 2 min 0,000 mm 2,6 UV-I 777 W/m 2,6 C 12,2 C 4,8 km/h (1 Bft) 97,87 %
15.04.2019 13:44 12,4 C 0,0 C 29,4 C 53 % 1022,4 hPa 0,0 l/m 3,6 km/h (1 Bft) S-SO 149 2 min 0,000 mm 2,6 UV-I 780 W/m 3,1 C 12,4 C 6,4 km/h (2 Bft) 98,00 %
15.04.2019 13:46 12,5 C 0,0 C 27,8 C 54 % 1022,4 hPa 0,0 l/m 6,0 km/h (2 Bft) SW 235 2 min 0,000 mm 2,4 UV-I 755 W/m 3,5 C 12,5 C 9,7 km/h (2 Bft) 97,87 %
15.04.2019 13:49 12,6 C 0,0 C 26,7 C 58 % 1022,3 hPa 0,0 l/m 2,4 km/h (1 Bft) W-SW 246 3 min 0,000 mm 2,3 UV-I 544 W/m 4,6 C 12,6 C 6,4 km/h (2 Bft) 95,59 %
15.04.2019 13:50 12,7 C 0,0 C 26,7 C 58 % 1022,3 hPa 0,0 l/m 1,2 km/h (1 Bft) W-SW 255 1 min 0,000 mm 2,5 UV-I 809 W/m 4,7 C 12,7 C 1,6 km/h (1 Bft) 91,30 %
15.04.2019 13:52 12,8 C 0,0 C 26,1 C 60 % 1022,3 hPa 0,0 l/m 6,0 km/h (2 Bft) N-NO 32 2 min 0,000 mm 2,1 UV-I 802 W/m 5,2 C 12,8 C 9,7 km/h (2 Bft) 96,23 %
15.04.2019 13:54 13,1 C 0,0 C 26,7 C 56 % 1022,2 hPa 0,0 l/m 4,5 km/h (1 Bft) N-NO 20 2 min 0,000 mm 2,4 UV-I 686 W/m 4,5 C 13,1 C 6,4 km/h (2 Bft) 97,56 %
15.04.2019 13:56 13,3 C 0,0 C 28,3 C 54 % 1022,3 hPa 0,0 l/m 3,7 km/h (1 Bft) SO 141 2 min 0,000 mm 2,5 UV-I 787 W/m 4,2 C 13,3 C 9,7 km/h (2 Bft) 92,45 %
15.04.2019 13:58 13,2 C 0,0 C 27,8 C 53 % 1022,2 hPa 0,0 l/m 11,9 km/h (2 Bft) S-SO 158 2 min 0,000 mm 2,5 UV-I 769 W/m 3,8 C 10,2 C 17,7 km/h (3 Bft) 93,62 %
15.04.2019 14:00 13,0 C 0,0 C 27,8 C 54 % 1022,2 hPa 0,0 l/m 5,1 km/h (1 Bft) S-SO 161 2 min 0,000 mm 2,5 UV-I 767 W/m 3,9 C 13,0 C 9,7 km/h (2 Bft) 97,44 %
15.04.2019 14:02 13,1 C 0,0 C 27,2 C 54 % 1022,3 hPa 0,0 l/m 8,9 km/h (2 Bft) SO 137 2 min 0,381 mm 2,5 UV-I 770 W/m 4,0 C 11,6 C 17,7 km/h (3 Bft) 93,18 %
15.04.2019 14:04 12,8 C 0,0 C 26,7 C 52 % 1022,3 hPa 0,0 l/m 9,5 km/h (2 Bft) O 84 2 min 0,000 mm 2,4 UV-I 775 W/m 3,2 C 10,9 C 17,7 km/h (3 Bft) 94,00 %
15.04.2019 14:06 12,9 C 0,0 C 27,8 C 56 % 1022,3 hPa 0,0 l/m 6,5 km/h (2 Bft) NO 40 2 min 0,000 mm 2,4 UV-I 785 W/m 4,3 C 12,9 C 9,7 km/h (2 Bft) 96,00 %
15.04.2019 14:08 13,2 C 0,0 C 28,3 C 57 % 1022,2 hPa 0,0 l/m 7,5 km/h (2 Bft) NO 46 2 min 0,000 mm 2,4 UV-I 775 W/m 4,9 C 12,5 C 9,7 km/h (2 Bft) 95,45 %
15.04.2019 14:10 13,3 C 0,0 C 29,4 C 54 % 1022,3 hPa 0,0 l/m 4,6 km/h (1 Bft) SO 144 2 min 0,000 mm 2,4 UV-I 771 W/m 4,2 C 13,3 C 9,7 km/h (2 Bft) 95,45 %
15.04.2019 14:12 13,2 C 0,0 C 28,3 C 51 % 1022,2 hPa 0,0 l/m 5,1 km/h (1 Bft) S 172 2 min 0,000 mm 2,3 UV-I 736 W/m 3,3 C 13,2 C 11,3 km/h (2 Bft) 95,74 %
15.04.2019 14:14 13,1 C 0,0 C 28,9 C 50 % 1022,2 hPa 0,0 l/m 2,8 km/h (1 Bft) SW 234 2 min 0,000 mm 2,3 UV-I 733 W/m 2,9 C 13,1 C 4,8 km/h (1 Bft) 91,07 %
15.04.2019 14:16 13,0 C 0,0 C 27,2 C 53 % 1022,2 hPa 0,0 l/m 3,6 km/h (1 Bft) O-NO 64 2 min 0,000 mm 2,2 UV-I 733 W/m 3,6 C 13,0 C 4,8 km/h (1 Bft) 95,12 %
15.04.2019 14:18 12,9 C 0,0 C 26,7 C 55 % 1022,1 hPa 0,0 l/m 7,3 km/h (2 Bft) N-NO 19 2 min 0,000 mm 2,4 UV-I 776 W/m 4,1 C 12,3 C 14,5 km/h (3 Bft) 96,23 %
15.04.2019 14:20 12,9 C 0,0 C 26,7 C 56 % 1022,2 hPa 0,0 l/m 4,1 km/h (1 Bft) N 11 2 min 0,000 mm 2,2 UV-I 778 W/m 4,3 C 12,9 C 6,4 km/h (2 Bft) 95,12 %
15.04.2019 14:22 12,8 C 0,0 C 26,1 C 52 % 1022,1 hPa 0,0 l/m 2,3 km/h (1 Bft) N 11 2 min 0,000 mm 2,1 UV-I 773 W/m 3,2 C 12,8 C 4,8 km/h (1 Bft) 90,00 %
15.04.2019 14:24 12,4 C 0,0 C 22,8 C 51 % 1022,0 hPa 0,0 l/m 1,6 km/h (1 Bft) N 11 2 min 0,000 mm 1,6 UV-I 442 W/m 2,6 C 12,4 C 3,2 km/h (1 Bft) 92,68 %
15.04.2019 14:26 12,3 C 0,0 C 21,1 C 55 % 1022,1 hPa 0,0 l/m 3,4 km/h (1 Bft) O-NO 65 0 min 0,000 mm 1,6 UV-I 199 W/m 3,5 C 12,3 C 8,0 km/h (2 Bft) 100,00 %
15.04.2019 14:28 12,3 C 0,0 C 22,8 C 54 % 1021,9 hPa 0,0 l/m 1,6 km/h (1 Bft) O 93 2 min 0,000 mm 2,2 UV-I 477 W/m 3,3 C 12,3 C 3,2 km/h (1 Bft) 91,23 %
15.04.2019 14:30 12,7 C 0,0 C 24,4 C 56 % 1021,9 hPa 0,0 l/m 5,3 km/h (1 Bft) O 87 2 min 0,000 mm 2,3 UV-I 740 W/m 4,2 C 12,7 C 9,7 km/h (2 Bft) 94,44 %
15.04.2019 14:32 13,1 C 0,0 C 26,1 C 55 % 1021,9 hPa 0,0 l/m 4,5 km/h (1 Bft) NO 39 2 min 0,000 mm 2,2 UV-I 726 W/m 4,3 C 13,1 C 8,0 km/h (2 Bft) 100,00 %
15.04.2019 14:34 13,1 C 0,0 C 26,7 C 56 % 1021,9 hPa 0,0 l/m 6,4 km/h (2 Bft) O 94 2 min 0,000 mm 2,2 UV-I 718 W/m 4,5 C 13,1 C 11,3 km/h (2 Bft) 98,00 %
15.04.2019 14:36 13,1 C 0,0 C 27,2 C 49 % 1021,9 hPa 0,0 l/m 7,3 km/h (2 Bft) NO 46 2 min 0,000 mm 2,2 UV-I 732 W/m 2,6 C 12,5 C 11,3 km/h (2 Bft) 98,00 %
15.04.2019 14:38 13,1 C 0,0 C 27,8 C 50 % 1021,9 hPa 0,0 l/m 3,8 km/h (1 Bft) S 187 2 min 0,000 mm 2,2 UV-I 720 W/m 2,9 C 13,1 C 6,4 km/h (2 Bft) 97,92 %
15.04.2019 14:40 13,2 C 0,0 C 27,2 C 50 % 1021,8 hPa 0,0 l/m 10,3 km/h (2 Bft) S 169 2 min 0,000 mm 2,2 UV-I 725 W/m 3,0 C 11,0 C 16,1 km/h (3 Bft) 98,00 %
15.04.2019 14:42 13,3 C 0,0 C 27,2 C 49 % 1021,8 hPa 0,0 l/m 10,4 km/h (2 Bft) SO 128 2 min 0,000 mm 2,2 UV-I 722 W/m 2,8 C 11,0 C 16,1 km/h (3 Bft) 95,74 %
15.04.2019 14:44 13,5 C 0,0 C 27,2 C 51 % 1021,8 hPa 0,0 l/m 9,4 km/h (2 Bft) SO 138 2 min 0,000 mm 2,2 UV-I 729 W/m 3,6 C 11,8 C 14,5 km/h (3 Bft) 97,87 %
15.04.2019 14:46 13,5 C 0,0 C 27,2 C 48 % 1021,8 hPa 0,0 l/m 7,0 km/h (2 Bft) SW 215 2 min 0,000 mm 2,2 UV-I 751 W/m 2,7 C 13,1 C 12,9 km/h (3 Bft) 100,00 %
15.04.2019 14:48 13,4 C 0,0 C 28,3 C 50 % 1021,8 hPa 0,0 l/m 2,3 km/h (1 Bft) SO 136 2 min 0,000 mm 2,1 UV-I 734 W/m 3,2 C 13,4 C 4,8 km/h (1 Bft) 97,87 %
15.04.2019 14:50 13,3 C 0,0 C 27,2 C 48 % 1021,7 hPa 0,0 l/m 1,0 km/h (0 Bft) SO 136 2 min 0,000 mm 1,8 UV-I 679 W/m 2,5 C 13,3 C 4,8 km/h (1 Bft) 100,00 %
15.04.2019 14:52 13,2 C 0,0 C 27,2 C 50 % 1021,7 hPa 0,0 l/m 5,0 km/h (1 Bft) O-NO 64 2 min 0,000 mm 2,0 UV-I 682 W/m 3,0 C 13,2 C 12,9 km/h (3 Bft) 100,00 %
15.04.2019 14:54 13,5 C 0,0 C 27,2 C 54 % 1021,7 hPa 0,0 l/m 7,3 km/h (2 Bft) O-NO 77 2 min 0,000 mm 2,1 UV-I 703 W/m 4,4 C 12,9 C 14,5 km/h (3 Bft) 100,00 %
15.04.2019 14:56 13,7 C 0,0 C 27,2 C 49 % 1021,7 hPa 0,0 l/m 8,7 km/h (2 Bft) S-SO 156 2 min 0,000 mm 2,1 UV-I 694 W/m 3,2 C 12,3 C 14,5 km/h (3 Bft) 100,00 %
15.04.2019 14:58 13,4 C 0,0 C 27,2 C 48 % 1021,6 hPa 0,0 l/m 3,8 km/h (1 Bft) S-SO 147 2 min 0,000 mm 2,0 UV-I 674 W/m 2,6 C 13,4 C 11,3 km/h (2 Bft) 95,74 %
15.04.2019 15:00 13,2 C 0,0 C 28,3 C 48 % 1021,6 hPa 0,0 l/m 2,4 km/h (1 Bft) S-SO 147 2 min 0,381 mm 2,0 UV-I 671 W/m 2,4 C 13,2 C 4,8 km/h (1 Bft) 98,00 %
15.04.2019 15:02 13,3 C 0,0 C 28,3 C 48 % 1021,5 hPa 0,0 l/m 3,7 km/h (1 Bft) O-SO 112 2 min 0,000 mm 2,0 UV-I 670 W/m 2,5 C 13,3 C 11,3 km/h (2 Bft) 100,00 %
15.04.2019 15:04 13,6 C 0,0 C 28,3 C 48 % 1021,5 hPa 0,0 l/m 14,2 km/h (3 Bft) O 84 2 min 0,000 mm 2,0 UV-I 697 W/m 2,8 C 9,8 C 17,7 km/h (3 Bft) 100,00 %
15.04.2019 15:06 13,6 C 0,0 C 28,3 C 47 % 1021,5 hPa 0,0 l/m 12,4 km/h (3 Bft) O-SO 112 2 min 0,000 mm 1,9 UV-I 684 W/m 2,5 C 10,5 C 17,7 km/h (3 Bft) 100,00 %
15.04.2019 15:08 13,6 C 0,0 C 28,9 C 48 % 1021,5 hPa 0,0 l/m 10,7 km/h (2 Bft) O 85 2 min 0,000 mm 1,9 UV-I 683 W/m 2,8 C 11,2 C 16,1 km/h (3 Bft) 97,56 %
15.04.2019 15:10 13,6 C 0,0 C 27,8 C 47 % 1021,4 hPa 0,0 l/m 6,2 km/h (2 Bft) O-SO 106 2 min 0,000 mm 1,9 UV-I 674 W/m 2,5 C 13,6 C 12,9 km/h (3 Bft) 100,00 %
15.04.2019 15:12 13,6 C 0,0 C 28,3 C 47 % 1021,4 hPa 0,0 l/m 5,5 km/h (1 Bft) O 92 2 min 0,000 mm 1,9 UV-I 662 W/m 2,5 C 13,6 C 11,3 km/h (2 Bft) 100,00 %
15.04.2019 15:14 13,6 C 0,0 C 28,3 C 47 % 1021,4 hPa 0,0 l/m 6,5 km/h (2 Bft) O-SO 117 2 min 0,000 mm 1,9 UV-I 658 W/m 2,5 C 13,6 C 12,9 km/h (3 Bft) 100,00 %
15.04.2019 15:16 13,8 C 0,0 C 27,8 C 51 % 1021,3 hPa 0,0 l/m 9,8 km/h (2 Bft) O-NO 71 2 min 0,000 mm 1,9 UV-I 665 W/m 3,8 C 11,9 C 16,1 km/h (3 Bft) 100,00 %
15.04.2019 15:18 13,8 C 0,0 C 27,8 C 46 % 1021,3 hPa 0,0 l/m 8,0 km/h (2 Bft) NO 46 2 min 0,000 mm 1,8 UV-I 660 W/m 2,4 C 12,8 C 14,5 km/h (3 Bft) 100,00 %
15.04.2019 15:20 13,8 C 0,0 C 26,1 C 50 % 1021,3 hPa 0,0 l/m 12,2 km/h (2 Bft) NO 40 2 min 0,000 mm 1,8 UV-I 637 W/m 3,6 C 10,8 C 20,9 km/h (4 Bft) 100,00 %
15.04.2019 15:22 13,6 C 0,0 C 25,0 C 47 % 1021,3 hPa 0,0 l/m 4,7 km/h (1 Bft) O-NO 77 2 min 0,000 mm 1,7 UV-I 624 W/m 2,5 C 13,6 C 8,0 km/h (2 Bft) 100,00 %
15.04.2019 15:24 13,4 C 0,0 C 25,6 C 47 % 1021,3 hPa 0,0 l/m 1,4 km/h (1 Bft) S 169 2 min 0,000 mm 1,7 UV-I 614 W/m 2,3 C 13,4 C 3,2 km/h (1 Bft) 100,00 %
15.04.2019 15:26 13,4 C 0,0 C 26,7 C 47 % 1021,3 hPa 0,0 l/m 2,2 km/h (1 Bft) O 84 2 min 0,000 mm 1,7 UV-I 621 W/m 2,3 C 13,4 C 6,4 km/h (2 Bft) 95,74 %
15.04.2019 15:28 13,7 C 0,0 C 26,1 C 51 % 1021,3 hPa 0,0 l/m 12,0 km/h (2 Bft) O 92 2 min 0,000 mm 1,7 UV-I 615 W/m 3,8 C 10,8 C 20,9 km/h (4 Bft) 98,00 %
15.04.2019 15:30 13,8 C 0,0 C 24,4 C 49 % 1021,3 hPa 0,0 l/m 11,6 km/h (2 Bft) O-SO 116 2 min 0,000 mm 1,4 UV-I 617 W/m 3,3 C 11,1 C 16,1 km/h (3 Bft) 97,56 %
15.04.2019 15:32 13,9 C 0,0 C 25,6 C 48 % 1021,2 hPa 0,0 l/m 9,1 km/h (2 Bft) O-SO 103 2 min 0,000 mm 1,6 UV-I 615 W/m 3,1 C 12,4 C 14,5 km/h (3 Bft) 98,00 %
15.04.2019 15:34 13,9 C 0,0 C 25,6 C 47 % 1021,2 hPa 0,0 l/m 11,5 km/h (2 Bft) O 96 2 min 0,000 mm 1,6 UV-I 599 W/m 2,8 C 11,2 C 16,1 km/h (3 Bft) 100,00 %
15.04.2019 15:36 13,9 C 0,0 C 26,1 C 46 % 1021,2 hPa 0,0 l/m 12,5 km/h (3 Bft) O 92 2 min 0,000 mm 1,6 UV-I 601 W/m 2,5 C 10,8 C 16,1 km/h (3 Bft) 100,00 %
15.04.2019 15:38 13,9 C 0,0 C 26,1 C 46 % 1021,2 hPa 0,0 l/m 5,8 km/h (2 Bft) O-NO 71 2 min 0,000 mm 1,6 UV-I 604 W/m 2,5 C 13,9 C 14,5 km/h (3 Bft) 100,00 %
15.04.2019 15:40 13,9 C 0,0 C 26,7 C 50 % 1021,2 hPa 0,0 l/m 3,9 km/h (1 Bft) O 80 2 min 0,000 mm 1,6 UV-I 599 W/m 3,7 C 13,9 C 6,4 km/h (2 Bft) 97,37 %
15.04.2019 15:42 13,8 C 0,0 C 27,2 C 48 % 1021,2 hPa 0,0 l/m 2,8 km/h (1 Bft) O 82 2 min 0,000 mm 1,6 UV-I 600 W/m 3,0 C 13,8 C 6,4 km/h (2 Bft) 98,11 %
15.04.2019 15:44 14,1 C 0,0 C 27,8 C 49 % 1021,2 hPa 0,0 l/m 5,7 km/h (1 Bft) O 82 2 min 0,000 mm 1,6 UV-I 608 W/m 3,6 C 14,1 C 12,9 km/h (3 Bft) 100,00 %
15.04.2019 15:46 14,2 C 0,0 C 27,2 C 47 % 1021,2 hPa 0,0 l/m 8,4 km/h (2 Bft) N-NO 25 2 min 0,000 mm 1,6 UV-I 607 W/m 3,1 C 13,0 C 12,9 km/h (3 Bft) 97,56 %
15.04.2019 15:48 14,1 C 0,0 C 26,7 C 50 % 1021,1 hPa 0,0 l/m 7,0 km/h (2 Bft) N 11 2 min 0,000 mm 1,5 UV-I 596 W/m 3,8 C 13,7 C 9,7 km/h (2 Bft) 96,00 %
15.04.2019 15:50 13,9 C 0,0 C 25,6 C 48 % 1021,1 hPa 0,0 l/m 3,8 km/h (1 Bft) N 10 2 min 0,000 mm 1,4 UV-I 558 W/m 3,1 C 13,9 C 6,4 km/h (2 Bft) 95,56 %
15.04.2019 15:52 13,8 C 0,0 C 23,9 C 46 % 1021,0 hPa 0,0 l/m 2,1 km/h (1 Bft) N-NO 13 2 min 0,000 mm 1,3 UV-I 498 W/m 2,4 C 13,8 C 3,2 km/h (1 Bft) 96,00 %
15.04.2019 15:54 13,7 C 0,0 C 24,4 C 49 % 1020,9 hPa 0,0 l/m 5,8 km/h (2 Bft) N-NO 22 2 min 0,000 mm 1,4 UV-I 466 W/m 3,2 C 13,7 C 14,5 km/h (3 Bft) 95,74 %
15.04.2019 15:56 13,8 C 0,0 C 23,9 C 50 % 1020,9 hPa 0,0 l/m 10,5 km/h (2 Bft) N-NO 18 2 min 0,000 mm 1,4 UV-I 543 W/m 3,6 C 11,6 C 17,7 km/h (3 Bft) 95,12 %
15.04.2019 15:58 13,9 C 0,0 C 23,9 C 51 % 1020,9 hPa 0,0 l/m 5,6 km/h (1 Bft) N-NO 20 2 min 0,000 mm 1,3 UV-I 548 W/m 3,9 C 13,9 C 11,3 km/h (2 Bft) 92,45 %
15.04.2019 16:00 14,0 C 0,0 C 25,0 C 47 % 1021,0 hPa 0,0 l/m 7,1 km/h (2 Bft) S-SW 204 2 min 0,000 mm 1,3 UV-I 537 W/m 2,9 C 13,6 C 16,1 km/h (3 Bft) 97,37 %
15.04.2019 16:02 14,2 C 0,0 C 25,6 C 54 % 1020,9 hPa 0,0 l/m 6,5 km/h (2 Bft) NO 55 2 min 0,356 mm 1,3 UV-I 539 W/m 5,0 C 14,2 C 16,1 km/h (3 Bft) 94,34 %
15.04.2019 16:04 14,3 C 0,0 C 25,6 C 47 % 1020,9 hPa 0,0 l/m 9,7 km/h (2 Bft) O-NO 74 2 min 0,000 mm 1,3 UV-I 533 W/m 3,1 C 12,5 C 16,1 km/h (3 Bft) 95,12 %
15.04.2019 16:06 14,3 C 0,0 C 26,1 C 46 % 1020,9 hPa 0,0 l/m 5,7 km/h (1 Bft) O 89 2 min 0,000 mm 1,3 UV-I 541 W/m 2,8 C 14,3 C 9,7 km/h (2 Bft) 96,43 %
15.04.2019 16:08 14,2 C 0,0 C 26,1 C 46 % 1020,9 hPa 0,0 l/m 4,5 km/h (1 Bft) SO 129 2 min 0,000 mm 1,3 UV-I 532 W/m 2,8 C 14,2 C 11,3 km/h (2 Bft) 95,74 %
15.04.2019 16:10 14,4 C 0,0 C 26,7 C 46 % 1020,8 hPa 0,0 l/m 4,8 km/h (1 Bft) O-NO 63 2 min 0,000 mm 1,2 UV-I 521 W/m 2,9 C 14,4 C 6,4 km/h (2 Bft) 95,74 %
15.04.2019 16:12 14,3 C 0,0 C 26,1 C 50 % 1020,8 hPa 0,0 l/m 4,9 km/h (1 Bft) O-NO 67 2 min 0,000 mm 1,2 UV-I 519 W/m 4,0 C 14,3 C 11,3 km/h (2 Bft) 97,56 %
15.04.2019 16:14 14,2 C 0,0 C 25,0 C 44 % 1020,7 hPa 0,0 l/m 4,6 km/h (1 Bft) SO 136 2 min 0,000 mm 1,2 UV-I 517 W/m 2,1 C 14,2 C 6,4 km/h (2 Bft) 97,87 %
15.04.2019 16:16 14,0 C 0,0 C 25,0 C 44 % 1020,8 hPa 0,0 l/m 5,5 km/h (1 Bft) O-NO 75 2 min 0,000 mm 1,2 UV-I 498 W/m 1,9 C 14,0 C 9,7 km/h (2 Bft) 95,12 %
15.04.2019 16:18 14,1 C 0,0 C 25,6 C 48 % 1020,7 hPa 0,0 l/m 5,6 km/h (1 Bft) SO 124 2 min 0,000 mm 1,2 UV-I 502 W/m 3,3 C 14,1 C 14,5 km/h (3 Bft) 100,00 %
15.04.2019 16:20 14,2 C 0,0 C 25,0 C 46 % 1020,7 hPa 0,0 l/m 11,3 km/h (2 Bft) O-SO 110 2 min 0,000 mm 1,1 UV-I 492 W/m 2,8 C 11,6 C 17,7 km/h (3 Bft) 96,23 %
15.04.2019 16:22 14,1 C 0,0 C 25,0 C 44 % 1020,7 hPa 0,0 l/m 8,0 km/h (2 Bft) O-SO 115 2 min 0,000 mm 1,1 UV-I 495 W/m 2,0 C 13,2 C 12,9 km/h (3 Bft) 100,00 %
15.04.2019 16:24 14,0 C 0,0 C 25,6 C 45 % 1020,7 hPa 0,0 l/m 9,6 km/h (2 Bft) S-SO 159 2 min 0,000 mm 1,1 UV-I 497 W/m 2,3 C 12,2 C 16,1 km/h (3 Bft) 100,00 %
15.04.2019 16:26 13,9 C 0,0 C 24,4 C 44 % 1020,6 hPa 0,0 l/m 16,0 km/h (3 Bft) SO 142 2 min 0,000 mm 1,1 UV-I 493 W/m 1,9 C 9,5 C 20,9 km/h (4 Bft) 100,00 %
15.04.2019 16:28 13,9 C 0,0 C 25,0 C 45 % 1020,6 hPa 0,0 l/m 7,3 km/h (2 Bft) SO 131 2 min 0,000 mm 1,1 UV-I 489 W/m 2,2 C 13,4 C 12,9 km/h (3 Bft) 100,00 %
15.04.2019 16:30 14,1 C 0,0 C 25,6 C 44 % 1020,6 hPa 0,0 l/m 5,7 km/h (1 Bft) SO 142 2 min 0,000 mm 1,0 UV-I 476 W/m 2,0 C 14,1 C 14,5 km/h (3 Bft) 100,00 %
15.04.2019 16:32 14,2 C 0,0 C 25,6 C 47 % 1020,6 hPa 0,0 l/m 5,7 km/h (1 Bft) O 79 2 min 0,000 mm 1,0 UV-I 471 W/m 3,1 C 14,2 C 11,3 km/h (2 Bft) 100,00 %
15.04.2019 16:34 14,2 C 0,0 C 25,6 C 44 % 1020,5 hPa 0,0 l/m 6,4 km/h (2 Bft) SO 127 2 min 0,000 mm 1,0 UV-I 469 W/m 2,1 C 14,2 C 11,3 km/h (2 Bft) 100,00 %
15.04.2019 16:36 14,2 C 0,0 C 26,1 C 44 % 1020,5 hPa 0,0 l/m 4,4 km/h (1 Bft) SO 140 2 min 0,000 mm 1,0 UV-I 462 W/m 2,1 C 14,2 C 8,0 km/h (2 Bft) 100,00 %
15.04.2019 16:38 14,2 C 0,0 C 26,1 C 46 % 1020,5 hPa 0,0 l/m 3,9 km/h (1 Bft) SO 130 2 min 0,000 mm 1,0 UV-I 448 W/m 2,8 C 14,2 C 6,4 km/h (2 Bft) 100,00 %
15.04.2019 16:40 14,1 C 0,0 C 25,6 C 45 % 1020,5 hPa 0,0 l/m 4,0 km/h (1 Bft) O-NO 59 2 min 0,000 mm 0,9 UV-I 442 W/m 2,4 C 14,1 C 6,4 km/h (2 Bft) 100,00 %
15.04.2019 16:42 14,1 C 0,0 C 25,6 C 45 % 1020,4 hPa 0,0 l/m 6,9 km/h (2 Bft) SO 138 2 min 0,000 mm 0,9 UV-I 440 W/m 2,4 C 13,8 C 11,3 km/h (2 Bft) 100,00 %
15.04.2019 16:44 14,2 C 0,0 C 25,0 C 45 % 1020,4 hPa 0,0 l/m 13,6 km/h (3 Bft) O 92 2 min 0,000 mm 0,9 UV-I 438 W/m 2,4 C 10,7 C 22,5 km/h (4 Bft) 97,87 %
15.04.2019 16:46 14,1 C 0,0 C 23,9 C 43 % 1020,4 hPa 0,0 l/m 11,9 km/h (2 Bft) O-NO 57 2 min 0,000 mm 0,9 UV-I 429 W/m 1,7 C 11,3 C 16,1 km/h (3 Bft) 100,00 %
15.04.2019 16:48 13,9 C 0,0 C 23,3 C 45 % 1020,3 hPa 0,0 l/m 9,0 km/h (2 Bft) O-SO 113 2 min 0,000 mm 0,9 UV-I 430 W/m 2,2 C 12,4 C 14,5 km/h (3 Bft) 100,00 %
15.04.2019 16:50 13,9 C 0,0 C 23,3 C 45 % 1020,4 hPa 0,0 l/m 11,0 km/h (2 Bft) O-SO 107 2 min 0,000 mm 0,8 UV-I 425 W/m 2,2 C 11,4 C 14,5 km/h (3 Bft) 100,00 %
15.04.2019 16:52 14,0 C 0,0 C 23,3 C 44 % 1020,3 hPa 0,0 l/m 9,7 km/h (2 Bft) O-NO 57 2 min 0,000 mm 0,8 UV-I 420 W/m 1,9 C 12,2 C 12,9 km/h (3 Bft) 100,00 %
15.04.2019 16:54 14,1 C 0,0 C 23,9 C 46 % 1020,3 hPa 0,0 l/m 8,2 km/h (2 Bft) O-NO 66 2 min 0,000 mm 0,8 UV-I 411 W/m 2,7 C 13,0 C 12,9 km/h (3 Bft) 100,00 %
15.04.2019 16:56 14,1 C 0,0 C 23,9 C 46 % 1020,3 hPa 0,0 l/m 7,2 km/h (2 Bft) O-SO 109 2 min 0,000 mm 0,8 UV-I 405 W/m 2,7 C 13,6 C 12,9 km/h (3 Bft) 100,00 %
15.04.2019 16:58 14,1 C 0,0 C 24,4 C 44 % 1020,3 hPa 0,0 l/m 7,4 km/h (2 Bft) O-NO 62 2 min 0,000 mm 0,8 UV-I 405 W/m 2,0 C 13,5 C 11,3 km/h (2 Bft) 100,00 %
15.04.2019 17:00 14,1 C 0,0 C 24,4 C 46 % 1020,3 hPa 0,0 l/m 7,4 km/h (2 Bft) O-SO 108 2 min 0,000 mm 0,8 UV-I 402 W/m 2,7 C 13,5 C 16,1 km/h (3 Bft) 97,87 %
15.04.2019 17:02 14,1 C 0,0 C 23,9 C 46 % 1020,3 hPa 0,0 l/m 13,6 km/h (3 Bft) SO 145 2 min 0,304 mm 0,7 UV-I 395 W/m 2,7 C 10,6 C 20,9 km/h (4 Bft) 100,00 %
15.04.2019 17:04 14,1 C 0,0 C 24,4 C 44 % 1020,3 hPa 0,0 l/m 8,2 km/h (2 Bft) O 98 2 min 0,000 mm 0,7 UV-I 386 W/m 2,0 C 13,0 C 17,7 km/h (3 Bft) 100,00 %
15.04.2019 17:06 14,2 C 0,0 C 23,9 C 46 % 1020,3 hPa 0,0 l/m 12,0 km/h (2 Bft) O-SO 123 2 min 0,000 mm 0,7 UV-I 381 W/m 2,8 C 11,4 C 19,3 km/h (3 Bft) 100,00 %
15.04.2019 17:08 14,1 C 0,0 C 23,3 C 43 % 1020,3 hPa 0,0 l/m 13,8 km/h (3 Bft) SO 133 2 min 0,000 mm 0,7 UV-I 377 W/m 1,7 C 10,5 C 17,7 km/h (3 Bft) 100,00 %
15.04.2019 17:10 13,9 C 0,0 C 23,3 C 43 % 1020,3 hPa 0,0 l/m 10,5 km/h (2 Bft) O-SO 107 2 min 0,000 mm 0,7 UV-I 369 W/m 1,5 C 11,7 C 16,1 km/h (3 Bft) 100,00 %
15.04.2019 17:12 13,8 C 0,0 C 23,3 C 43 % 1020,2 hPa 0,0 l/m 4,2 km/h (1 Bft) O-SO 121 2 min 0,000 mm 0,7 UV-I 362 W/m 1,4 C 13,8 C 12,9 km/h (3 Bft) 98,21 %
15.04.2019 17:14 13,9 C 0,0 C 22,8 C 45 % 1020,2 hPa 0,0 l/m 8,0 km/h (2 Bft) O-NO 75 2 min 0,000 mm 0,6 UV-I 358 W/m 2,2 C 12,9 C 16,1 km/h (3 Bft) 97,37 %
15.04.2019 17:16 14,1 C 0,0 C 22,8 C 44 % 1020,2 hPa 0,0 l/m 9,6 km/h (2 Bft) O-SO 103 2 min 0,000 mm 0,6 UV-I 354 W/m 2,0 C 12,3 C 16,1 km/h (3 Bft) 97,73 %
15.04.2019 17:18 14,1 C 0,0 C 23,3 C 44 % 1020,2 hPa 0,0 l/m 9,8 km/h (2 Bft) O-SO 105 2 min 0,000 mm 0,6 UV-I 351 W/m 2,0 C 12,2 C 14,5 km/h (3 Bft) 98,11 %
15.04.2019 17:20 14,1 C 0,0 C 23,3 C 43 % 1020,2 hPa 0,0 l/m 8,0 km/h (2 Bft) S-SO 161 2 min 0,000 mm 0,6 UV-I 343 W/m 1,7 C 13,2 C 12,9 km/h (3 Bft) 95,74 %
15.04.2019 17:22 14,0 C 0,0 C 22,8 C 43 % 1020,3 hPa 0,0 l/m 10,2 km/h (2 Bft) O-SO 119 2 min 0,000 mm 0,6 UV-I 339 W/m 1,6 C 11,9 C 16,1 km/h (3 Bft) 97,87 %
15.04.2019 17:24 13,8 C 0,0 C 22,8 C 43 % 1020,2 hPa 0,0 l/m 5,5 km/h (1 Bft) O 82 2 min 0,000 mm 0,6 UV-I 336 W/m 1,4 C 13,8 C 12,9 km/h (3 Bft) 98,00 %
15.04.2019 17:26 13,9 C 0,0 C 22,2 C 44 % 1020,2 hPa 0,0 l/m 8,3 km/h (2 Bft) SO 144 2 min 0,000 mm 0,5 UV-I 329 W/m 1,9 C 12,8 C 14,5 km/h (3 Bft) 97,87 %
15.04.2019 17:28 13,8 C 0,0 C 21,7 C 43 % 1020,2 hPa 0,0 l/m 11,4 km/h (2 Bft) O-SO 118 2 min 0,000 mm 0,5 UV-I 324 W/m 1,4 C 11,1 C 16,1 km/h (3 Bft) 97,37 %
15.04.2019 17:30 13,8 C 0,0 C 21,7 C 42 % 1020,1 hPa 0,0 l/m 13,0 km/h (3 Bft) S-SO 157 2 min 0,000 mm 0,5 UV-I 315 W/m 1,1 C 10,5 C 19,3 km/h (3 Bft) 98,00 %
15.04.2019 17:32 13,9 C 0,0 C 21,1 C 44 % 1020,1 hPa 0,0 l/m 8,1 km/h (2 Bft) O 86 2 min 0,000 mm 0,5 UV-I 309 W/m 1,9 C 12,9 C 14,5 km/h (3 Bft) 98,00 %
15.04.2019 17:34 14,0 C 0,0 C 21,1 C 43 % 1020,1 hPa 0,0 l/m 6,9 km/h (2 Bft) SO 126 2 min 0,000 mm 0,5 UV-I 303 W/m 1,6 C 13,7 C 11,3 km/h (2 Bft) 94,00 %
15.04.2019 17:36 14,1 C 0,0 C 19,4 C 44 % 1020,1 hPa 0,0 l/m 7,8 km/h (2 Bft) SO 132 2 min 0,000 mm 0,5 UV-I 298 W/m 2,0 C 13,3 C 14,5 km/h (3 Bft) 100,00 %
15.04.2019 17:38 14,1 C 0,0 C 18,9 C 44 % 1020,0 hPa 0,0 l/m 12,7 km/h (3 Bft) SO 129 2 min 0,000 mm 0,5 UV-I 293 W/m 2,0 C 11,0 C 16,1 km/h (3 Bft) 96,15 %
15.04.2019 17:40 14,0 C 0,0 C 17,8 C 43 % 1020,0 hPa 0,0 l/m 8,3 km/h (2 Bft) O-SO 121 2 min 0,000 mm 0,3 UV-I 287 W/m 1,6 C 12,9 C 14,5 km/h (3 Bft) 97,92 %
15.04.2019 17:42 14,0 C 0,0 C 17,2 C 43 % 1019,9 hPa 0,0 l/m 11,1 km/h (2 Bft) O 86 2 min 0,000 mm 0,0 UV-I 281 W/m 1,6 C 11,5 C 16,1 km/h (3 Bft) 95,74 %
15.04.2019 17:44 14,0 C 0,0 C 17,2 C 42 % 1019,9 hPa 0,0 l/m 12,0 km/h (2 Bft) O-SO 107 2 min 0,000 mm 0,0 UV-I 277 W/m 1,3 C 11,1 C 16,1 km/h (3 Bft) 96,15 %
15.04.2019 17:46 13,9 C 0,0 C 17,2 C 41 % 1019,9 hPa 0,0 l/m 8,6 km/h (2 Bft) O 89 2 min 0,000 mm 0,0 UV-I 271 W/m 0,9 C 12,6 C 14,5 km/h (3 Bft) 97,44 %
15.04.2019 17:48 13,9 C 0,0 C 16,7 C 43 % 1019,9 hPa 0,0 l/m 4,3 km/h (1 Bft) O-SO 117 2 min 0,000 mm 0,0 UV-I 265 W/m 1,5 C 13,9 C 9,7 km/h (2 Bft) 96,43 %
15.04.2019 17:50 13,9 C 0,0 C 16,1 C 42 % 1019,9 hPa 0,0 l/m 4,5 km/h (1 Bft) S-SO 148 2 min 0,000 mm 0,0 UV-I 260 W/m 1,2 C 13,9 C 9,7 km/h (2 Bft) 97,37 %
15.04.2019 17:52 13,9 C 0,0 C 15,6 C 44 % 1019,9 hPa 0,0 l/m 7,2 km/h (2 Bft) O-SO 107 2 min 0,000 mm 0,0 UV-I 255 W/m 1,9 C 13,4 C 12,9 km/h (3 Bft) 98,21 %
15.04.2019 17:54 13,9 C 0,0 C 15,6 C 43 % 1019,9 hPa 0,0 l/m 7,5 km/h (2 Bft) SO 141 2 min 0,000 mm 0,0 UV-I 249 W/m 1,5 C 13,2 C 14,5 km/h (3 Bft) 94,74 %
15.04.2019 17:56 13,9 C 0,0 C 15,0 C 42 % 1019,9 hPa 0,0 l/m 3,5 km/h (1 Bft) O 86 2 min 0,000 mm 0,0 UV-I 243 W/m 1,2 C 13,9 C 9,7 km/h (2 Bft) 96,23 %
15.04.2019 17:58 13,9 C 0,0 C 15,0 C 42 % 1019,9 hPa 0,0 l/m 6,8 km/h (2 Bft) O-SO 105 2 min 0,000 mm 0,0 UV-I 236 W/m 1,2 C 13,7 C 11,3 km/h (2 Bft) 97,37 %
15.04.2019 18:01 13,8 C 0,0 C 14,4 C 42 % 1019,8 hPa 0,0 l/m 6,6 km/h (2 Bft) SO 130 3 min 0,229 mm 0,0 UV-I 229 W/m 1,1 C 13,7 C 12,9 km/h (3 Bft) 97,47 %
15.04.2019 18:02 13,8 C 0,0 C 14,4 C 42 % 1019,8 hPa 0,0 l/m 3,9 km/h (1 Bft) SO 129 1 min 0,000 mm 0,0 UV-I 222 W/m 1,1 C 13,8 C 4,8 km/h (1 Bft) 93,33 %
15.04.2019 18:04 13,8 C 0,0 C 13,9 C 45 % 1019,9 hPa 0,0 l/m 5,2 km/h (1 Bft) O-NO 74 2 min 0,000 mm 0,0 UV-I 219 W/m 2,1 C 13,8 C 6,4 km/h (2 Bft) 98,00 %
15.04.2019 18:06 13,8 C 0,0 C 13,9 C 44 % 1019,8 hPa 0,0 l/m 6,3 km/h (2 Bft) O-NO 66 2 min 0,000 mm 0,0 UV-I 214 W/m 1,8 C 13,8 C 11,3 km/h (2 Bft) 98,00 %
15.04.2019 18:08 13,8 C 0,0 C 13,9 C 42 % 1019,8 hPa 0,0 l/m 8,8 km/h (2 Bft) O 96 2 min 0,000 mm 0,0 UV-I 208 W/m 1,1 C 12,4 C 12,9 km/h (3 Bft) 97,87 %
15.04.2019 18:10 13,7 C 0,0 C 13,3 C 42 % 1019,8 hPa 0,0 l/m 7,0 km/h (2 Bft) O 99 2 min 0,000 mm 0,0 UV-I 203 W/m 1,0 C 13,3 C 11,3 km/h (2 Bft) 100,00 %
15.04.2019 18:12 13,7 C 0,0 C 13,3 C 41 % 1019,8 hPa 0,0 l/m 7,8 km/h (2 Bft) O-SO 103 2 min 0,000 mm 0,0 UV-I 199 W/m 0,7 C 12,9 C 11,3 km/h (2 Bft) 97,37 %
15.04.2019 18:14 13,7 C 0,0 C 13,3 C 42 % 1019,8 hPa 0,0 l/m 5,9 km/h (2 Bft) O-NO 74 2 min 0,000 mm 0,0 UV-I 193 W/m 1,0 C 13,7 C 11,3 km/h (2 Bft) 98,11 %
15.04.2019 18:16 13,8 C 0,0 C 13,3 C 43 % 1019,8 hPa 0,0 l/m 9,1 km/h (2 Bft) O-SO 118 2 min 0,000 mm 0,0 UV-I 187 W/m 1,4 C 12,2 C 12,9 km/h (3 Bft) 100,00 %
15.04.2019 18:18 13,7 C 0,0 C 12,8 C 43 % 1019,8 hPa 0,0 l/m 8,6 km/h (2 Bft) O 87 2 min 0,000 mm 0,0 UV-I 183 W/m 1,4 C 12,4 C 16,1 km/h (3 Bft) 100,00 %
15.04.2019 18:20 13,7 C 0,0 C 12,8 C 42 % 1019,8 hPa 0,0 l/m 5,0 km/h (1 Bft) S-SO 150 2 min 0,000 mm 0,0 UV-I 178 W/m 1,0 C 13,7 C 9,7 km/h (2 Bft) 100,00 %
15.04.2019 18:22 13,7 C 0,0 C 12,8 C 43 % 1019,8 hPa 0,0 l/m 5,0 km/h (1 Bft) O 96 2 min 0,000 mm 0,0 UV-I 173 W/m 1,4 C 13,7 C 9,7 km/h (2 Bft) 100,00 %
15.04.2019 18:24 13,7 C 0,0 C 12,8 C 42 % 1019,8 hPa 0,0 l/m 8,9 km/h (2 Bft) O 87 2 min 0,000 mm 0,0 UV-I 167 W/m 1,0 C 12,2 C 16,1 km/h (3 Bft) 100,00 %
15.04.2019 18:26 13,6 C 0,0 C 12,8 C 42 % 1019,8 hPa 0,0 l/m 6,4 km/h (2 Bft) O-NO 77 2 min 0,000 mm 0,0 UV-I 163 W/m 0,9 C 13,6 C 9,7 km/h (2 Bft) 100,00 %
15.04.2019 18:28 13,6 C 0,0 C 12,2 C 43 % 1019,8 hPa 0,0 l/m 8,5 km/h (2 Bft) SO 132 2 min 0,000 mm 0,0 UV-I 158 W/m 1,3 C 12,4 C 14,5 km/h (3 Bft) 100,00 %
15.04.2019 18:30 13,4 C 0,0 C 12,2 C 42 % 1019,7 hPa 0,0 l/m 4,4 km/h (1 Bft) O-SO 103 2 min 0,000 mm 0,0 UV-I 154 W/m 0,8 C 13,4 C 9,7 km/h (2 Bft) 100,00 %
15.04.2019 18:32 13,5 C 0,0 C 12,2 C 42 % 1019,7 hPa 0,0 l/m 5,1 km/h (1 Bft) O-SO 105 2 min 0,000 mm 0,0 UV-I 149 W/m 0,8 C 13,5 C 6,4 km/h (2 Bft) 100,00 %
15.04.2019 18:34 13,5 C 0,0 C 12,2 C 42 % 1019,8 hPa 0,0 l/m 4,5 km/h (1 Bft) O 98 2 min 0,000 mm 0,0 UV-I 144 W/m 0,8 C 13,5 C 6,4 km/h (2 Bft) 100,00 %
15.04.2019 18:36 13,5 C 0,0 C 12,2 C 43 % 1019,7 hPa 0,0 l/m 4,9 km/h (1 Bft) O-NO 74 2 min 0,000 mm 0,0 UV-I 139 W/m 1,2 C 13,5 C 8,0 km/h (2 Bft) 100,00 %
15.04.2019 18:38 13,4 C 0,0 C 11,7 C 42 % 1019,7 hPa 0,0 l/m 5,7 km/h (1 Bft) O-NO 77 2 min 0,000 mm 0,0 UV-I 135 W/m 0,8 C 13,4 C 9,7 km/h (2 Bft) 100,00 %
15.04.2019 18:40 13,4 C 0,0 C 11,7 C 42 % 1019,7 hPa 0,0 l/m 3,7 km/h (1 Bft) O-SO 116 2 min 0,000 mm 0,0 UV-I 130 W/m 0,8 C 13,4 C 4,8 km/h (1 Bft) 100,00 %
15.04.2019 18:42 13,4 C 0,0 C 11,7 C 45 % 1019,7 hPa 0,0 l/m 3,6 km/h (1 Bft) O-SO 110 2 min 0,000 mm 0,0 UV-I 125 W/m 1,7 C 13,4 C 6,4 km/h (2 Bft) 97,87 %
15.04.2019 18:44 13,4 C 0,0 C 11,7 C 45 % 1019,6 hPa 0,0 l/m 3,7 km/h (1 Bft) O-SO 109 2 min 0,000 mm 0,0 UV-I 121 W/m 1,7 C 13,4 C 6,4 km/h (2 Bft) 98,00 %
15.04.2019 18:46 13,4 C 0,0 C 11,7 C 44 % 1019,6 hPa 0,0 l/m 3,6 km/h (1 Bft) O 86 2 min 0,000 mm 0,0 UV-I 117 W/m 1,4 C 13,4 C 4,8 km/h (1 Bft) 97,87 %
15.04.2019 18:48 13,4 C 0,0 C 11,1 C 44 % 1019,7 hPa 0,0 l/m 5,7 km/h (1 Bft) O 96 2 min 0,000 mm 0,0 UV-I 113 W/m 1,4 C 13,4 C 11,3 km/h (2 Bft) 96,67 %
15.04.2019 18:50 13,3 C 0,0 C 11,1 C 46 % 1019,6 hPa 0,0 l/m 6,7 km/h (2 Bft) O-SO 110 2 min 0,000 mm 0,0 UV-I 108 W/m 1,9 C 13,1 C 11,3 km/h (2 Bft) 94,74 %
15.04.2019 18:52 13,3 C 0,0 C 11,1 C 45 % 1019,6 hPa 0,0 l/m 4,8 km/h (1 Bft) O 96 2 min 0,000 mm 0,0 UV-I 103 W/m 1,6 C 13,3 C 9,7 km/h (2 Bft) 98,39 %
15.04.2019 18:54 13,2 C 0,0 C 11,1 C 45 % 1019,6 hPa 0,0 l/m 5,4 km/h (1 Bft) O 101 2 min 0,000 mm 0,0 UV-I 99 W/m 1,5 C 13,2 C 9,7 km/h (2 Bft) 97,87 %
15.04.2019 18:56 13,2 C 0,0 C 10,6 C 45 % 1019,6 hPa 0,0 l/m 5,4 km/h (1 Bft) O-SO 105 2 min 0,000 mm 0,0 UV-I 95 W/m 1,5 C 13,2 C 8,0 km/h (2 Bft) 95,45 %
15.04.2019 18:58 13,2 C 0,0 C 10,6 C 44 % 1019,6 hPa 0,0 l/m 4,1 km/h (1 Bft) O-SO 116 2 min 0,000 mm 0,0 UV-I 90 W/m 1,2 C 13,2 C 4,8 km/h (1 Bft) 96,43 %
15.04.2019 19:00 13,1 C 0,0 C 10,6 C 46 % 1019,5 hPa 0,0 l/m 5,1 km/h (1 Bft) O 96 2 min 0,000 mm 0,0 UV-I 87 W/m 1,7 C 13,1 C 6,4 km/h (2 Bft) 98,00 %
15.04.2019 19:02 13,0 C 0,0 C 10,0 C 46 % 1019,5 hPa 0,0 l/m 4,0 km/h (1 Bft) O 83 2 min 0,127 mm 0,0 UV-I 84 W/m 1,7 C 13,0 C 6,4 km/h (2 Bft) 97,56 %
15.04.2019 19:04 12,9 C 0,0 C 10,0 C 47 % 1019,5 hPa 0,0 l/m 4,2 km/h (1 Bft) O 92 2 min 0,000 mm 0,0 UV-I 80 W/m 1,9 C 12,9 C 6,4 km/h (2 Bft) 98,00 %
15.04.2019 19:06 12,8 C 0,0 C 10,0 C 48 % 1019,5 hPa 0,0 l/m 4,1 km/h (1 Bft) O 92 2 min 0,000 mm 0,0 UV-I 76 W/m 2,1 C 12,8 C 4,8 km/h (1 Bft) 100,00 %
15.04.2019 19:09 12,7 C 0,0 C 9,4 C 49 % 1019,5 hPa 0,0 l/m 2,4 km/h (1 Bft) O 94 3 min 0,000 mm 0,0 UV-I 71 W/m 2,3 C 12,7 C 4,8 km/h (1 Bft) 98,36 %
15.04.2019 19:10 12,6 C 0,0 C 9,4 C 48 % 1019,5 hPa 0,0 l/m 3,8 km/h (1 Bft) O-SO 106 1 min 0,000 mm 0,0 UV-I 66 W/m 1,9 C 12,6 C 4,8 km/h (1 Bft) 100,00 %
15.04.2019 19:12 12,6 C 0,0 C 9,4 C 47 % 1019,5 hPa 0,0 l/m 2,3 km/h (1 Bft) O-SO 105 2 min 0,000 mm 0,0 UV-I 63 W/m 1,6 C 12,6 C 4,8 km/h (1 Bft) 100,00 %
15.04.2019 19:14 12,6 C 0,0 C 8,9 C 48 % 1019,5 hPa 0,0 l/m 3,0 km/h (1 Bft) O-SO 106 2 min 0,000 mm 0,0 UV-I 60 W/m 1,9 C 12,6 C 6,4 km/h (2 Bft) 94,74 %
15.04.2019 19:16 12,4 C 0,0 C 8,9 C 49 % 1019,5 hPa 0,0 l/m 1,8 km/h (1 Bft) O-SO 106 2 min 0,000 mm 0,0 UV-I 57 W/m 2,0 C 12,4 C 3,2 km/h (1 Bft) 100,00 %
15.04.2019 19:18 12,5 C 0,0 C 8,3 C 47 % 1019,5 hPa 0,0 l/m 3,5 km/h (1 Bft) O-SO 111 2 min 0,000 mm 0,0 UV-I 53 W/m 1,5 C 12,5 C 6,4 km/h (2 Bft) 100,00 %
15.04.2019 19:20 12,5 C 0,0 C 8,3 C 46 % 1019,5 hPa 0,0 l/m 4,2 km/h (1 Bft) O-SO 102 2 min 0,000 mm 0,0 UV-I 50 W/m 1,2 C 12,5 C 6,4 km/h (2 Bft) 100,00 %
15.04.2019 19:22 12,4 C 0,0 C 8,3 C 47 % 1019,4 hPa 0,0 l/m 3,8 km/h (1 Bft) O-SO 104 2 min 0,000 mm 0,0 UV-I 46 W/m 1,4 C 12,4 C 6,4 km/h (2 Bft) 100,00 %
15.04.2019 19:24 12,3 C 0,0 C 8,3 C 48 % 1019,5 hPa 0,0 l/m 3,9 km/h (1 Bft) O-SO 117 2 min 0,000 mm 0,0 UV-I 42 W/m 1,6 C 12,3 C 6,4 km/h (2 Bft) 100,00 %
15.04.2019 19:26 12,2 C 0,0 C 7,8 C 48 % 1019,5 hPa 0,0 l/m 3,8 km/h (1 Bft) O-SO 113 2 min 0,000 mm 0,0 UV-I 40 W/m 1,5 C 12,2 C 6,4 km/h (2 Bft) 100,00 %
15.04.2019 19:28 12,2 C 0,0 C 7,8 C 48 % 1019,4 hPa 0,0 l/m 2,4 km/h (1 Bft) O-SO 113 2 min 0,000 mm 0,0 UV-I 37 W/m 1,5 C 12,2 C 3,2 km/h (1 Bft) 100,00 %
15.04.2019 19:30 12,2 C 0,0 C 7,2 C 47 % 1019,4 hPa 0,0 l/m 3,3 km/h (1 Bft) O-SO 103 2 min 0,000 mm 0,0 UV-I 33 W/m 1,2 C 12,2 C 4,8 km/h (1 Bft) 97,73 %
15.04.2019 19:32 12,2 C 0,0 C 7,2 C 47 % 1019,4 hPa 0,0 l/m 3,4 km/h (1 Bft) O-SO 106 2 min 0,000 mm 0,0 UV-I 31 W/m 1,2 C 12,2 C 4,8 km/h (1 Bft) 97,87 %
15.04.2019 19:34 12,2 C 0,0 C 7,2 C 46 % 1019,4 hPa 0,0 l/m 4,0 km/h (1 Bft) O-SO 104 2 min 0,000 mm 0,0 UV-I 28 W/m 0,9 C 12,2 C 6,4 km/h (2 Bft) 98,00 %
15.04.2019 19:36 12,2 C 0,0 C 7,2 C 46 % 1019,4 hPa 0,0 l/m 3,4 km/h (1 Bft) O-SO 104 2 min 0,000 mm 0,0 UV-I 25 W/m 0,9 C 12,2 C 4,8 km/h (1 Bft) 96,00 %
15.04.2019 19:38 12,2 C 0,0 C 6,7 C 47 % 1019,4 hPa 0,0 l/m 2,2 km/h (1 Bft) O-SO 104 2 min 0,000 mm 0,0 UV-I 22 W/m 1,2 C 12,2 C 3,2 km/h (1 Bft) 97,87 %
15.04.2019 19:40 12,1 C 0,0 C 6,7 C 47 % 1019,4 hPa 0,0 l/m 2,3 km/h (1 Bft) O-SO 104 2 min 0,000 mm 0,0 UV-I 20 W/m 1,1 C 12,1 C 3,2 km/h (1 Bft) 94,87 %
15.04.2019 19:42 12,0 C 0,0 C 6,1 C 48 % 1019,4 hPa 0,0 l/m 2,2 km/h (1 Bft) O-SO 104 2 min 0,000 mm 0,0 UV-I 18 W/m 1,3 C 12,0 C 3,2 km/h (1 Bft) 98,00 %
15.04.2019 19:44 11,9 C 0,0 C 5,6 C 48 % 1019,4 hPa 0,0 l/m 2,4 km/h (1 Bft) O-SO 104 0 min 0,000 mm 0,0 UV-I 15 W/m 1,2 C 11,9 C 3,2 km/h (1 Bft) 97,56 %
15.04.2019 19:46 11,8 C 0,0 C 5,6 C 49 % 1019,4 hPa 0,0 l/m 1,7 km/h (1 Bft) O-SO 104 0 min 0,000 mm 0,0 UV-I 14 W/m 1,4 C 11,8 C 3,2 km/h (1 Bft) 96,00 %
15.04.2019 19:48 11,7 C 0,0 C 5,0 C 49 % 1019,4 hPa 0,0 l/m 1,6 km/h (1 Bft) O-SO 104 0 min 0,000 mm 0,0 UV-I 12 W/m 1,3 C 11,7 C 3,2 km/h (1 Bft) 96,00 %
15.04.2019 19:50 11,7 C 0,0 C 5,0 C 49 % 1019,4 hPa 0,0 l/m 1,5 km/h (1 Bft) O-SO 104 0 min 0,000 mm 0,0 UV-I 11 W/m 1,3 C 11,7 C 1,6 km/h (1 Bft) 98,00 %
15.04.2019 19:52 11,7 C 0,0 C 4,4 C 49 % 1019,5 hPa 0,0 l/m 1,8 km/h (1 Bft) O-SO 104 0 min 0,000 mm 0,0 UV-I 11 W/m 1,3 C 11,7 C 3,2 km/h (1 Bft) 97,37 %
15.04.2019 19:54 11,4 C 0,0 C 4,4 C 53 % 1019,5 hPa 0,0 l/m 1,6 km/h (1 Bft) O-SO 104 0 min 0,000 mm 0,0 UV-I 9 W/m 2,2 C 11,4 C 3,2 km/h (1 Bft) 97,87 %
15.04.2019 19:56 11,1 C 0,0 C 3,9 C 53 % 1019,5 hPa 0,0 l/m 2,1 km/h (1 Bft) O-SO 104 0 min 0,000 mm 0,0 UV-I 9 W/m 1,9 C 11,1 C 3,2 km/h (1 Bft) 94,34 %
15.04.2019 19:58 10,8 C 0,0 C 3,9 C 55 % 1019,5 hPa 0,0 l/m 1,8 km/h (1 Bft) O-SO 104 0 min 0,000 mm 0,0 UV-I 7 W/m 2,1 C 10,8 C 3,2 km/h (1 Bft) 95,74 %
15.04.2019 20:00 10,7 C 0,0 C 3,9 C 53 % 1019,5 hPa 0,0 l/m 1,9 km/h (1 Bft) O-SO 104 0 min 0,000 mm 0,0 UV-I 7 W/m 1,5 C 10,7 C 3,2 km/h (1 Bft) 92,00 %
15.04.2019 20:02 10,7 C 0,0 C 3,9 C 55 % 1019,5 hPa 0,0 l/m 1,6 km/h (1 Bft) O-SO 104 0 min 0,051 mm 0,0 UV-I 7 W/m 2,0 C 10,7 C 3,2 km/h (1 Bft) 95,74 %
15.04.2019 20:04 10,6 C 0,0 C 3,9 C 54 % 1019,6 hPa 0,0 l/m 1,9 km/h (1 Bft) O-SO 104 0 min 0,000 mm 0,0 UV-I 5 W/m 1,7 C 10,6 C 3,2 km/h (1 Bft) 95,74 %
15.04.2019 20:06 10,3 C 0,0 C 3,9 C 55 % 1019,6 hPa 0,0 l/m 2,0 km/h (1 Bft) O-SO 104 0 min 0,000 mm 0,0 UV-I 5 W/m 1,7 C 10,3 C 3,2 km/h (1 Bft) 92,68 %
15.04.2019 20:08 10,6 C 0,0 C 3,3 C 54 % 1019,6 hPa 0,0 l/m 1,8 km/h (1 Bft) O-SO 104 0 min 0,000 mm 0,0 UV-I 5 W/m 1,7 C 10,6 C 3,2 km/h (1 Bft) 93,62 %
15.04.2019 20:10 10,7 C 0,0 C 3,3 C 55 % 1019,7 hPa 0,0 l/m 1,9 km/h (1 Bft) O-SO 104 0 min 0,000 mm 0,0 UV-I 1 W/m 2,0 C 10,7 C 3,2 km/h (1 Bft) 94,00 %
15.04.2019 20:12 10,1 C 0,0 C 3,3 C 58 % 1019,7 hPa 0,0 l/m 1,6 km/h (1 Bft) O-SO 104 0 min 0,000 mm 0,0 UV-I 0 W/m 2,2 C 10,1 C 3,2 km/h (1 Bft) 97,44 %
15.04.2019 20:14 9,4 C 0,0 C 3,3 C 61 % 1019,7 hPa 0,0 l/m 1,9 km/h (1 Bft) O-SO 104 0 min 0,000 mm 0,0 UV-I 0 W/m 2,3 C 9,4 C 3,2 km/h (1 Bft) 94,00 %
15.04.2019 20:16 9,3 C 0,0 C 3,3 C 61 % 1019,7 hPa 0,0 l/m 2,5 km/h (1 Bft) O-SO 104 0 min 0,000 mm 0,0 UV-I 0 W/m 2,2 C 9,3 C 3,2 km/h (1 Bft) 96,00 %
15.04.2019 20:18 9,3 C 0,0 C 3,3 C 59 % 1019,7 hPa 0,0 l/m 3,2 km/h (1 Bft) O-SO 103 0 min 0,000 mm 0,0 UV-I 0 W/m 1,7 C 9,3 C 4,8 km/h (1 Bft) 94,74 %
15.04.2019 20:20 9,8 C 0,0 C 3,3 C 56 % 1019,7 hPa 0,0 l/m 2,3 km/h (1 Bft) O-SO 103 0 min 0,000 mm 0,0 UV-I 0 W/m 1,4 C 9,8 C 3,2 km/h (1 Bft) 96,23 %
15.04.2019 20:22 10,0 C 0,0 C 3,3 C 56 % 1019,7 hPa 0,0 l/m 2,8 km/h (1 Bft) O-SO 103 0 min 0,000 mm 0,0 UV-I 0 W/m 1,6 C 10,0 C 4,8 km/h (1 Bft) 95,74 %
15.04.2019 20:24 10,2 C 0,0 C 2,8 C 53 % 1019,8 hPa 0,0 l/m 2,8 km/h (1 Bft) O-SO 103 0 min 0,000 mm 0,0 UV-I 0 W/m 1,1 C 10,2 C 4,8 km/h (1 Bft) 90,00 %
15.04.2019 20:26 10,4 C 0,0 C 2,8 C 52 % 1019,8 hPa 0,0 l/m 3,0 km/h (1 Bft) O-SO 103 0 min 0,000 mm 0,0 UV-I 0 W/m 1,0 C 10,4 C 3,2 km/h (1 Bft) 95,74 %
15.04.2019 20:28 10,6 C 0,0 C 2,8 C 51 % 1019,8 hPa 0,0 l/m 3,1 km/h (1 Bft) O-SO 103 0 min 0,000 mm 0,0 UV-I 0 W/m 0,9 C 10,6 C 4,8 km/h (1 Bft) 95,74 %
15.04.2019 20:30 10,6 C 0,0 C 2,8 C 51 % 1019,8 hPa 0,0 l/m 3,3 km/h (1 Bft) O-SO 103 0 min 0,000 mm 0,0 UV-I 0 W/m 0,9 C 10,6 C 4,8 km/h (1 Bft) 97,37 %
15.04.2019 20:32 10,6 C 0,0 C 2,8 C 50 % 1019,9 hPa 0,0 l/m 3,4 km/h (1 Bft) O-SO 103 0 min 0,000 mm 0,0 UV-I 0 W/m 0,6 C 10,6 C 4,8 km/h (1 Bft) 98,21 %
15.04.2019 20:34 10,6 C 0,0 C 3,3 C 50 % 1019,9 hPa 0,0 l/m 3,0 km/h (1 Bft) O-SO 103 0 min 0,000 mm 0,0 UV-I 0 W/m 0,6 C 10,6 C 4,8 km/h (1 Bft) 97,37 %
15.04.2019 20:36 10,6 C 0,0 C 3,3 C 50 % 1019,9 hPa 0,0 l/m 2,8 km/h (1 Bft) O-SO 103 0 min 0,000 mm 0,0 UV-I 0 W/m 0,6 C 10,6 C 4,8 km/h (1 Bft) 96,23 %
15.04.2019 20:38 10,5 C 0,0 C 3,3 C 49 % 1019,9 hPa 0,0 l/m 3,7 km/h (1 Bft) O-SO 103 0 min 0,000 mm 0,0 UV-I 0 W/m 0,2 C 10,5 C 4,8 km/h (1 Bft) 98,00 %
15.04.2019 20:40 10,6 C 0,0 C 3,3 C 48 % 1019,9 hPa 0,0 l/m 2,8 km/h (1 Bft) O-SO 103 0 min 0,000 mm 0,0 UV-I 0 W/m 0,1 C 10,6 C 4,8 km/h (1 Bft) 97,87 %
15.04.2019 20:42 10,6 C 0,0 C 3,3 C 49 % 1019,9 hPa 0,0 l/m 3,3 km/h (1 Bft) O-SO 103 0 min 0,000 mm 0,0 UV-I 0 W/m 0,3 C 10,6 C 4,8 km/h (1 Bft) 97,37 %
15.04.2019 20:44 10,5 C 0,0 C 3,3 C 49 % 1019,9 hPa 0,0 l/m 2,7 km/h (1 Bft) O-SO 103 0 min 0,000 mm 0,0 UV-I 0 W/m 0,2 C 10,5 C 3,2 km/h (1 Bft) 96,23 %
15.04.2019 20:46 10,4 C 0,0 C 3,3 C 49 % 1019,9 hPa 0,0 l/m 2,5 km/h (1 Bft) O-SO 103 0 min 0,000 mm 0,0 UV-I 0 W/m 0,2 C 10,4 C 3,2 km/h (1 Bft) 98,00 %
15.04.2019 20:48 10,3 C 0,0 C 2,8 C 50 % 1020,0 hPa 0,0 l/m 2,9 km/h (1 Bft) O-SO 103 0 min 0,000 mm 0,0 UV-I 0 W/m 0,3 C 10,3 C 3,2 km/h (1 Bft) 97,44 %
15.04.2019 20:50 10,1 C 0,0 C 2,8 C 50 % 1020,0 hPa 0,0 l/m 3,2 km/h (1 Bft) O-SO 103 0 min 0,000 mm 0,0 UV-I 0 W/m 0,2 C 10,1 C 4,8 km/h (1 Bft) 98,08 %
15.04.2019 20:52 9,9 C 0,0 C 2,8 C 52 % 1020,0 hPa 0,0 l/m 2,7 km/h (1 Bft) O-SO 103 0 min 0,000 mm 0,0 UV-I 0 W/m 0,5 C 9,9 C 3,2 km/h (1 Bft) 95,24 %
15.04.2019 20:54 9,7 C 0,0 C 2,2 C 52 % 1020,0 hPa 0,0 l/m 2,5 km/h (1 Bft) O-SO 103 0 min 0,000 mm 0,0 UV-I 0 W/m 0,3 C 9,7 C 3,2 km/h (1 Bft) 97,87 %
15.04.2019 20:56 9,6 C 0,0 C 2,2 C 53 % 1020,0 hPa 0,0 l/m 2,5 km/h (1 Bft) O-SO 103 0 min 0,000 mm 0,0 UV-I 0 W/m 0,5 C 9,6 C 3,2 km/h (1 Bft) 97,87 %
15.04.2019 20:58 9,7 C 0,0 C 2,2 C 52 % 1019,9 hPa 0,0 l/m 2,4 km/h (1 Bft) O-SO 103 0 min 0,000 mm 0,0 UV-I 0 W/m 0,3 C 9,7 C 3,2 km/h (1 Bft) 98,21 %
15.04.2019 21:00 9,7 C 0,0 C 1,7 C 52 % 1020,0 hPa 0,0 l/m 2,2 km/h (1 Bft) O-SO 103 0 min 0,000 mm 0,0 UV-I 0 W/m 0,3 C 9,7 C 3,2 km/h (1 Bft) 95,12 %
15.04.2019 21:02 9,7 C 0,0 C 1,7 C 52 % 1020,0 hPa 0,0 l/m 2,2 km/h (1 Bft) O-SO 103 0 min 0,025 mm 0,0 UV-I 0 W/m 0,3 C 9,7 C 3,2 km/h (1 Bft) 100,00 %
15.04.2019 21:04 9,7 C 0,0 C 1,7 C 52 % 1019,9 hPa 0,0 l/m 3,2 km/h (1 Bft) O-SO 103 0 min 0,000 mm 0,0 UV-I 0 W/m 0,3 C 9,7 C 4,8 km/h (1 Bft) 100,00 %
15.04.2019 21:06 9,7 C 0,0 C 2,2 C 52 % 1019,9 hPa 0,0 l/m 3,7 km/h (1 Bft) O-SO 103 0 min 0,000 mm 0,0 UV-I 0 W/m 0,3 C 9,7 C 4,8 km/h (1 Bft) 97,87 %
15.04.2019 21:08 9,7 C 0,0 C 2,2 C 51 % 1019,9 hPa 0,0 l/m 4,1 km/h (1 Bft) O-SO 103 0 min 0,000 mm 0,0 UV-I 0 W/m 0,1 C 9,7 C 4,8 km/h (1 Bft) 97,87 %
15.04.2019 21:10 9,8 C 0,0 C 2,2 C 51 % 1019,9 hPa 0,0 l/m 4,2 km/h (1 Bft) O-SO 102 0 min 0,000 mm 0,0 UV-I 0 W/m 0,2 C 9,8 C 6,4 km/h (2 Bft) 100,00 %
15.04.2019 21:12 9,7 C 0,0 C 2,2 C 52 % 1019,9 hPa 0,0 l/m 4,1 km/h (1 Bft) O-SO 102 0 min 0,000 mm 0,0 UV-I 0 W/m 0,3 C 9,7 C 4,8 km/h (1 Bft) 92,11 %
15.04.2019 21:14 9,6 C 0,0 C 2,2 C 52 % 1019,9 hPa 0,0 l/m 3,4 km/h (1 Bft) O-SO 102 0 min 0,000 mm 0,0 UV-I 0 W/m 0,2 C 9,6 C 4,8 km/h (1 Bft) 100,00 %
15.04.2019 21:16 9,5 C 0,0 C 2,2 C 52 % 1019,9 hPa 0,0 l/m 2,8 km/h (1 Bft) O-SO 102 0 min 0,000 mm 0,0 UV-I 0 W/m 0,1 C 9,5 C 4,8 km/h (1 Bft) 100,00 %
15.04.2019 21:18 9,4 C 0,0 C 2,2 C 53 % 1019,8 hPa 0,0 l/m 3,5 km/h (1 Bft) O-SO 102 0 min 0,000 mm 0,0 UV-I 0 W/m 0,3 C 9,4 C 4,8 km/h (1 Bft) 98,21 %
15.04.2019 21:20 9,4 C 0,0 C 2,2 C 53 % 1019,9 hPa 0,0 l/m 3,3 km/h (1 Bft) O-SO 102 0 min 0,000 mm 0,0 UV-I 0 W/m 0,3 C 9,4 C 4,8 km/h (1 Bft) 100,00 %
15.04.2019 21:22 9,3 C 0,0 C 2,2 C 53 % 1019,9 hPa 0,0 l/m 3,8 km/h (1 Bft) O-SO 102 0 min 0,000 mm 0,0 UV-I 0 W/m 0,2 C 9,3 C 4,8 km/h (1 Bft) 97,56 %
15.04.2019 21:24 9,2 C 0,0 C 2,2 C 54 % 1019,8 hPa 0,0 l/m 4,0 km/h (1 Bft) O-SO 102 0 min 0,000 mm 0,0 UV-I 0 W/m 0,4 C 9,2 C 4,8 km/h (1 Bft) 98,00 %
15.04.2019 21:26 9,2 C 0,0 C 2,2 C 53 % 1019,8 hPa 0,0 l/m 3,9 km/h (1 Bft) O-SO 102 0 min 0,000 mm 0,0 UV-I 0 W/m 0,1 C 9,2 C 4,8 km/h (1 Bft) 98,11 %
15.04.2019 21:28 9,2 C 0,0 C 1,7 C 54 % 1019,8 hPa 0,0 l/m 4,3 km/h (1 Bft) O-SO 102 0 min 0,000 mm 0,0 UV-I 0 W/m 0,4 C 9,2 C 6,4 km/h (2 Bft) 97,22 %
15.04.2019 21:30 9,2 C 0,0 C 1,7 C 53 % 1019,8 hPa 0,0 l/m 4,4 km/h (1 Bft) O 101 0 min 0,000 mm 0,0 UV-I 0 W/m 0,1 C 9,2 C 6,4 km/h (2 Bft) 96,23 %
15.04.2019 21:32 9,2 C 0,0 C 1,7 C 53 % 1019,8 hPa 0,0 l/m 4,6 km/h (1 Bft) O 101 0 min 0,000 mm 0,0 UV-I 0 W/m 0,1 C 9,2 C 6,4 km/h (2 Bft) 98,00 %
15.04.2019 21:34 9,1 C 0,0 C 1,7 C 54 % 1019,8 hPa 0,0 l/m 5,1 km/h (1 Bft) O-SO 102 0 min 0,000 mm 0,0 UV-I 0 W/m 0,3 C 9,1 C 6,4 km/h (2 Bft) 97,37 %
15.04.2019 21:36 9,1 C 0,0 C 2,2 C 54 % 1019,8 hPa 0,0 l/m 5,5 km/h (1 Bft) O 100 0 min 0,000 mm 0,0 UV-I 0 W/m 0,3 C 9,1 C 6,4 km/h (2 Bft) 96,43 %
15.04.2019 21:38 9,0 C 0,0 C 2,2 C 54 % 1019,8 hPa 0,0 l/m 5,8 km/h (2 Bft) O 100 0 min 0,000 mm 0,0 UV-I 0 W/m 0,2 C 9,0 C 6,4 km/h (2 Bft) 97,87 %
15.04.2019 21:40 8,9 C 0,0 C 2,2 C 54 % 1019,8 hPa 0,0 l/m 5,3 km/h (1 Bft) O 86 0 min 0,000 mm 0,0 UV-I 0 W/m 0,1 C 8,9 C 6,4 km/h (2 Bft) 95,45 %
15.04.2019 21:42 9,0 C 0,0 C 2,2 C 54 % 1019,7 hPa 0,0 l/m 5,8 km/h (2 Bft) O-NO 74 0 min 0,000 mm 0,0 UV-I 0 W/m 0,2 C 9,0 C 6,4 km/h (2 Bft) 95,74 %
15.04.2019 21:44 9,0 C 0,0 C 2,2 C 54 % 1019,8 hPa 0,0 l/m 5,4 km/h (1 Bft) O 80 0 min 0,000 mm 0,0 UV-I 0 W/m 0,2 C 9,0 C 6,4 km/h (2 Bft) 96,00 %
15.04.2019 21:46 8,9 C 0,0 C 2,2 C 54 % 1019,7 hPa 0,0 l/m 5,5 km/h (1 Bft) O 89 0 min 0,000 mm 0,0 UV-I 0 W/m 0,1 C 8,9 C 8,0 km/h (2 Bft) 94,74 %
15.04.2019 21:48 8,9 C 0,0 C 2,2 C 54 % 1019,7 hPa 0,0 l/m 5,1 km/h (1 Bft) O-NO 67 0 min 0,000 mm 0,0 UV-I 0 W/m 0,1 C 8,9 C 8,0 km/h (2 Bft) 94,34 %
15.04.2019 21:50 8,9 C 0,0 C 2,8 C 54 % 1019,8 hPa 0,0 l/m 5,2 km/h (1 Bft) O 87 0 min 0,000 mm 0,0 UV-I 0 W/m 0,1 C 8,9 C 6,4 km/h (2 Bft) 97,73 %
15.04.2019 21:52 8,9 C 0,0 C 2,8 C 54 % 1019,7 hPa 0,0 l/m 5,2 km/h (1 Bft) O 96 0 min 0,000 mm 0,0 UV-I 0 W/m 0,1 C 8,9 C 6,4 km/h (2 Bft) 97,56 %
15.04.2019 21:54 8,9 C 0,0 C 2,8 C 55 % 1019,7 hPa 0,0 l/m 6,2 km/h (2 Bft) O 100 0 min 0,000 mm 0,0 UV-I 0 W/m 0,4 C 8,9 C 9,7 km/h (2 Bft) 98,11 %
15.04.2019 21:56 8,7 C 0,0 C 2,8 C 55 % 1019,7 hPa 0,0 l/m 6,0 km/h (2 Bft) O 96 0 min 0,000 mm 0,0 UV-I 0 W/m 0,2 C 8,7 C 9,7 km/h (2 Bft) 97,56 %
15.04.2019 21:58 8,7 C 0,0 C 2,8 C 55 % 1019,8 hPa 0,0 l/m 6,4 km/h (2 Bft) O 94 0 min 0,000 mm 0,0 UV-I 0 W/m 0,2 C 8,7 C 9,7 km/h (2 Bft) 98,00 %
15.04.2019 22:00 8,6 C 0,0 C 2,8 C 55 % 1019,8 hPa 0,0 l/m 5,0 km/h (1 Bft) O 97 0 min 0,000 mm 0,0 UV-I 0 W/m 0,1 C 8,6 C 6,4 km/h (2 Bft) 96,00 %
15.04.2019 22:02 8,6 C 0,0 C 2,2 C 56 % 1019,7 hPa 0,0 l/m 4,4 km/h (1 Bft) O 96 0 min 0,026 mm 0,0 UV-I 0 W/m 0,3 C 8,6 C 6,4 km/h (2 Bft) 97,73 %
15.04.2019 22:04 8,6 C 0,0 C 2,8 C 55 % 1019,7 hPa 0,0 l/m 4,3 km/h (1 Bft) O 96 0 min 0,000 mm 0,0 UV-I 0 W/m 0,1 C 8,6 C 6,4 km/h (2 Bft) 97,62 %
15.04.2019 22:05 8,6 C 0,0 C 2,8 C 55 % 1019,7 hPa 0,0 l/m 4,8 km/h (1 Bft) O 90 0 min 0,000 mm 0,0 UV-I 0 W/m 0,1 C 8,6 C 6,4 km/h (2 Bft) 100,00 %
15.04.2019 22:10 8,4 C 0,0 C 2,2 C 56 % 1019,7 hPa 0,0 l/m 3,2 km/h (1 Bft) O 90 0 min 0,000 mm 0,0 UV-I 0 W/m 0,1 C 8,4 C 6,4 km/h (2 Bft) 100,00 %
15.04.2019 22:15 8,3 C 0,0 C 2,2 C 57 % 1019,6 hPa 0,0 l/m 4,8 km/h (1 Bft) O 90 0 min 0,000 mm 0,0 UV-I 0 W/m 0,3 C 8,3 C 6,4 km/h (2 Bft) 98,25 %
15.04.2019 22:20 8,3 C 0,0 C 2,2 C 56 % 1019,5 hPa 0,0 l/m 6,4 km/h (2 Bft) O-SO 112 0 min 0,000 mm 0,0 UV-I 0 W/m 0,0 C 8,3 C 9,7 km/h (2 Bft) 97,37 %
15.04.2019 22:25 8,1 C 0,0 C 2,8 C 58 % 1019,5 hPa 0,0 l/m 6,4 km/h (2 Bft) O-SO 112 0 min 0,000 mm 0,0 UV-I 0 W/m 0,3 C 8,1 C 11,3 km/h (2 Bft) 99,12 %
15.04.2019 22:30 7,8 C 0,0 C 2,8 C 58 % 1019,5 hPa 0,0 l/m 6,2 km/h (2 Bft) O 88 0 min 0,000 mm 0,0 UV-I 0 W/m 0,1 C 7,8 C 9,7 km/h (2 Bft) 98,37 %
15.04.2019 22:32 7,7 C 0,0 C 2,2 C 59 % 1019,4 hPa 0,0 l/m 6,7 km/h (2 Bft) O-SO 107 0 min 0,000 mm 0,0 UV-I 0 W/m 0,2 C 7,5 C 11,3 km/h (2 Bft) 100,00 %
15.04.2019 22:34 7,7 C 0,0 C 2,2 C 58 % 1019,4 hPa 0,0 l/m 4,5 km/h (1 Bft) O-SO 103 0 min 0,000 mm 0,0 UV-I 0 W/m -0,0 C 7,7 C 6,4 km/h (2 Bft) 100,00 %
15.04.2019 22:36 7,6 C 0,0 C 2,2 C 59 % 1019,5 hPa 0,0 l/m 5,6 km/h (1 Bft) O-SO 112 0 min 0,000 mm 0,0 UV-I 0 W/m 0,1 C 7,6 C 9,7 km/h (2 Bft) 100,00 %
15.04.2019 22:38 7,4 C 0,0 C 2,2 C 60 % 1019,4 hPa 0,0 l/m 6,1 km/h (2 Bft) O-SO 115 0 min 0,000 mm 0,0 UV-I 0 W/m 0,2 C 7,4 C 11,3 km/h (2 Bft) 95,74 %
15.04.2019 22:40 7,3 C 0,0 C 2,2 C 60 % 1019,4 hPa 0,0 l/m 7,5 km/h (2 Bft) O-SO 106 0 min 0,000 mm 0,0 UV-I 0 W/m 0,1 C 6,4 C 12,9 km/h (3 Bft) 96,00 %
15.04.2019 22:42 7,6 C 0,0 C 2,2 C 59 % 1019,3 hPa 0,0 l/m 6,0 km/h (2 Bft) O-SO 117 0 min 0,000 mm 0,0 UV-I 0 W/m 0,1 C 7,6 C 9,7 km/h (2 Bft) 98,00 %
15.04.2019 22:44 7,7 C 0,0 C 2,2 C 59 % 1019,3 hPa 0,0 l/m 9,6 km/h (2 Bft) O 90 0 min 0,000 mm 0,0 UV-I 0 W/m 0,2 C 5,3 C 14,5 km/h (3 Bft) 97,37 %
15.04.2019 22:46 7,9 C 0,0 C 2,8 C 58 % 1019,3 hPa 0,0 l/m 7,4 km/h (2 Bft) O 98 0 min 0,000 mm 0,0 UV-I 0 W/m 0,2 C 7,1 C 12,9 km/h (3 Bft) 97,56 %
15.04.2019 22:48 7,9 C 0,0 C 2,8 C 58 % 1019,3 hPa 0,0 l/m 5,4 km/h (1 Bft) O-NO 65 0 min 0,000 mm 0,0 UV-I 0 W/m 0,2 C 7,9 C 9,7 km/h (2 Bft) 96,00 %
15.04.2019 22:50 7,9 C 0,0 C 2,8 C 58 % 1019,3 hPa 0,0 l/m 5,9 km/h (2 Bft) SO 144 0 min 0,000 mm 0,0 UV-I 0 W/m 0,2 C 7,9 C 9,7 km/h (2 Bft) 98,00 %
15.04.2019 22:52 7,9 C 0,0 C 2,8 C 57 % 1019,3 hPa 0,0 l/m 6,8 km/h (2 Bft) O-SO 121 0 min 0,000 mm 0,0 UV-I 0 W/m -0,1 C 7,6 C 11,3 km/h (2 Bft) 95,74 %
15.04.2019 22:54 7,9 C 0,0 C 2,8 C 58 % 1019,3 hPa 0,0 l/m 4,8 km/h (1 Bft) O-SO 109 0 min 0,000 mm 0,0 UV-I 0 W/m 0,2 C 7,9 C 9,7 km/h (2 Bft) 93,62 %
15.04.2019 22:56 7,7 C 0,0 C 2,8 C 59 % 1019,3 hPa 0,0 l/m 6,1 km/h (2 Bft) O-SO 109 0 min 0,000 mm 0,0 UV-I 0 W/m 0,2 C 7,7 C 9,7 km/h (2 Bft) 97,87 %
15.04.2019 22:58 7,5 C 0,0 C 2,2 C 59 % 1019,2 hPa 0,0 l/m 6,5 km/h (2 Bft) O-SO 115 0 min 0,000 mm 0,0 UV-I 0 W/m 0,0 C 7,4 C 11,3 km/h (2 Bft) 100,00 %
15.04.2019 23:00 7,5 C 0,0 C 2,2 C 59 % 1019,3 hPa 0,0 l/m 5,4 km/h (1 Bft) O-SO 104 0 min 0,000 mm 0,0 UV-I 0 W/m 0,0 C 7,5 C 11,3 km/h (2 Bft) 97,73 %
15.04.2019 23:02 7,6 C 0,0 C 2,2 C 58 % 1019,3 hPa 0,0 l/m 6,4 km/h (2 Bft) O 95 0 min 0,025 mm 0,0 UV-I 0 W/m -0,1 C 7,6 C 14,5 km/h (3 Bft) 100,00 %
15.04.2019 23:04 7,7 C 0,0 C 2,2 C 58 % 1019,3 hPa 0,0 l/m 6,2 km/h (2 Bft) O 81 0 min 0,000 mm 0,0 UV-I 0 W/m -0,0 C 7,7 C 9,7 km/h (2 Bft) 100,00 %
15.04.2019 23:06 7,7 C 0,0 C 2,8 C 58 % 1019,3 hPa 0,0 l/m 5,7 km/h (1 Bft) O 96 0 min 0,000 mm 0,0 UV-I 0 W/m -0,0 C 7,7 C 9,7 km/h (2 Bft) 100,00 %
15.04.2019 23:08 7,6 C 0,0 C 2,8 C 58 % 1019,3 hPa 0,0 l/m 5,5 km/h (1 Bft) O 84 0 min 0,000 mm 0,0 UV-I 0 W/m -0,1 C 7,6 C 8,0 km/h (2 Bft) 95,74 %
15.04.2019 23:10 7,3 C 0,0 C 2,8 C 59 % 1019,4 hPa 0,0 l/m 5,5 km/h (1 Bft) O 89 0 min 0,000 mm 0,0 UV-I 0 W/m -0,2 C 7,3 C 9,7 km/h (2 Bft) 100,00 %
15.04.2019 23:12 7,2 C 0,0 C 2,8 C 60 % 1019,3 hPa 0,0 l/m 4,6 km/h (1 Bft) O-SO 103 0 min 0,000 mm 0,0 UV-I 0 W/m -0,0 C 7,2 C 6,4 km/h (2 Bft) 98,11 %
15.04.2019 23:14 6,9 C 0,0 C 2,8 C 61 % 1019,3 hPa 0,0 l/m 9,0 km/h (2 Bft) O 98 0 min 0,000 mm 0,0 UV-I 0 W/m -0,1 C 4,9 C 11,3 km/h (2 Bft) 100,00 %
15.04.2019 23:16 6,8 C 0,0 C 2,8 C 62 % 1019,2 hPa 0,0 l/m 9,6 km/h (2 Bft) O-SO 105 0 min 0,000 mm 0,0 UV-I 0 W/m 0,0 C 4,3 C 11,3 km/h (2 Bft) 97,73 %
15.04.2019 23:18 6,9 C 0,0 C 2,8 C 62 % 1019,2 hPa 0,0 l/m 8,2 km/h (2 Bft) O 90 0 min 0,000 mm 0,0 UV-I 0 W/m 0,1 C 5,4 C 11,3 km/h (2 Bft) 100,00 %
15.04.2019 23:20 6,9 C 0,0 C 2,8 C 62 % 1019,3 hPa 0,0 l/m 6,1 km/h (2 Bft) O 94 0 min 0,000 mm 0,0 UV-I 0 W/m 0,1 C 6,9 C 9,7 km/h (2 Bft) 95,29 %
15.04.2019 23:22 6,8 C 0,0 C 2,8 C 62 % 1019,2 hPa 0,0 l/m 5,9 km/h (2 Bft) O-SO 104 0 min 0,000 mm 0,0 UV-I 0 W/m 0,0 C 6,8 C 6,4 km/h (2 Bft) 97,87 %
15.04.2019 23:24 6,8 C 0,0 C 2,8 C 62 % 1019,2 hPa 0,0 l/m 4,0 km/h (1 Bft) O 92 0 min 0,000 mm 0,0 UV-I 0 W/m 0,0 C 6,8 C 6,4 km/h (2 Bft) 100,00 %
15.04.2019 23:26 6,6 C 0,0 C 2,2 C 64 % 1019,2 hPa 0,0 l/m 3,3 km/h (1 Bft) O-SO 116 0 min 0,000 mm 0,0 UV-I 0 W/m 0,3 C 6,6 C 6,4 km/h (2 Bft) 100,00 %
15.04.2019 23:28 6,1 C 0,0 C 2,2 C 65 % 1019,2 hPa 0,0 l/m 4,8 km/h (1 Bft) O-SO 123 0 min 0,000 mm 0,0 UV-I 0 W/m 0,0 C 6,1 C 6,4 km/h (2 Bft) 100,00 %
15.04.2019 23:30 5,7 C 0,0 C 1,7 C 67 % 1019,2 hPa 0,0 l/m 5,7 km/h (1 Bft) O-SO 121 0 min 0,000 mm 0,0 UV-I 0 W/m 0,1 C 5,7 C 6,4 km/h (2 Bft) 100,00 %
15.04.2019 23:32 5,7 C 0,0 C 1,1 C 67 % 1019,2 hPa 0,0 l/m 3,8 km/h (1 Bft) O-SO 121 0 min 0,000 mm 0,0 UV-I 0 W/m 0,1 C 5,7 C 4,8 km/h (1 Bft) 100,00 %
15.04.2019 23:34 5,8 C 0,0 C 1,1 C 66 % 1019,2 hPa 0,0 l/m 4,6 km/h (1 Bft) O-SO 119 0 min 0,000 mm 0,0 UV-I 0 W/m -0,0 C 5,8 C 9,7 km/h (2 Bft) 100,00 %
15.04.2019 23:36 5,9 C 0,0 C 0,6 C 66 % 1019,2 hPa 0,0 l/m 6,1 km/h (2 Bft) O-SO 114 0 min 0,000 mm 0,0 UV-I 0 W/m 0,0 C 5,9 C 9,7 km/h (2 Bft) 100,00 %
15.04.2019 23:38 6,2 C 0,0 C 1,1 C 65 % 1019,2 hPa 0,0 l/m 5,9 km/h (2 Bft) O 98 0 min 0,000 mm 0,0 UV-I 0 W/m 0,1 C 6,2 C 9,7 km/h (2 Bft) 98,00 %
15.04.2019 23:40 6,6 C 0,0 C 1,1 C 63 % 1019,2 hPa 0,0 l/m 6,0 km/h (2 Bft) O 88 0 min 0,000 mm 0,0 UV-I 0 W/m 0,1 C 6,6 C 9,7 km/h (2 Bft) 97,22 %
15.04.2019 23:42 6,8 C 0,0 C 1,1 C 62 % 1019,2 hPa 0,0 l/m 6,0 km/h (2 Bft) O-NO 78 0 min 0,000 mm 0,0 UV-I 0 W/m 0,0 C 6,8 C 11,3 km/h (2 Bft) 96,36 %
15.04.2019 23:44 6,8 C 0,0 C 1,7 C 61 % 1019,2 hPa 0,0 l/m 5,9 km/h (2 Bft) O 98 0 min 0,000 mm 0,0 UV-I 0 W/m -0,2 C 6,8 C 9,7 km/h (2 Bft) 93,33 %
15.04.2019 23:46 6,8 C 0,0 C 1,7 C 62 % 1019,2 hPa 0,0 l/m 6,8 km/h (2 Bft) O-SO 107 0 min 0,000 mm 0,0 UV-I 0 W/m 0,0 C 6,5 C 11,3 km/h (2 Bft) 97,18 %
15.04.2019 23:48 6,8 C 0,0 C 2,2 C 62 % 1019,2 hPa 0,0 l/m 6,2 km/h (2 Bft) O-NO 76 0 min 0,000 mm 0,0 UV-I 0 W/m 0,0 C 6,8 C 11,3 km/h (2 Bft) 96,23 %
15.04.2019 23:50 6,7 C 0,0 C 2,2 C 62 % 1019,2 hPa 0,0 l/m 5,5 km/h (1 Bft) O 97 0 min 0,000 mm 0,0 UV-I 0 W/m -0,1 C 6,7 C 6,4 km/h (2 Bft) 92,68 %
15.04.2019 23:52 6,5 C 0,0 C 2,2 C 62 % 1019,2 hPa 0,0 l/m 6,7 km/h (2 Bft) O-NO 70 0 min 0,000 mm 0,0 UV-I 0 W/m -0,2 C 6,3 C 9,7 km/h (2 Bft) 96,00 %
15.04.2019 23:54 6,3 C 0,0 C 2,2 C 63 % 1019,2 hPa 0,0 l/m 4,9 km/h (1 Bft) O 98 0 min 0,000 mm 0,0 UV-I 0 W/m -0,2 C 6,3 C 9,7 km/h (2 Bft) 92,00 %
15.04.2019 23:56 6,2 C 0,0 C 2,2 C 64 % 1019,2 hPa 0,0 l/m 6,3 km/h (2 Bft) O-NO 78 0 min 0,000 mm 0,0 UV-I 0 W/m -0,1 C 6,2 C 9,7 km/h (2 Bft) 92,00 %
15.04.2019 23:58 6,1 C 0,0 C 2,2 C 65 % 1019,2 hPa 0,0 l/m 6,5 km/h (2 Bft) O 99 0 min 0,000 mm 0,0 UV-I 0 W/m 0,0 C 6,0 C 9,7 km/h (2 Bft) 94,29 %
_ Min-Zeit 05:20 00:00 23:36 17:46 22:58 - 04:40 - - - - - - 23:52 04:16 04:40 02:46
Minimum _ 3,8 C 0,0 C 0,6 C 41 % 1019,2 hPa - 0,1 km/h (0 Bft) - - - - - - -0,2 C 2,7 C 1,6 km/h (1 Bft) 87,23 %
_ Max-Zeit 16:10 00:00 13:28 07:02 09:36 02:52 16:26 - - 12:26 13:02 13:18 12:28 10:54 16:10 16:44 00:00
Maximum _ 14,4 C 0,0 C 29,4 C 97 % 1023,5 hPa 0,2 l/m 16,0 km/h
SO (3 Bft)
- - 6 min 0,406 mm 2,8 UV-I 827 W/m 6,2 C 14,4 C 22,5 km/h
O (4 Bft)
100,00 %
Durchschnitt _ 8,8 C 0,0 C 11,7 C 72 % 1021,5 hPa #0,6 l/m 4,5 km/h (1 Bft) SW - #10:54 h #3,048 mm 1,6 UV-I 394 W/m 3,3 C 8,6 C 7,3 km/h (2 Bft) 97,15 %